GFSMA_925_spd_000.txt.gz
Wind_Speed
10 11 12 12 12 12 12 12 12 11 8 6 6 6 6 5 4 4 4 4 2 3 4 6 7 6 6 7 8 8 8 13 16 20 23 25 27 27 27 25 25 25 26
10 11 12 12 12 12 12 12 12 11 10 9 8 8 8 7 6 6 5 4 3 2 2 2 2 4 2 3 8 10 10 10 10 14 19 23 27 27 28 28 27 26 28
10 11 12 12 12 12 13 12 12 12 12 11 11 11 10 9 8 8 7 6 5 3 1 1 2 2 2 2 3 6 9 11 12 10 11 16 22 25 29 30 30 29 29
12 13 14 14 14 15 15 15 15 15 15 14 14 14 13 13 12 11 10 9 8 6 3 3 3 4 4 4 4 6 7 10 12 15 15 15 16 18 24 29 33 33 32
13 14 17 18 16 16 17 18 19 19 19 18 17 17 17 17 15 14 14 13 11 9 7 6 6 7 8 8 8 7 7 7 9 10 11 16 19 21 21 24 30 35 36
12 14 17 19 19 19 21 22 22 23 23 23 23 21 21 20 19 18 17 17 14 12 9 8 5 5 8 11 12 12 9 9 9 8 11 11 14 21 26 25 24 29 34
14 16 18 19 20 21 22 23 25 27 27 26 24 25 26 25 24 23 22 22 20 17 13 11 7 6 5 11 11 14 12 9 10 11 8 11 13 14 18 25 29 28 26
18 17 18 19 20 22 22 22 23 25 27 27 27 25 14 24 27 25 26 24 23 20 16 13 9 7 6 6 8 12 14 15 13 11 12 12 12 14 13 17 20 24 28
19 18 18 18 18 19 22 23 23 25 28 28 28 22 11 15 18 25 23 22 21 20 17 13 10 7 6 6 8 8 10 13 15 13 11 12 11 12 14 13 16 19 23
19 19 19 18 18 18 20 22 23 24 26 29 29 30 35 31 14 13 16 22 22 20 16 13 11 9 8 7 9 10 11 9 10 14 15 13 14 14 13 13 13 15 17
19 19 18 17 16 15 16 16 16 16 19 24 26 26 25 27 28 16 15 12 20 18 15 13 12 11 11 9 10 11 11 9 6 8 13 16 14 13 14 14 14 14 16
22 20 17 13 10 10 10 8 7 8 8 8 9 9 10 7 12 12 12 16 14 18 15 12 12 13 13 12 11 13 10 11 8 5 5 11 14 13 13 14 15 15 13
22 20 14 11 9 7 5 4 4 4 5 6 7 7 10 11 12 11 11 12 8 15 18 15 14 16 15 13 12 11 11 10 10 7 5 6 8 12 15 13 11 13 14
19 13 10 9 9 8 8 8 6 10 10 8 7 5 4 4 3 3 2 3 3 7 19 19 17 15 13 14 13 9 12 15 14 10 10 5 7 7 8 12 13 12 13
14 11 10 9 6 4 5 5 5 7 10 10 11 9 6 6 5 5 8 8 10 7 10 16 17 15 14 14 14 13 14 13 13 13 12 12 9 8 7 8 10 12 15
11 10 7 6 6 7 9 11 12 9 9 10 8 11 12 11 11 11 13 14 17 17 12 19 18 18 18 17 17 17 19 20 20 18 16 17 16 15 11 10 11 13 15
11 9 9 9 10 12 16 11 12 13 12 11 11 13 14 14 15 16 16 17 19 19 14 20 21 20 21 20 21 21 21 22 22 21 20 22 24 23 21 19 18 18 16
11 10 11 12 16 12 14 14 15 15 14 15 15 16 17 17 17 17 17 18 18 19 20 19 22 21 22 22 22 23 24 23 23 22 20 24 23 23 26 28 25 22 23
11 12 14 14 14 17 18 16 14 16 18 19 18 17 16 15 16 16 16 18 19 20 21 22 23 23 23 23 25 25 26 26 26 27 26 25 26 24 23 24 25 26 26
15 17 18 19 18 17 17 18 17 19 19 18 15 14 15 16 18 18 19 20 22 23 23 23 24 25 24 24 26 26 26 26 27 27 27 28 27 25 27 25 24 27 28
16 16 17 16 17 18 16 15 17 17 17 18 18 18 18 18 18 21 23 23 23 24 24 23 23 23 22 22 23 24 26 25 26 25 26 27 26 26 29 33 34 33 33
15 16 16 17 18 16 13 12 14 18 21 22 22 22 22 22 23 22 21 23 24 25 25 23 22 21 24 22 20 21 21 21 13 23 25 27 24 25 27 27 26 26 26
17 18 17 16 15 16 16 19 19 21 23 24 24 23 23 23 22 22 22 20 22 23 25 26 26 26 26 23 22 22 21 21 21 21 21 20 18 18 19 22 23 25 25
18 17 16 17 19 19 17 17 20 22 22 23 23 23 24 24 22 18 20 21 21 22 23 24 27 28 27 25 24 24 25 25 24 23 22 16 18 20 19 22 24 24 22
18 17 17 19 20 21 18 19 20 21 22 23 23 22 21 21 21 19 20 22 23 24 24 27 30 29 29 29 28 24 22 20 18 24 24 23 20 20 21 22 23 22 21
19 17 18 19 20 20 18 20 19 21 21 21 20 20 20 21 22 20 20 19 23 24 23 21 20 21 32 29 29 29 28 24 21 17 22 22 20 18 14 21 23 22 23

GFSMA_925_spd_003.txt.gz
Wind_Speed
9 11 12 12 12 12 12 13 13 13 12 11 10 11 10 10 10 9 9 11 10 9 9 9 10 10 12 12 12 13 12 10 15 17 19 23 23 24 25 25 26 25 25
7 9 11 11 12 12 12 13 14 15 14 13 13 13 13 13 12 12 12 11 11 10 10 10 10 9 10 11 12 12 13 12 12 15 18 20 23 24 25 26 26 26 26
7 9 12 12 13 14 15 15 15 16 16 16 17 16 16 16 15 15 14 13 12 12 12 9 9 8 7 7 9 10 12 12 12 14 16 17 22 23 26 27 27 28 27
8 10 13 15 15 16 17 19 20 20 20 20 20 20 20 19 19 18 18 17 16 15 14 14 12 10 8 8 7 7 7 9 12 14 16 16 17 18 23 26 28 29 30
9 11 14 17 18 20 21 22 23 22 23 23 25 25 23 23 23 23 22 21 21 20 18 18 16 15 13 12 11 10 9 9 8 9 13 15 17 19 18 18 26 30 33
9 12 15 17 19 22 22 23 23 25 26 26 29 30 28 25 25 25 24 25 24 24 22 17 18 17 15 13 14 13 12 10 10 11 9 11 15 18 20 23 22 23 28
13 14 16 18 18 21 22 23 24 25 24 25 27 27 28 31 30 28 27 27 26 27 25 23 20 18 18 14 11 13 14 11 11 11 12 11 13 19 17 20 23 29 23
14 15 15 18 18 20 21 23 23 24 25 24 24 26 14 24 30 33 36 32 31 30 28 27 23 20 14 13 14 13 12 14 14 14 14 15 13 15 16 19 18 22 27
19 18 17 18 19 20 21 22 22 24 25 25 25 24 14 15 16 27 28 33 31 28 29 28 26 22 19 15 11 15 14 14 15 17 15 15 15 14 15 16 17 19 20
20 19 19 19 19 21 21 22 23 23 25 25 25 27 31 30 16 16 31 28 29 25 22 25 24 20 19 17 16 13 15 15 15 16 16 15 17 18 14 13 13 15 19
19 20 20 20 22 21 20 20 19 18 19 21 21 21 23 23 23 9 12 17 21 22 19 20 18 16 17 17 15 17 19 17 17 17 16 17 17 17 17 16 14 13 14
21 20 21 19 20 20 17 17 17 15 9 13 14 14 14 9 16 11 9 14 13 15 14 10 16 16 16 18 15 13 16 16 15 14 15 15 16 17 16 16 17 16 15
22 21 20 19 19 18 19 16 12 8 6 5 11 12 11 11 11 11 8 6 4 9 8 12 17 16 19 17 15 14 14 15 15 13 12 13 15 16 19 20 17 15 14
22 21 21 20 21 19 17 12 9 10 8 10 9 11 13 10 8 8 6 5 5 4 8 16 16 18 22 20 13 8 11 12 14 14 11 9 11 12 13 16 19 19 19
24 23 22 22 19 15 13 13 12 13 14 15 13 12 12 12 12 10 10 10 7 4 9 11 14 16 16 17 15 11 12 16 18 16 14 9 11 11 11 12 13 16 17
24 24 21 18 16 13 13 16 20 21 18 17 15 14 14 13 14 16 15 14 15 15 9 20 19 18 19 18 14 14 14 10 12 14 15 19 17 16 16 14 13 12 13
21 19 16 14 13 14 18 18 17 18 17 18 18 19 19 18 18 19 19 19 20 21 13 20 20 19 18 19 20 18 16 18 20 24 25 24 23 22 22 20 20 20 18
17 17 17 18 19 16 15 16 19 19 20 20 20 22 23 23 22 21 21 21 21 21 21 19 21 21 21 20 19 19 20 21 21 22 22 23 23 23 24 27 28 25 24
17 18 19 19 20 20 20 20 20 20 20 22 23 24 24 24 23 21 20 21 20 20 20 21 20 22 22 22 22 21 21 20 22 22 20 17 19 24 26 27 27 24 26
20 21 20 21 20 21 22 22 17 20 24 26 23 23 22 22 23 22 21 21 21 21 22 23 23 23 23 23 23 21 21 21 21 22 22 24 23 26 26 28 31 31 30
19 19 19 20 20 21 15 13 15 20 24 26 27 27 26 24 20 21 24 26 24 23 23 22 21 22 21 20 20 20 19 18 18 18 18 20 20 23 29 32 35 28 30
19 20 21 22 20 21 16 15 16 20 26 27 28 28 28 27 23 20 17 19 24 25 24 23 23 21 23 22 21 20 19 17 10 18 20 20 20 21 21 21 18 32 33
20 21 22 21 20 21 16 20 21 22 25 27 27 28 27 26 25 24 25 25 20 20 24 24 25 26 25 24 23 22 21 20 19 18 18 18 15 17 16 21 25 20 13
21 22 21 19 21 23 20 19 18 24 26 27 27 26 26 26 26 19 19 21 21 22 21 22 26 26 24 24 24 24 22 22 21 20 18 17 17 18 17 19 21 24 24
22 21 18 19 23 25 25 17 21 24 24 25 25 24 23 24 25 23 21 22 23 23 22 24 28 31 32 31 29 25 20 18 15 20 21 22 21 21 20 21 22 25 29
21 19 17 19 22 24 19 19 17 21 23 24 23 23 23 24 25 24 22 22 21 21 20 20 20 20 22 24 30 30 25 21 20 17 21 19 20 20 15 19 25 26 25

GFSMA_925_spd_006.txt.gz
Wind_Speed
3 5 6 8 10 10 10 10 13 14 12 14 15 12 13 15 16 17 14 16 16 16 15 14 14 15 16 16 16 16 16 13 14 17 25 26 23 23 24 26 26 26 25
5 6 8 10 11 12 12 15 17 17 16 15 14 17 17 16 18 17 17 17 19 18 17 17 15 15 15 16 17 18 17 15 12 13 18 25 26 25 23 26 27 27 27
6 8 9 10 12 14 14 18 18 18 19 20 20 18 20 22 22 20 21 21 21 22 20 20 18 16 16 16 17 17 17 17 17 16 13 17 28 24 23 25 28 29 29
6 8 11 15 16 18 19 20 21 22 22 22 23 23 23 24 24 24 24 24 24 24 24 22 22 20 19 17 16 15 14 15 16 16 16 16 18 22 25 26 29 30 30
7 8 14 17 21 22 22 23 25 24 22 21 23 24 27 25 27 26 26 28 28 26 25 27 25 25 23 20 19 18 17 16 14 12 13 15 18 19 23 24 25 28 31
9 13 17 19 21 21 22 22 24 26 28 28 27 26 28 32 32 30 30 31 30 31 33 27 29 29 26 24 23 21 19 18 17 15 14 12 14 18 20 24 26 23 34
13 18 22 20 21 22 22 23 25 28 28 26 28 25 27 28 29 30 33 34 35 35 37 40 31 32 31 28 25 24 21 17 16 15 14 14 15 15 18 19 21 28 25
22 27 22 20 17 19 21 23 24 26 26 26 24 22 11 22 24 25 30 33 37 37 40 40 38 32 30 32 30 26 23 20 17 16 16 16 17 15 16 17 18 21 25
28 20 17 19 18 17 20 24 24 23 20 24 22 17 9 11 17 23 27 31 31 30 25 26 33 39 36 27 30 27 25 21 19 16 15 15 17 17 15 16 16 17 18
17 17 19 20 21 17 20 22 19 21 20 20 18 15 20 19 4 9 14 22 26 26 28 29 27 26 35 32 16 21 24 23 20 16 14 14 15 17 15 14 15 15 16
18 20 19 20 19 22 22 24 19 18 12 11 12 15 16 22 20 6 9 12 27 27 24 21 15 17 12 8 14 19 19 22 19 17 15 15 16 17 18 16 14 15 15
19 18 20 21 19 19 21 19 13 14 13 10 10 9 10 5 12 10 8 13 12 17 26 20 19 16 8 13 12 15 18 22 22 19 15 15 16 17 18 16 16 16 15
16 20 21 21 20 18 13 13 12 9 10 10 12 13 14 12 14 13 13 13 9 16 12 21 17 18 12 16 15 15 18 21 20 18 17 13 15 15 17 17 16 17 17
18 20 19 20 15 14 14 13 11 10 10 11 14 15 17 17 16 14 11 8 7 5 15 19 18 14 21 17 19 8 18 14 14 15 16 14 13 10 11 15 17 18 19
15 20 22 20 19 16 14 14 15 17 17 22 23 19 19 19 19 19 17 17 12 5 6 16 8 18 13 17 18 15 17 16 16 15 16 14 13 11 9 9 10 13 15
21 20 19 20 20 18 16 20 20 18 18 19 19 18 21 20 20 21 20 21 21 17 9 15 22 18 18 16 19 16 20 16 11 14 15 13 13 15 15 13 11 8 9
18 20 20 20 20 20 19 17 19 17 17 20 21 19 18 19 20 19 20 22 23 20 10 18 20 20 20 18 15 18 20 18 14 16 18 20 22 24 24 23 21 18 15
16 18 20 20 21 20 20 20 21 20 21 19 21 23 23 20 21 20 19 20 20 20 22 17 19 21 23 22 21 20 16 14 18 20 22 23 25 23 22 21 22 25 25
18 19 20 21 21 21 21 21 20 16 19 21 23 27 27 25 23 22 21 20 19 17 19 20 18 21 23 24 24 23 20 19 17 15 17 18 15 20 24 22 24 25 26
19 20 19 19 21 22 22 14 14 18 20 21 23 29 31 28 26 25 20 18 15 19 21 22 22 21 21 21 23 25 25 24 23 19 18 18 17 20 24 27 28 28 29
17 17 20 21 22 21 11 16 16 17 19 22 24 26 28 30 30 26 20 20 19 17 17 18 19 20 19 18 17 16 17 15 13 11 11 13 15 14 19 25 28 28 30
17 19 19 20 19 16 16 17 21 23 21 22 26 27 29 30 29 24 17 19 21 23 21 19 18 17 20 21 20 18 18 14 4 12 11 12 13 17 18 13 14 21 21
19 19 20 18 14 15 13 20 20 22 19 23 26 27 28 25 27 24 19 17 14 14 20 22 20 21 22 25 24 22 18 17 15 14 16 18 17 19 18 17 14 10 11
19 20 16 14 15 15 22 26 21 19 21 22 25 27 28 27 23 22 20 18 18 19 18 18 21 26 25 25 23 21 19 18 20 20 18 14 19 23 21 19 20 22 22
20 13 14 15 17 22 23 21 17 17 19 22 25 25 26 26 27 25 24 21 20 20 20 22 25 27 27 28 29 25 21 17 13 15 16 21 21 23 25 26 28 25 27
15 14 13 15 19 24 19 17 15 15 19 22 23 24 24 24 10 11 12 14 16 17 15 17 21 21 21 22 23 21 25 20 18 14 23 20 17 17 10 22 24 28 29

GFSMA_925_spd_012.txt.gz
Wind_Speed
3 2 1 4 7 10 13 10 14 18 19 20 19 22 23 23 20 18 16 16 15 15 18 21 22 21 20 20 19 20 20 20 20 19 19 20 24 25 27 27 26 24 23
4 2 1 4 7 12 15 17 20 22 23 22 23 21 22 23 24 25 24 24 22 21 20 21 22 23 24 23 23 22 23 22 22 21 21 20 23 26 29 29 26 26 25
5 3 2 7 11 14 17 19 20 18 18 18 19 20 20 21 22 22 22 23 27 28 27 26 24 24 25 25 27 29 24 21 22 22 23 22 21 23 26 28 28 27 27
7 6 3 8 12 17 18 20 18 17 18 20 22 21 21 21 21 24 25 24 23 25 32 31 31 29 28 26 25 28 28 25 19 19 22 23 22 22 22 28 29 29 28
3 5 9 15 17 15 15 15 16 18 22 24 25 25 24 22 22 21 22 20 22 23 24 26 34 36 34 33 30 27 27 27 23 20 19 22 23 24 24 23 26 26 30
6 10 14 14 9 9 11 15 18 21 24 25 28 27 27 28 28 16 15 16 15 15 16 16 20 26 33 39 35 34 29 27 24 21 19 18 21 24 26 25 22 25 25
15 14 12 10 9 10 12 15 17 20 22 24 25 26 23 24 9 21 17 20 19 20 18 19 23 22 21 29 35 38 33 29 27 25 23 22 21 24 25 25 23 23 25
9 9 10 11 13 15 18 20 19 19 20 17 11 14 5 17 13 21 20 21 21 28 28 28 26 22 21 22 25 31 37 35 29 28 27 25 24 25 25 25 23 21 20
6 8 11 14 16 17 17 16 18 18 15 16 9 5 3 3 6 12 23 14 26 26 29 27 22 22 20 22 23 24 26 33 34 32 27 26 24 24 25 25 23 22 20
12 12 13 14 15 16 18 17 16 16 14 12 9 5 7 7 3 7 4 23 17 28 28 24 26 18 16 18 19 22 28 29 32 34 28 24 22 20 19 21 20 21 18
9 12 17 18 18 16 16 16 17 15 14 13 10 10 9 8 8 4 8 4 18 23 27 26 19 18 16 16 15 17 20 25 24 20 20 23 20 19 17 17 18 18 16
10 17 15 16 19 19 18 17 16 16 16 16 17 13 16 9 7 5 4 14 14 16 20 14 15 19 14 18 16 16 18 14 16 16 17 17 19 20 16 15 16 15 15
7 6 13 15 15 16 16 17 18 20 23 20 18 19 17 21 20 15 14 16 8 15 9 16 15 18 17 20 18 17 21 17 19 17 9 7 15 19 21 18 13 12 13
2 8 9 11 13 14 14 14 13 14 16 16 17 17 18 19 18 17 12 12 9 12 17 16 14 19 22 22 15 18 15 16 16 18 18 16 9 9 12 14 14 14 11
4 5 11 12 13 13 12 13 15 14 15 16 18 18 16 14 15 18 18 15 5 5 6 7 18 19 22 18 18 12 15 19 16 14 11 16 19 21 10 7 7 9 11
6 7 8 7 8 10 10 11 14 15 14 13 9 8 11 16 19 21 18 18 19 11 4 13 20 15 15 15 14 16 13 15 19 19 14 16 13 19 19 14 7 5 5
6 5 5 5 8 8 9 10 12 10 3 6 9 14 18 20 21 24 23 22 19 18 11 18 15 20 17 17 16 16 15 13 12 21 15 11 10 13 12 11 9 11 10
5 7 13 8 8 10 13 12 12 9 7 8 12 17 21 22 25 26 25 24 21 22 21 8 8 12 13 15 16 18 19 16 12 16 17 13 14 19 22 15 11 10 9
8 24 19 9 12 12 13 13 7 6 9 13 17 19 20 21 24 25 26 24 22 22 22 19 13 11 14 18 19 18 13 13 9 7 14 15 15 21 22 18 13 14 11
14 21 13 12 14 12 12 9 9 11 14 19 21 17 19 20 23 25 25 23 22 20 20 20 17 12 10 12 12 11 12 13 15 13 9 9 15 7 7 10 11 10 12
17 13 10 16 13 11 9 10 12 18 21 20 19 18 19 20 21 20 20 20 17 16 16 15 12 9 10 9 8 8 12 17 20 12 9 8 7 4 2 1 5 9 11
5 13 15 9 3 8 8 15 19 18 18 18 17 21 21 21 19 19 19 19 20 15 15 12 10 8 12 12 11 13 12 10 3 7 9 15 11 10 7 5 4 6 6
14 13 1 2 5 9 11 15 15 15 16 17 19 21 21 20 22 23 23 21 22 20 18 17 15 13 13 14 14 15 13 12 11 13 10 14 17 20 16 13 10 8 8
15 4 2 6 9 11 11 11 14 15 15 17 20 22 22 22 21 21 24 15 16 17 17 19 19 19 19 18 17 18 17 15 14 18 15 9 18 18 20 17 13 12 13
5 3 4 7 9 7 12 12 15 17 20 23 21 21 21 22 21 21 24 17 18 19 15 12 13 11 11 12 12 13 16 14 11 14 13 14 19 20 21 19 16 17 18
6 4 6 9 8 12 15 13 15 19 22 19 20 20 19 20 23 22 17 17 15 21 19 16 16 16 18 19 19 19 21 15 12 4 14 12 17 10 5 13 18 17 13

GFSMA_925_spd_018.txt.gz
Wind_Speed
5 5 4 4 4 5 6 7 9 11 13 14 13 14 13 13 14 14 14 13 14 15 17 18 20 21 20 20 20 23 21 19 18 18 17 16 14 14 14 15 19 22 24
3 3 4 4 4 7 9 11 14 13 12 12 12 14 15 16 15 15 14 14 15 14 14 15 16 20 23 23 23 21 22 25 23 20 18 17 16 16 15 14 17 20 24
3 4 4 2 6 9 9 9 9 9 10 12 14 16 17 18 19 20 20 18 16 15 14 14 16 17 20 23 26 27 24 20 25 25 22 18 17 17 16 16 17 18 23
7 2 4 9 11 8 9 10 10 11 13 16 18 20 21 21 21 19 12 8 8 8 9 13 15 15 16 18 22 25 27 24 21 22 26 24 20 18 16 16 17 17 20
4 7 10 9 7 6 7 9 11 14 16 17 18 19 19 21 19 13 8 11 14 14 15 16 18 21 23 21 19 20 22 23 22 22 22 25 25 21 18 16 16 16 18
13 9 6 6 7 8 11 14 13 14 16 16 19 13 20 17 6 14 11 19 16 14 16 20 26 29 30 30 28 24 22 21 22 21 22 23 24 26 23 20 18 17 16
4 4 4 7 10 15 17 18 20 20 18 18 9 20 18 2 14 14 20 19 14 20 23 23 30 29 28 28 28 27 23 23 22 22 20 20 22 23 26 24 22 19 18
2 4 6 10 14 17 22 20 16 14 10 14 9 9 3 8 5 15 28 13 26 18 20 25 24 24 23 24 23 23 23 20 23 23 22 23 23 21 23 25 23 22 20
3 6 10 18 22 18 13 13 14 15 10 10 12 3 3 3 15 13 14 25 14 26 21 28 25 21 18 18 19 20 20 19 18 20 19 21 21 20 17 21 25 23 21
11 16 20 24 18 11 10 10 10 11 11 8 9 6 11 10 6 7 4 19 19 20 29 27 25 20 17 15 13 16 17 16 18 19 17 17 19 19 20 21 22 24 22
15 20 22 18 11 8 7 8 9 9 9 10 9 11 12 10 10 5 9 13 16 17 21 26 25 23 14 16 16 16 16 16 18 17 17 16 15 15 17 20 22 21 19
20 21 18 7 7 10 10 11 12 12 11 11 11 10 10 6 7 8 5 14 15 11 20 20 18 19 17 17 17 15 12 13 16 17 19 17 15 14 14 13 16 18 19
22 20 10 6 6 8 10 10 9 9 10 11 12 13 13 13 14 13 10 7 3 14 8 18 20 19 16 19 19 16 13 11 15 17 19 19 18 20 13 13 16 18 21
24 19 10 5 7 10 10 13 13 12 13 13 15 16 18 18 12 9 9 7 7 6 18 17 20 19 19 17 19 21 18 13 15 17 19 19 18 18 14 12 11 15 21
21 10 8 13 12 13 15 17 14 14 15 16 17 18 17 15 11 12 12 12 9 7 10 20 20 20 22 24 19 21 24 19 15 17 18 19 19 17 15 10 10 15 11
15 12 20 18 13 13 19 18 15 14 15 17 15 14 14 15 17 19 18 21 19 17 9 23 25 26 24 24 23 21 19 21 17 15 14 18 18 17 16 17 9 10 14
20 21 22 16 12 14 20 15 15 16 17 16 14 14 16 19 23 24 23 23 22 18 16 28 26 27 28 28 25 22 17 15 14 12 12 16 19 15 14 11 15 11 12
20 22 18 16 16 23 17 14 16 18 15 14 14 17 21 25 25 24 23 24 23 22 21 21 26 26 25 25 23 22 23 19 17 14 12 14 15 13 13 12 5 20 13
21 17 14 17 19 14 9 13 17 13 12 14 18 22 23 23 24 25 26 24 23 21 22 20 24 24 24 26 26 24 21 18 16 15 13 11 11 13 12 9 10 11 17
18 17 15 19 10 9 14 14 9 10 15 20 21 22 24 24 24 25 23 21 21 21 20 20 22 22 18 21 20 17 20 18 15 14 14 10 8 9 8 8 11 10 15
18 17 15 10 11 12 7 6 10 16 19 20 23 25 24 22 24 24 24 22 21 20 19 19 18 17 15 15 14 14 14 14 15 14 12 10 3 4 2 1 7 3 11
16 14 13 12 3 2 5 8 14 17 19 21 23 24 25 22 19 20 22 22 23 25 21 19 19 17 18 17 15 13 11 6 3 6 5 9 9 7 3 0 3 5 7
12 9 8 1 2 5 8 11 15 17 18 21 23 21 19 18 20 21 22 23 24 23 20 19 17 17 18 20 19 12 12 9 8 12 12 15 13 12 11 8 4 4 9
12 10 2 1 4 7 11 12 12 15 19 21 19 18 20 20 19 20 26 22 23 22 20 18 19 22 22 22 23 21 17 13 14 14 12 11 12 16 10 10 11 9 10
4 4 3 4 5 8 11 11 12 15 17 19 16 19 17 18 19 23 23 17 22 19 16 16 17 18 19 19 20 16 18 14 11 13 11 13 10 11 10 11 12 14 17
6 7 4 4 6 8 9 10 11 14 17 18 20 18 16 17 21 20 20 20 19 16 18 19 18 17 16 18 17 18 17 10 5 3 9 11 9 7 3 4 9 17 17

GFSMA_925_spd_024.txt.gz
Wind_Speed
2 3 2 1 1 3 4 5 6 8 9 10 11 11 11 12 12 13 13 16 16 14 13 12 11 10 11 11 11 10 10 10 13 13 14 12 11 11 11 12 12 13 17
3 3 2 1 2 4 5 6 7 9 11 12 13 12 12 14 14 14 15 16 17 15 11 10 10 11 11 12 13 13 13 12 12 13 14 16 15 13 12 13 14 14 15
7 3 2 2 2 2 4 6 7 10 12 13 15 16 16 17 18 17 17 16 15 15 15 13 11 12 13 14 15 15 14 14 14 13 13 16 17 18 16 14 14 15 15
4 3 0 2 3 5 5 7 9 11 13 15 17 19 21 22 23 21 18 13 13 13 13 13 16 16 17 17 16 18 18 17 15 15 14 13 14 17 19 19 16 15 15
3 0 3 4 5 5 7 8 11 13 16 18 19 22 22 22 23 21 16 12 11 11 13 15 18 20 19 18 17 17 16 18 18 17 15 16 16 16 16 19 21 18 16
3 4 4 5 6 8 10 12 13 14 16 17 19 22 19 22 21 16 11 12 14 14 14 15 18 18 20 19 21 18 17 17 17 18 18 16 16 17 19 17 20 23 21
4 5 4 6 9 11 11 10 11 14 16 16 19 21 22 19 10 11 14 17 14 15 18 19 18 20 21 21 19 18 21 17 16 17 19 20 18 17 17 19 21 22 25
4 4 5 8 10 10 10 10 11 14 17 14 15 20 10 17 20 8 19 16 19 18 20 21 21 21 21 22 20 22 18 17 19 18 18 20 22 20 19 18 20 22 23
2 4 7 9 10 12 13 11 11 10 13 14 11 13 10 10 19 21 16 19 17 22 21 22 20 19 19 21 21 19 19 22 21 21 18 18 20 22 21 19 18 20 22
5 8 10 12 13 13 12 11 9 9 10 14 13 13 13 15 10 13 19 20 22 21 22 21 20 21 19 20 18 17 15 21 22 20 18 17 18 20 22 21 20 19 21
10 12 13 14 14 12 10 7 7 11 12 12 14 13 13 14 15 15 12 20 24 23 21 21 21 23 21 23 23 18 20 21 20 19 16 16 16 17 18 21 22 20 19
13 15 15 17 16 13 10 8 12 11 13 12 11 11 12 14 16 17 13 19 22 24 23 22 22 23 24 25 24 24 22 22 24 21 16 16 16 16 17 18 21 22 21
16 18 18 19 18 15 11 13 12 14 14 12 12 13 12 14 16 18 20 21 19 27 28 26 25 25 23 25 27 26 24 27 27 25 21 18 17 17 16 18 18 20 22
13 16 18 18 16 14 13 15 15 13 13 13 13 14 15 16 17 18 20 20 14 24 28 28 28 29 29 28 27 31 30 29 26 25 27 21 20 18 18 19 20 21 21
13 16 18 17 16 15 17 17 18 17 17 14 14 15 15 17 19 20 22 22 21 14 16 30 32 30 29 28 28 30 30 30 29 26 27 25 22 21 20 20 22 23 21
15 18 19 18 17 17 20 19 20 19 16 15 16 17 18 20 21 23 23 23 24 26 16 31 32 30 30 30 30 30 30 29 31 31 29 22 19 20 20 19 21 24 23
16 18 18 18 17 17 17 18 20 19 14 14 16 18 18 20 23 24 25 26 27 27 23 34 33 31 29 29 28 26 27 28 28 27 26 21 15 16 18 19 20 22 23
17 18 17 16 15 15 16 21 15 10 10 14 16 15 19 23 24 24 25 25 27 28 27 30 31 29 28 28 28 28 26 26 27 26 17 15 16 19 19 19 20 22 23
17 17 16 16 16 16 15 8 9 9 11 11 12 16 20 21 22 22 23 25 24 24 24 26 29 28 27 26 26 24 24 24 24 25 26 24 18 15 17 18 19 21 21
17 16 15 15 13 12 12 8 7 9 9 12 14 17 17 18 19 21 21 21 20 21 23 25 26 26 25 23 23 22 21 21 20 20 21 19 17 19 20 18 17 20 21
15 15 14 13 11 8 5 4 7 10 13 15 15 15 16 16 16 15 17 19 20 21 21 23 24 24 24 23 21 21 21 21 22 21 19 16 16 16 15 12 14 17 17
15 14 14 11 9 5 4 6 9 12 14 15 15 16 16 15 14 18 16 17 19 23 25 25 24 24 25 24 22 20 20 20 10 14 12 15 8 11 14 12 10 15 17
14 14 12 9 8 5 6 8 12 12 13 13 14 15 16 15 16 17 18 20 23 20 20 23 27 24 23 23 22 21 21 20 20 17 9 14 9 11 13 14 13 17 16
14 14 11 8 8 6 7 9 13 10 11 12 13 14 15 16 16 16 20 22 21 21 21 20 22 25 25 25 23 21 22 23 23 20 16 15 13 14 13 16 16 19 18
13 11 11 9 8 6 8 9 10 10 11 13 13 13 14 15 14 17 20 21 21 20 18 18 21 22 23 22 19 20 20 19 17 18 16 18 15 15 16 15 14 15 15
11 11 11 10 9 6 9 8 8 9 11 13 13 13 12 11 15 18 19 19 19 19 22 22 20 18 18 17 15 15 15 17 17 14 7 7 8 9 10 11 10 11 10

GFSMA_925_spd_027.txt.gz
Wind_Speed
5 5 6 8 8 7 8 9 11 11 13 14 14 15 16 17 18 17 16 21 16 16 15 10 7 8 9 10 10 11 11 12 11 12 11 11 12 14 13 13 14 14 15
3 2 3 6 12 8 9 10 10 12 13 15 16 17 18 20 20 19 19 20 23 15 15 13 12 10 11 12 13 13 13 13 14 14 13 12 13 14 16 16 16 16 16
3 1 4 6 6 6 6 8 9 11 13 16 18 20 20 22 23 23 21 22 17 15 10 10 11 15 14 14 16 16 15 15 15 16 16 16 14 14 16 17 18 17 17
5 3 5 4 6 6 7 9 11 13 16 18 21 22 23 25 24 22 23 22 15 15 15 7 15 21 16 14 17 18 17 16 16 15 16 16 18 17 16 17 18 19 19
3 2 0 3 4 6 8 11 13 16 18 21 24 23 24 25 22 24 22 18 11 13 14 20 18 20 10 15 18 20 17 17 16 16 16 17 16 19 19 19 19 19 21
3 1 1 3 6 9 12 12 14 16 19 21 22 22 24 23 24 18 16 13 13 15 15 16 21 20 20 18 19 20 16 20 17 17 17 18 18 18 20 21 20 22 21
3 2 3 7 9 11 12 13 15 18 20 20 21 22 22 26 21 22 19 12 16 19 19 18 20 21 23 21 18 17 21 22 16 20 20 19 19 19 20 22 23 22 22
3 3 5 7 9 12 15 15 16 18 18 17 19 18 11 19 20 22 22 22 19 19 19 21 22 22 20 20 19 21 16 13 17 21 23 22 19 19 20 20 23 23 23
2 4 6 10 12 14 16 16 16 15 18 18 17 17 11 11 21 23 23 23 22 20 23 22 21 20 22 22 21 18 20 24 21 22 23 22 21 19 19 20 21 23 24
4 7 9 11 13 16 16 16 15 13 16 18 19 18 19 20 12 13 19 23 24 25 24 24 23 21 20 24 20 22 16 16 19 21 23 22 21 20 19 19 20 22 23
6 9 12 13 15 17 17 16 15 15 18 17 17 20 19 18 19 16 12 20 25 25 25 23 22 22 24 23 23 23 21 23 21 19 22 23 21 20 19 19 19 20 24
9 10 13 15 17 18 18 16 14 18 14 16 22 18 16 16 16 16 12 20 22 26 26 25 25 25 25 25 26 23 24 19 19 24 26 25 23 21 21 20 19 19 19
10 10 12 15 17 17 18 16 15 16 18 20 20 17 14 15 17 18 18 20 17 27 28 26 26 25 27 26 28 27 23 27 29 27 27 26 24 22 21 20 20 20 19
8 10 12 16 17 17 17 13 16 19 18 18 17 17 15 16 16 17 19 20 13 22 26 27 27 28 28 27 29 29 28 29 30 31 28 24 24 24 24 22 22 22 22
8 11 14 16 17 18 19 17 19 21 20 21 17 15 15 14 16 17 20 22 21 13 14 26 27 29 27 27 28 28 29 31 32 32 35 37 29 26 25 24 22 23 24
9 12 15 16 17 18 18 19 19 22 23 19 16 15 13 17 16 19 22 24 24 25 15 28 28 29 29 30 29 29 30 29 31 32 32 34 30 29 25 22 22 22 25
11 13 15 16 16 16 16 16 18 19 22 21 14 12 16 15 18 21 25 25 25 25 20 29 30 30 29 28 28 28 29 30 31 31 31 31 32 31 25 21 22 23 24
13 14 16 15 16 17 14 15 19 17 12 14 13 14 15 17 22 25 24 25 26 27 27 27 29 27 28 28 28 29 29 27 28 28 28 28 21 22 22 23 24 24 24
15 15 16 16 16 15 16 10 12 12 12 13 12 13 17 20 21 20 21 23 25 25 24 23 26 26 26 26 28 26 26 25 26 25 27 24 29 29 27 26 23 23 23
15 17 16 16 15 14 13 11 9 9 10 12 14 16 18 17 17 16 21 20 21 22 22 23 25 24 26 26 26 25 23 23 23 25 26 24 20 19 23 25 26 23 23
16 16 16 16 11 12 9 6 7 8 12 16 17 16 15 14 16 14 14 19 19 20 21 22 22 23 22 23 24 25 24 24 23 22 24 22 20 19 19 23 25 20 19
16 16 16 16 10 10 8 8 8 10 14 16 15 14 14 14 12 17 15 13 17 22 24 24 23 23 27 26 23 23 23 22 13 22 16 20 20 18 12 13 11 11 14
15 16 16 12 11 7 9 8 9 10 14 13 13 14 15 14 14 15 16 18 20 23 23 24 26 24 24 25 26 26 24 23 23 23 21 21 18 14 12 14 10 14 18
16 16 15 10 10 8 11 9 10 11 12 11 12 13 14 14 12 13 17 20 21 21 20 19 21 25 26 27 24 24 25 26 25 25 22 19 20 17 14 14 18 18 20
15 14 14 9 10 9 12 10 10 10 11 12 12 13 11 13 12 17 17 19 21 20 19 20 21 24 25 27 27 26 23 19 17 20 18 16 20 17 17 18 18 20 19
15 13 12 10 11 8 9 12 9 8 10 12 11 11 11 6 12 14 16 18 20 20 23 23 23 21 20 19 18 18 21 19 18 15 14 8 10 11 13 17 18 16 13

GFSMA_925_spd_030.txt.gz
Wind_Speed
5 3 6 4 6 7 11 10 12 11 12 14 15 16 17 15 18 17 20 19 19 21 13 6 7 8 10 13 16 18 18 18 17 16 16 14 15 15 13 13 11 11 12
2 3 2 4 3 2 3 7 11 14 12 14 16 17 18 18 17 21 22 19 24 22 8 4 7 10 12 13 15 16 18 20 19 19 18 17 17 17 16 15 14 14 13
5 2 3 1 4 9 11 11 11 12 14 16 16 18 20 18 19 23 20 20 21 14 3 6 8 13 13 12 13 16 18 17 18 19 19 18 17 18 20 18 17 15 15
5 5 2 3 5 9 7 10 11 12 16 17 18 21 17 20 21 20 20 20 21 15 11 10 10 15 14 10 14 16 19 15 17 18 18 19 20 18 19 21 20 20 18
7 8 8 4 6 5 7 8 10 12 15 18 20 21 20 20 19 23 23 17 16 6 8 6 14 18 13 14 16 20 21 15 19 18 17 18 19 21 20 20 23 21 21
8 6 4 4 5 5 7 11 11 12 14 18 18 19 17 15 19 23 19 13 11 13 15 15 13 13 17 20 19 19 17 20 20 16 19 21 22 21 22 22 21 23 22
7 4 5 5 5 6 8 11 12 13 15 15 18 18 16 19 18 18 20 23 21 19 15 13 17 21 17 17 15 18 21 15 14 18 20 22 22 22 20 22 23 22 22
5 4 3 2 5 8 11 11 14 16 12 14 19 19 5 13 14 23 24 20 18 20 18 21 21 17 16 13 16 17 17 16 15 18 20 22 23 22 22 20 22 23 23
3 2 3 5 7 9 12 14 15 13 11 15 16 13 5 4 15 16 17 19 20 23 21 22 21 18 18 14 15 18 17 19 17 17 22 22 24 24 23 21 20 21 23
1 3 6 9 8 10 12 13 13 14 14 14 16 13 21 22 6 8 7 18 21 21 23 23 20 19 19 19 20 19 22 21 19 15 17 22 25 25 24 23 20 19 22
4 4 5 5 9 12 14 17 17 15 12 13 9 13 18 18 14 8 6 12 18 19 20 22 22 22 22 22 22 22 19 14 8 14 18 22 25 27 26 24 23 19 19
4 5 6 9 11 12 15 17 17 13 11 13 17 15 19 12 11 9 5 12 15 20 18 22 25 25 23 22 21 25 23 23 24 24 22 23 25 27 28 26 24 23 21
5 6 7 9 11 14 16 18 18 13 15 15 19 18 18 15 15 14 13 12 10 21 22 21 21 22 25 27 27 23 27 25 23 23 23 24 25 26 26 27 27 25 22
4 6 7 9 13 15 17 18 19 16 17 17 20 18 20 14 14 20 8 11 9 17 22 23 22 23 24 27 18 24 25 25 26 28 28 26 29 32 32 31 29 27 25
5 4 8 10 13 15 16 18 21 19 19 19 19 19 16 12 14 12 11 13 14 9 10 21 22 24 18 23 23 26 27 25 27 28 29 32 30 31 31 30 33 32 28
7 7 9 11 13 15 15 16 11 16 20 19 19 19 15 12 9 10 12 16 21 21 10 22 22 24 24 24 24 25 28 28 30 30 32 32 32 33 32 31 29 29 27
8 9 10 11 15 15 16 12 16 17 17 18 12 10 10 11 11 14 17 18 19 20 16 24 26 24 26 24 26 28 29 30 31 29 28 31 31 31 31 31 30 26 26
11 10 10 11 15 15 12 15 8 11 11 12 11 9 10 12 16 16 17 16 19 23 23 22 23 24 23 25 25 27 27 27 28 29 30 30 31 29 27 26 26 24 26
11 10 10 13 16 14 10 10 10 10 11 10 10 10 13 14 16 14 13 18 20 20 22 22 23 24 23 25 26 26 27 27 25 26 27 26 25 27 26 27 29 28 30
10 9 12 15 16 12 9 10 7 9 10 10 12 14 14 13 10 13 15 15 16 18 20 20 22 23 23 24 24 24 22 25 25 26 26 26 26 26 23 25 27 34 28
11 12 15 15 12 8 7 6 6 7 10 14 16 14 12 13 16 15 13 15 14 16 19 20 21 22 21 21 20 22 22 23 26 25 26 25 23 26 29 25 24 29 30
14 13 13 14 15 7 11 8 7 6 10 14 15 12 12 14 11 11 9 7 12 17 22 21 23 21 23 22 20 21 22 21 15 23 22 29 23 25 25 25 11 13 10
14 14 15 13 12 10 9 9 7 7 10 12 12 10 12 12 12 13 15 18 21 19 22 25 23 19 19 20 23 24 23 22 23 28 25 27 26 24 24 22 14 10 11
14 14 12 11 8 10 11 10 9 7 7 11 11 11 12 11 13 14 17 22 18 19 20 22 19 21 22 26 27 26 27 27 29 29 24 18 23 26 27 22 21 20 19
16 14 13 14 9 10 11 11 9 6 7 10 11 11 12 11 12 14 19 17 18 19 18 20 24 23 23 25 25 25 24 20 19 23 25 21 19 22 20 21 22 23 21
15 14 8 6 5 8 11 12 9 6 7 10 10 9 13 9 10 14 15 14 17 18 22 25 22 23 22 22 19 17 17 17 17 15 11 11 15 14 7 6 18 19 16

GFSMA_925_spd_033.txt.gz
Wind_Speed
12 10 10 9 7 4 3 6 7 10 9 9 10 12 13 15 12 13 17 18 19 15 4 5 7 8 9 11 13 15 17 18 18 19 19 19 19 18 18 19 17 15 14
9 7 8 5 1 6 6 6 8 8 7 8 10 12 14 11 12 16 17 16 17 14 8 0 5 9 8 9 10 13 16 18 18 19 19 20 20 20 19 19 20 20 18
10 9 6 4 4 4 5 6 4 3 4 8 10 13 12 15 18 15 16 19 21 17 7 3 6 9 7 9 11 11 15 15 15 19 19 19 20 21 21 20 19 20 19
8 8 6 5 6 7 5 4 3 5 9 10 12 11 16 16 13 17 21 16 19 12 2 5 9 8 7 10 11 13 15 13 14 15 15 19 20 23 23 23 21 21 21
9 7 6 7 6 4 3 4 8 11 7 9 11 12 11 13 16 15 18 19 18 19 9 5 9 12 13 11 11 13 14 14 14 14 16 18 21 25 25 24 23 22 21
10 6 7 7 3 0 4 8 8 6 11 11 12 11 12 13 9 12 17 17 16 14 14 16 17 19 18 15 13 13 14 14 13 13 17 17 19 21 24 25 24 23 22
10 12 11 7 4 3 6 6 8 11 11 12 10 18 16 3 13 13 17 16 14 14 15 18 20 19 16 12 11 10 14 12 12 13 14 15 19 21 22 23 26 25 23
9 6 4 1 3 4 4 9 13 12 7 10 12 14 3 10 15 21 18 17 13 16 17 19 20 17 17 18 14 11 14 13 13 16 16 17 17 20 23 23 24 25 25
9 5 5 1 3 4 8 11 10 8 8 11 8 5 3 2 8 4 16 5 12 18 19 17 16 18 17 18 18 17 16 16 16 12 13 16 17 20 23 24 26 26 25
8 3 4 3 4 4 7 9 13 15 16 11 7 7 11 14 3 4 2 12 11 13 12 15 16 17 18 18 17 17 15 13 12 12 12 17 20 20 22 25 26 27 26
8 9 6 2 2 6 9 11 13 15 13 6 4 9 13 13 15 4 3 4 11 10 13 13 14 21 26 23 18 21 23 19 13 14 17 20 22 23 23 24 26 28 28
9 5 1 4 7 10 11 13 14 15 6 9 13 11 10 9 9 6 3 4 9 13 12 18 18 18 20 21 26 26 22 16 15 13 15 20 22 24 25 25 26 29 28
6 3 4 6 8 10 10 12 13 14 17 16 13 14 16 16 16 9 6 8 4 14 11 20 21 21 20 21 27 20 16 21 22 22 20 21 23 25 27 29 29 30 30
4 0 5 4 7 10 12 14 14 15 13 10 13 15 13 16 19 16 7 4 3 4 11 14 25 18 20 21 14 21 25 27 28 27 22 23 26 27 28 28 27 26 29
7 6 5 4 7 9 13 13 14 9 10 15 15 14 15 12 6 9 9 11 5 3 6 19 17 14 20 20 23 24 23 28 28 28 30 27 26 27 26 26 26 27 27
7 8 7 6 6 9 12 14 6 10 13 12 16 12 7 5 3 4 8 9 9 10 4 11 20 22 18 22 22 24 29 26 28 28 28 26 26 26 27 27 25 26 27
12 11 8 8 8 8 12 7 7 10 10 13 11 9 8 6 5 7 6 7 7 11 9 17 20 21 25 25 29 26 26 26 25 27 25 28 28 29 29 27 27 26 28
13 12 11 10 6 8 11 10 6 6 9 8 6 7 8 8 7 8 10 9 11 16 13 15 22 25 26 27 26 27 26 27 25 24 23 28 26 24 25 24 26 27 26
9 10 9 6 7 11 12 7 4 3 4 6 6 8 12 11 11 10 9 13 15 15 15 17 21 23 24 25 27 27 25 23 29 21 23 24 24 25 26 25 23 26 26
6 5 8 10 14 15 12 11 8 6 5 5 6 10 11 8 7 10 13 11 12 12 15 19 19 21 21 25 23 23 20 22 26 28 26 26 22 22 25 24 25 29 27
8 12 14 17 16 12 13 13 11 11 9 10 10 11 7 8 11 12 7 9 10 13 16 19 17 19 21 20 18 18 20 25 29 25 25 22 26 28 28 26 29 30 19
13 14 15 16 15 13 13 13 12 11 8 8 10 8 10 11 11 5 4 5 9 14 19 17 17 18 21 17 17 22 22 20 12 20 14 32 27 28 27 24 23 26 10
15 17 18 17 16 14 13 13 12 10 8 7 7 9 9 10 12 11 12 17 18 20 14 18 22 15 18 21 22 23 22 20 22 33 23 27 28 27 24 27 24 20 19
14 17 19 18 14 13 12 13 12 11 8 7 8 7 9 11 11 13 17 17 20 18 15 14 17 24 22 21 22 24 26 28 28 30 21 15 25 26 26 24 14 14 19
17 19 19 18 15 12 12 12 13 11 10 9 10 12 11 9 12 11 14 18 21 19 13 14 16 16 18 19 19 20 16 17 16 23 25 17 16 21 21 16 9 14 24
20 19 13 14 11 11 13 14 15 14 12 11 10 10 10 12 10 12 16 18 17 16 16 18 19 19 19 17 16 17 18 16 18 19 17 11 20 14 6 9 18 16 22

GFSMA_925_spd_036.txt.gz
Wind_Speed
17 16 19 15 14 12 10 8 7 8 8 8 9 10 12 9 11 13 12 12 12 10 2 4 6 6 7 9 11 13 14 14 15 17 17 17 19 20 21 21 21 21 22
15 13 15 14 11 7 6 5 6 6 7 5 7 10 11 12 14 14 14 13 9 10 1 7 6 5 5 6 9 11 12 11 14 15 16 17 17 19 21 22 22 22 22
13 13 11 9 8 7 5 6 6 5 4 7 10 11 11 13 12 15 12 11 6 4 7 7 6 4 5 5 5 7 9 9 11 10 12 16 17 18 21 22 21 21 21
12 12 10 9 8 7 6 6 5 6 9 11 10 8 9 8 9 8 12 15 14 8 8 9 10 7 7 6 7 8 8 9 9 10 10 14 15 18 22 23 22 20 22
14 11 10 10 8 7 6 5 6 8 8 8 4 3 3 6 6 10 13 15 16 14 11 10 11 11 10 7 8 8 8 11 11 11 13 14 17 18 19 23 22 21 20
15 12 11 9 5 4 3 5 6 6 7 4 5 6 8 5 6 12 11 10 10 8 7 8 10 10 8 8 9 9 12 13 11 10 12 15 16 17 19 21 23 22 22
14 10 10 9 4 1 3 2 3 6 3 5 3 11 4 3 2 14 9 7 7 6 8 9 11 12 11 10 11 12 13 14 13 14 15 15 15 16 20 22 23 24 23
14 12 9 5 1 2 2 4 6 5 1 5 3 2 2 4 2 20 4 12 7 5 11 8 6 6 8 9 10 11 12 12 13 15 16 15 15 16 19 22 24 24 25
12 10 7 4 2 2 2 2 3 5 7 5 1 0 1 3 5 4 14 1 10 12 11 5 5 8 10 13 16 14 12 12 11 10 10 13 15 18 21 23 25 26 27
12 10 9 9 9 6 3 2 3 5 7 10 6 5 6 6 2 4 5 15 8 9 7 6 10 13 15 18 17 14 17 19 15 12 11 14 17 20 22 24 26 29 29
14 12 14 14 10 5 1 2 5 8 8 5 5 6 8 7 9 5 5 5 10 7 10 11 14 15 18 17 17 20 21 20 10 10 14 15 18 21 24 26 28 29 31
17 15 12 7 5 1 5 7 7 7 7 8 9 9 8 6 7 8 4 6 8 12 8 11 14 16 18 16 17 18 22 10 9 11 14 17 20 24 27 29 30 31 33
17 14 9 2 3 5 8 9 10 8 8 7 7 8 9 12 13 14 13 5 6 8 6 8 13 15 13 15 15 10 14 17 20 19 18 20 24 27 29 30 30 30 31
16 8 2 3 2 5 7 9 9 10 6 5 8 11 13 15 16 15 12 8 5 3 4 5 15 7 8 16 16 19 19 19 23 23 23 24 25 26 27 28 28 28 28
9 8 5 3 9 8 7 8 10 9 7 9 11 13 12 10 7 6 8 8 3 2 2 4 3 13 19 19 21 22 24 29 25 23 23 21 21 21 22 23 23 23 25
5 5 7 15 12 6 7 9 11 8 10 11 12 10 8 6 6 3 4 6 4 3 3 4 14 20 23 25 26 25 26 22 21 21 21 21 21 21 22 22 24 24 24
4 10 15 16 10 8 7 10 9 10 10 8 9 8 7 5 6 6 6 5 4 4 6 13 20 23 27 28 25 23 23 21 21 20 19 21 22 23 23 20 19 20 22
12 17 16 13 11 8 9 12 12 11 10 10 9 7 8 7 9 8 8 7 6 8 8 13 19 24 27 23 24 24 22 22 22 24 20 20 22 23 22 21 21 21 21
16 12 11 11 10 11 12 13 12 12 11 10 8 8 9 11 12 10 8 9 8 8 12 14 18 25 25 24 26 25 23 23 25 23 27 24 24 23 21 20 22 22 21
4 6 10 11 13 12 12 12 14 15 13 11 10 10 11 10 9 8 10 8 8 11 13 16 21 20 18 24 22 20 20 23 29 30 25 18 18 19 24 25 22 23 22
2 6 8 11 15 17 17 16 18 17 14 11 11 11 11 8 8 9 8 8 9 10 15 18 16 15 17 17 16 19 22 25 30 22 19 21 24 25 23 20 20 21 22
5 6 10 14 16 19 16 18 19 18 15 12 11 10 10 10 12 11 9 8 9 11 15 15 14 14 15 17 21 21 22 19 11 16 17 32 25 26 24 21 21 24 23
7 11 16 17 19 21 20 19 18 17 15 13 12 10 11 11 11 11 11 11 11 13 16 14 16 16 19 23 23 23 21 19 20 28 21 22 27 27 23 21 22 21 15
13 18 16 18 21 21 17 17 18 16 15 14 13 11 12 12 13 12 12 12 15 18 15 11 12 18 19 21 21 22 24 21 20 23 17 15 24 28 24 27 16 8 9
11 10 18 18 18 17 16 17 18 19 18 16 13 14 15 15 12 13 13 13 17 18 11 8 10 14 16 15 15 18 18 16 18 22 20 15 22 27 26 23 8 11 16
15 15 15 14 18 16 14 16 19 19 20 18 15 15 15 14 13 13 12 15 17 15 10 11 13 15 15 16 16 14 16 15 16 14 8 18 23 17 6 9 8 17 19

GFSMA_925_spd_039.txt.gz
Wind_Speed
12 12 11 13 14 14 13 12 10 10 10 9 10 10 9 10 10 12 13 12 8 5 3 3 4 4 6 8 9 9 10 11 12 13 14 15 15 17 19 20 21 22 22
14 16 17 16 13 11 10 10 9 8 9 8 10 9 9 9 11 13 14 13 5 3 7 6 5 3 5 5 6 8 9 8 8 9 11 12 14 15 18 20 21 21 22
18 18 16 15 13 11 9 9 9 6 5 7 9 10 8 9 10 11 11 10 7 11 12 9 7 5 4 4 5 7 8 9 9 9 8 11 13 15 18 19 20 19 20
15 16 16 14 13 12 8 6 6 5 7 9 10 8 6 7 8 10 11 11 11 10 9 7 5 5 5 4 7 8 9 9 11 11 13 13 14 15 16 18 19 20 19
15 15 15 14 13 9 5 4 5 6 7 7 4 2 5 6 8 8 10 11 9 6 4 3 4 3 3 4 6 7 9 12 14 12 13 13 16 17 16 16 18 20 21
16 17 15 13 10 6 3 1 2 4 5 3 1 2 6 2 7 8 8 7 6 4 5 6 6 5 3 1 4 7 10 12 14 14 15 16 17 15 16 18 19 20 21
18 17 14 12 8 3 3 1 2 3 4 4 2 6 3 9 5 10 5 5 9 2 1 3 4 4 3 2 4 7 10 12 14 16 16 17 17 16 18 19 20 21 22
17 14 12 10 7 5 4 2 3 4 2 2 2 5 3 3 8 6 3 12 7 4 5 5 3 4 4 6 9 11 10 11 14 16 18 18 18 18 18 21 23 24 24
17 14 11 8 7 3 3 4 4 3 3 3 0 1 2 3 3 8 7 8 5 13 14 8 8 8 8 9 11 12 10 13 14 16 16 16 17 19 21 22 22 24 26
16 13 10 9 6 3 3 3 4 4 3 4 3 7 8 5 3 3 5 8 19 18 13 13 13 13 10 11 12 12 14 16 17 17 17 16 18 20 21 23 25 26 28
15 13 10 7 5 4 5 9 7 6 4 2 3 4 7 8 9 8 4 6 11 15 20 16 16 13 13 12 12 12 16 18 16 10 12 15 18 21 23 24 26 29 31
15 13 11 9 7 4 6 6 5 6 4 3 4 5 5 6 6 9 5 8 10 14 16 16 16 12 13 12 11 11 10 13 12 13 14 17 20 23 25 28 31 33 35
18 17 13 9 3 5 6 5 5 5 5 5 4 4 5 8 12 15 17 12 8 11 11 17 13 10 9 10 10 12 16 17 18 19 19 22 24 27 30 32 33 32 32
21 17 12 6 9 1 7 8 9 9 7 5 5 5 7 11 12 14 12 10 7 10 6 8 6 8 7 19 22 22 23 23 25 25 24 25 26 27 26 25 26 27 28
19 17 10 6 3 9 8 11 11 10 10 8 7 8 9 8 7 9 10 11 2 2 1 4 5 8 22 22 23 23 22 23 20 20 20 19 20 21 23 23 23 25 26
19 16 16 11 12 13 15 15 12 11 12 9 9 9 9 6 6 7 7 8 9 9 3 6 9 19 21 20 22 18 18 18 17 16 17 18 19 20 20 22 23 24 24
27 24 17 15 15 17 17 14 11 12 13 12 11 10 10 9 9 10 10 10 9 10 8 12 18 21 21 25 23 20 20 19 17 19 18 21 21 22 22 22 22 22 22
24 16 15 15 15 16 14 13 11 14 16 15 12 11 11 9 11 13 12 12 12 10 12 15 21 21 25 26 23 22 21 19 19 21 21 25 26 25 25 24 23 21 21
13 12 11 11 15 14 12 12 14 18 19 18 14 13 12 12 14 14 14 12 12 12 11 15 19 23 28 26 24 22 21 22 24 22 24 21 18 18 20 22 22 24 25
7 5 5 6 11 10 12 15 19 20 20 18 15 14 13 14 15 13 11 13 13 12 12 14 21 22 21 23 19 17 23 21 26 28 20 17 20 24 22 22 22 24 25
7 3 2 5 11 13 20 24 21 19 20 16 14 16 14 13 12 12 13 13 12 12 12 15 19 17 17 17 15 21 21 25 25 19 20 24 27 27 25 22 20 20 21
5 1 8 15 18 18 15 15 17 21 20 19 18 16 14 13 13 13 13 12 11 11 13 15 18 14 18 16 21 19 21 17 10 13 20 29 28 30 28 25 22 21 23
6 14 14 16 13 14 17 17 18 22 22 19 18 17 15 13 13 14 13 13 12 12 13 16 18 18 17 19 19 20 19 20 19 23 22 25 27 30 31 30 25 24 22
14 13 13 12 16 17 14 14 16 19 20 19 19 17 15 13 14 15 16 16 15 14 15 17 14 14 15 17 18 19 21 22 21 20 18 17 24 29 33 32 21 17 12
13 13 14 13 12 13 15 14 15 19 20 21 18 19 18 16 14 16 17 16 15 16 17 12 11 12 12 13 15 18 19 17 18 19 22 14 18 30 28 22 13 9 13
13 12 14 16 17 18 16 13 13 17 24 23 22 22 20 18 15 15 17 16 15 17 14 11 11 12 13 15 16 14 16 16 16 13 2 18 21 15 9 12 11 17 20

GFSMA_925_spd_042.txt.gz
Wind_Speed
13 12 11 13 14 15 13 12 11 10 9 8 7 7 8 9 10 12 13 11 3 1 4 7 4 4 5 7 9 10 10 11 11 11 12 14 14 15 18 20 23 23 22
13 14 14 16 15 14 12 11 10 8 8 5 5 6 7 9 11 13 13 9 4 6 9 7 5 4 3 3 5 7 8 8 9 9 10 11 12 15 18 19 21 21 20
14 16 17 16 14 13 12 10 9 6 4 4 5 6 6 7 8 8 7 4 9 12 11 9 7 4 4 3 5 6 7 8 7 9 11 11 14 14 17 18 19 19 19
16 18 17 15 14 12 10 8 6 5 3 4 5 5 5 3 4 4 7 7 8 7 5 4 2 2 4 3 5 6 7 8 10 11 9 14 11 16 15 15 16 18 19
16 16 16 16 14 12 10 6 5 3 5 5 3 2 2 3 8 7 8 8 6 2 1 3 5 7 8 4 5 7 9 11 11 12 12 12 13 15 13 12 14 16 18
17 18 17 16 16 12 9 6 3 4 4 2 3 2 6 7 7 5 5 5 8 9 7 5 6 8 7 8 6 8 10 12 13 14 15 16 15 15 15 15 15 16 17
18 18 18 18 14 10 7 3 4 3 1 2 3 5 1 11 6 4 5 3 14 6 2 5 7 10 10 11 8 7 10 12 13 14 16 17 18 18 18 17 17 18 19
19 20 18 16 12 8 4 4 3 3 6 3 1 2 3 3 7 7 3 4 10 4 6 10 8 10 8 9 9 10 10 11 13 15 16 17 18 18 17 19 20 20 19
20 19 17 15 11 6 6 5 5 5 4 1 3 3 1 2 4 3 2 7 6 7 15 18 10 11 10 10 10 11 10 11 13 15 17 18 19 19 20 22 22 21 22
21 19 17 13 10 9 9 7 3 2 4 4 2 3 3 2 1 4 4 6 13 15 16 14 15 15 12 11 12 13 12 13 14 14 15 16 17 19 20 21 24 25 24
22 19 16 15 15 13 9 2 4 6 7 2 2 2 4 5 6 5 3 6 12 17 16 18 19 17 11 12 12 11 10 12 13 13 14 15 17 19 21 24 26 28 29
20 18 18 19 16 10 5 3 5 7 6 2 3 4 6 5 4 7 5 9 12 17 14 13 16 13 8 10 8 10 13 16 18 20 19 19 21 23 25 28 30 33 34
26 26 25 23 16 5 4 5 5 3 4 3 3 5 6 6 8 12 15 11 6 12 10 8 14 8 9 12 13 19 22 25 26 27 26 26 27 27 28 30 32 34 33
31 28 25 19 9 8 6 4 6 4 4 5 7 8 8 8 9 11 11 7 7 9 2 5 4 9 12 13 24 25 24 25 25 25 23 23 24 24 24 26 27 28 29
29 28 25 23 16 12 5 5 7 8 8 8 10 11 11 9 9 10 11 10 6 3 2 7 7 9 12 22 23 23 24 23 22 21 21 20 21 21 23 24 25 26 27
32 35 29 21 10 11 8 5 10 11 13 15 15 14 14 11 10 11 11 10 10 7 3 7 11 13 16 19 19 22 22 21 21 20 19 20 21 22 24 24 25 26 27
35 30 25 10 12 13 12 9 16 15 17 18 18 17 15 12 13 13 13 13 15 16 10 10 12 14 19 19 22 21 19 20 19 18 19 20 23 25 27 28 28 27 26
30 23 12 16 15 9 10 18 19 17 17 20 21 18 17 14 15 15 16 17 18 16 15 15 18 16 20 22 23 21 19 17 20 21 22 24 25 23 21 21 22 25 26
22 15 20 13 12 12 15 19 19 18 19 21 21 21 18 15 17 17 17 18 19 17 16 17 18 17 21 21 23 22 20 24 24 21 22 20 17 17 20 22 23 24 25
17 15 9 5 4 6 13 19 17 21 24 23 25 23 19 19 20 19 18 19 17 17 16 16 19 21 20 20 20 17 22 22 23 24 17 15 20 23 23 22 20 21 22
13 15 13 10 12 13 15 17 20 27 25 25 26 24 22 20 19 19 18 17 18 18 16 16 17 16 17 15 14 17 20 25 23 12 20 21 28 29 26 22 22 21 20
16 8 8 12 13 16 15 17 20 21 22 26 26 25 23 20 19 18 18 18 19 19 18 15 17 15 18 17 17 17 18 16 11 13 24 28 23 29 26 25 26 24 23
2 9 12 14 13 15 15 17 18 19 21 24 25 24 22 21 18 18 17 18 18 18 17 16 18 20 16 15 16 18 15 17 20 24 24 26 23 28 27 31 28 23 21
7 11 11 11 13 15 14 12 15 16 18 19 22 22 21 20 17 18 17 19 20 20 18 17 18 18 14 12 14 17 20 23 19 19 19 18 22 25 30 29 16 16 15
10 11 13 12 15 15 15 16 17 16 16 18 21 22 22 21 21 18 19 21 23 22 18 16 16 13 11 12 13 16 20 14 16 18 22 12 11 29 25 20 10 15 22
11 12 14 16 18 21 18 17 17 17 18 19 21 24 24 25 22 20 21 21 22 22 17 15 13 12 12 13 14 14 16 14 14 11 5 15 21 13 11 13 17 28 28

GFSMA_925_spd_045.txt.gz
Wind_Speed
15 14 13 14 15 16 16 15 13 10 7 7 6 6 6 6 7 8 7 4 2 5 6 7 5 4 5 5 6 6 6 5 7 7 9 9 11 14 16 17 20 19 19
15 14 14 15 17 17 15 12 9 6 5 5 4 5 5 6 8 9 7 8 5 7 8 6 4 3 3 1 2 4 5 6 6 8 10 8 11 13 14 15 16 16 17
15 15 16 18 18 17 14 11 8 6 4 3 3 4 5 7 8 8 6 6 7 11 10 8 6 4 2 1 2 5 6 8 9 10 11 9 14 11 16 14 14 15 15
16 17 19 19 18 16 13 10 8 6 4 3 3 3 3 3 6 4 4 4 5 4 2 2 3 2 2 3 6 7 9 10 11 11 12 13 10 13 14 12 13 15 16
16 17 18 19 18 15 12 10 8 4 4 3 3 2 2 1 4 5 6 5 3 1 2 3 5 5 7 6 6 8 9 10 10 12 12 13 15 14 14 14 14 15 14
17 17 18 18 17 15 13 10 6 5 4 2 0 2 4 6 8 7 5 4 1 6 6 6 3 5 6 8 8 8 9 11 11 11 12 14 14 15 15 15 15 15 15
19 19 19 19 18 15 12 9 7 5 2 2 2 5 4 7 7 6 8 5 4 5 6 5 6 8 9 10 10 8 10 11 11 13 14 15 16 16 16 16 16 17 18
19 20 21 21 20 17 13 10 7 5 2 3 3 3 2 5 10 10 7 7 6 5 5 7 11 11 8 9 9 11 10 10 12 14 15 16 17 18 19 18 19 20 20
21 22 23 22 19 16 13 10 6 4 3 7 8 4 2 2 3 5 7 7 5 7 9 13 13 10 9 9 10 11 13 12 13 14 16 17 18 19 19 20 21 21 21
22 23 23 21 19 16 14 11 7 5 5 7 6 8 5 4 3 4 4 6 11 10 14 14 12 10 10 9 10 11 10 12 13 12 14 17 18 19 20 21 22 23 23
24 24 23 22 21 19 16 11 8 7 9 8 8 3 5 5 5 6 7 8 15 14 14 14 14 11 10 11 5 5 9 11 13 14 16 18 20 21 22 23 25 26 27
25 26 26 25 23 22 18 11 9 8 6 9 5 4 5 6 5 6 9 14 15 13 12 10 10 8 5 5 7 11 14 19 24 26 23 23 24 25 26 27 29 30 31
28 30 30 28 28 23 15 13 9 7 10 9 6 7 9 7 6 7 9 14 11 13 9 9 9 9 7 9 11 14 18 25 27 26 25 23 23 24 24 25 27 28 29
32 30 32 31 29 24 19 9 10 11 10 9 7 9 8 8 6 6 8 9 8 12 14 12 8 7 7 9 14 23 20 24 26 25 23 22 23 22 22 23 24 26 27
35 32 33 32 29 21 13 10 14 12 10 8 8 10 11 8 8 7 9 9 9 6 9 8 11 7 9 11 16 20 20 22 27 26 25 23 22 22 23 24 25 26 27
36 36 34 33 28 19 15 14 12 7 9 10 12 13 13 10 11 10 9 10 11 13 9 13 13 12 11 14 16 17 20 25 22 24 22 21 22 23 24 25 26 27 28
32 34 34 35 26 18 18 15 7 8 14 15 16 15 16 16 12 11 12 12 14 14 16 20 14 13 13 16 17 18 18 19 20 19 21 23 25 25 25 26 25 25 26
32 37 36 30 20 18 15 11 7 14 17 18 17 17 20 14 15 14 14 15 16 16 18 20 18 16 15 15 16 17 18 17 18 20 21 23 23 22 21 20 21 23 25
28 30 29 21 16 16 14 12 17 18 19 20 20 20 20 17 17 16 15 15 16 16 16 17 20 16 15 15 16 17 17 17 17 19 21 20 17 17 19 22 23 24 24
24 27 22 18 17 11 14 15 14 15 17 19 23 24 22 20 20 16 16 16 16 16 15 16 18 18 17 15 15 16 16 16 18 19 16 14 18 21 22 22 21 20 22
20 17 15 13 7 13 15 16 15 17 20 22 26 24 23 24 23 20 16 16 16 16 16 17 18 17 16 15 15 15 17 18 18 16 15 16 22 22 20 19 18 19 21
18 14 5 7 15 15 18 21 21 21 21 23 22 21 22 24 24 23 23 22 20 18 18 18 18 17 18 16 15 14 15 15 15 14 20 23 20 21 19 17 20 24 24
6 4 11 11 13 17 16 19 19 20 19 20 20 18 17 21 22 21 19 21 21 24 23 19 19 19 18 15 13 14 14 15 18 22 22 23 22 19 16 19 22 20 14
4 10 15 15 14 17 15 17 15 16 18 21 20 19 17 17 21 22 18 18 19 19 19 19 19 19 17 15 13 14 16 18 19 19 17 20 17 19 21 23 20 13 13
8 8 9 11 14 15 15 16 18 21 21 22 20 20 19 19 23 23 23 19 19 19 19 24 24 21 21 17 14 14 15 16 18 19 17 11 16 24 22 22 13 13 24
7 8 11 13 14 18 20 19 18 20 24 21 19 21 22 24 25 24 24 22 21 21 17 16 16 18 17 16 16 15 14 15 16 14 5 14 17 18 10 13 12 23 21

GFSMA_925_spd_048.txt.gz
Wind_Speed
14 14 13 13 12 12 11 10 10 8 8 7 6 6 6 6 7 7 6 6 1 4 7 5 3 3 2 3 4 4 3 5 5 5 7 5 7 11 10 12 13 14 15
12 11 12 12 12 12 11 10 9 7 6 5 4 4 5 5 5 5 3 6 2 6 6 4 3 2 1 2 2 2 3 5 6 8 9 8 8 10 10 10 10 11 13
11 11 11 12 11 11 12 11 9 7 6 4 3 3 4 3 3 2 2 3 3 6 8 6 5 4 1 2 4 7 8 10 10 11 12 10 13 9 10 10 9 10 12
12 12 11 11 12 13 11 10 8 6 4 3 2 2 2 2 3 2 1 1 1 2 2 5 7 7 6 5 8 11 12 13 12 12 12 13 12 13 13 12 12 12 12
14 12 12 13 15 12 11 9 8 6 4 3 3 1 1 3 2 2 3 2 2 2 4 8 10 10 10 9 9 10 11 12 12 13 13 13 14 15 15 15 15 14 15
13 13 13 14 15 13 12 10 9 6 5 4 3 2 3 5 5 6 6 6 4 5 7 8 8 8 10 12 10 10 11 12 13 13 12 14 15 16 16 17 17 17 16
14 14 14 15 15 14 12 11 9 8 6 4 3 4 5 5 9 10 9 8 7 8 8 7 8 9 13 11 12 10 10 12 13 13 15 16 16 17 18 18 19 18 18
15 16 15 17 16 14 13 12 10 8 6 4 1 3 4 7 10 12 10 10 9 9 8 8 10 14 14 12 13 14 12 12 12 14 16 17 18 18 18 19 20 20 21
19 17 18 19 18 16 15 13 11 10 8 5 3 3 3 4 6 9 11 10 9 9 11 12 13 13 12 13 15 12 11 14 14 13 16 17 18 19 20 21 22 23 23
18 17 18 22 20 17 16 14 12 11 8 6 6 10 12 9 4 5 9 8 9 11 11 14 14 13 13 14 13 15 15 12 12 12 13 17 20 22 23 24 24 25 25
17 17 19 21 22 19 17 17 16 13 10 7 10 7 11 11 10 8 7 7 9 11 11 13 13 13 12 12 11 11 13 13 14 16 18 21 24 26 27 28 28 29 29
17 19 19 20 20 19 20 19 17 15 13 13 12 12 12 9 8 9 8 11 12 12 10 12 10 11 11 11 11 13 14 17 19 22 22 21 22 24 25 25 26 27 28
25 28 26 23 22 21 20 19 19 14 12 12 12 11 11 11 9 9 10 12 11 12 11 9 11 11 12 12 12 14 14 21 24 24 23 21 22 22 23 24 24 25 26
32 29 29 26 22 22 25 24 17 11 9 12 10 9 10 11 10 9 10 11 8 12 12 12 11 12 13 14 14 21 18 20 22 25 25 22 22 23 23 24 24 25 25
30 26 26 27 27 23 24 22 14 13 12 13 9 9 13 12 11 11 11 10 11 8 8 12 12 12 14 16 17 18 21 21 24 27 22 21 22 22 23 24 25 25 26
26 24 30 29 24 26 25 17 13 13 12 12 12 13 14 13 13 13 12 13 13 15 11 15 17 17 15 18 18 19 21 22 23 23 22 22 22 23 24 25 26 26 27
23 28 26 24 26 29 24 16 16 11 12 15 14 16 17 16 16 16 15 15 16 16 18 20 19 19 16 19 21 20 21 22 23 22 21 23 23 24 25 25 25 24 23
20 20 24 29 25 28 20 16 12 12 17 17 16 18 18 17 18 19 19 18 18 20 20 22 22 22 20 18 20 21 21 21 22 22 22 24 24 24 23 22 21 22 23
16 19 23 16 19 20 17 16 18 21 24 18 17 20 20 18 21 22 21 20 21 21 19 21 23 21 21 19 20 20 20 21 20 20 23 23 20 21 22 23 24 25 25
11 15 16 17 18 13 11 12 18 22 16 18 19 20 21 23 25 25 24 21 21 21 21 22 22 22 21 19 18 19 20 18 21 20 22 21 20 22 24 23 23 24 23
12 14 17 15 12 10 13 18 20 18 17 19 21 22 23 25 26 27 26 25 21 20 22 22 21 21 21 20 17 17 19 20 20 19 18 18 20 23 22 21 20 19 15
15 14 13 11 9 14 16 17 16 18 17 20 21 22 23 25 26 30 31 32 27 24 24 22 22 21 23 19 18 18 18 18 17 16 16 23 20 22 22 20 17 19 22
16 11 7 8 12 14 14 15 15 16 19 20 22 22 23 23 20 22 23 26 29 28 27 26 25 25 22 20 19 18 18 18 20 20 20 23 20 22 20 21 19 22 22
5 3 8 10 10 11 11 13 15 16 18 21 22 23 24 23 23 21 21 23 24 25 23 26 26 26 22 19 17 18 18 20 21 20 17 21 20 20 21 23 22 20 17
4 4 5 6 8 10 12 14 16 17 21 24 24 24 25 24 23 22 22 25 26 26 25 27 27 23 23 23 22 18 18 18 18 19 17 18 15 21 22 23 14 9 15
2 3 4 6 9 11 13 16 16 18 22 25 26 27 27 27 26 25 24 25 26 30 23 24 20 20 23 21 22 19 19 18 18 18 13 14 18 20 16 18 13 23 20

GFSMA_925_spd_054.txt.gz
Wind_Speed
16 17 16 13 12 15 10 8 8 7 7 5 5 4 3 5 6 4 4 5 7 8 8 7 6 6 6 5 5 4 3 5 6 8 9 11 8 10 10 11 11 11 13
13 15 17 17 15 15 11 10 7 9 7 7 5 4 4 4 4 6 2 4 5 7 10 8 7 5 4 2 2 2 3 5 7 8 9 10 9 9 9 10 11 11 12
15 11 12 12 13 13 13 10 12 9 8 6 6 4 0 4 2 2 2 2 4 8 13 12 9 8 6 4 2 1 4 6 8 8 8 8 9 9 11 12 12 12 12
13 15 16 14 14 13 14 12 12 10 10 10 8 4 5 3 3 3 4 3 3 8 11 11 10 9 9 9 7 4 6 8 8 9 9 9 10 10 11 12 13 14 14
17 18 16 17 14 13 13 14 13 13 11 8 7 9 7 6 5 5 7 8 9 3 8 7 7 7 10 12 12 11 9 10 9 9 10 11 10 12 13 14 15 15 16
22 20 18 16 18 16 16 16 13 13 10 11 12 14 11 9 8 10 10 10 8 10 5 5 4 8 11 10 9 9 9 8 7 8 11 11 12 14 15 16 17 17 18
22 23 19 18 19 18 18 17 17 12 14 10 9 11 14 17 15 14 13 12 12 12 9 10 10 7 8 7 10 8 7 6 7 10 10 11 14 15 16 17 17 19 19
22 20 20 20 20 20 20 19 19 16 16 15 10 14 2 7 16 17 17 17 15 12 9 9 12 11 11 12 12 10 8 8 10 7 9 12 14 15 17 18 20 21 23
22 21 21 20 22 22 22 23 24 20 20 19 20 6 2 2 5 17 21 17 14 17 15 12 9 10 11 10 11 11 12 11 10 11 11 10 13 16 18 19 21 23 24
24 22 23 24 21 24 22 25 25 25 21 18 16 18 12 3 1 3 14 21 18 13 14 17 14 11 10 12 12 16 11 11 10 11 13 12 15 17 19 21 23 25 25
26 27 24 24 24 22 22 23 26 25 23 25 15 20 16 9 9 6 3 6 18 17 20 20 16 12 12 12 15 13 15 15 12 14 17 14 16 18 20 21 23 24 24
27 24 28 24 27 26 26 23 23 25 26 16 21 12 10 5 11 9 4 8 7 7 6 5 10 12 11 12 11 15 15 15 17 17 21 15 16 18 20 22 23 24 25
26 27 27 27 26 29 28 28 26 23 21 22 14 9 9 7 2 3 6 7 7 15 17 14 12 12 14 15 15 17 16 15 15 17 16 17 20 22 24 23 23 24 24
28 27 29 30 30 29 26 23 23 24 22 19 14 12 11 7 3 4 9 7 6 14 16 16 13 13 10 13 15 17 15 16 14 17 19 24 28 23 22 22 23 24 25
21 25 30 31 30 27 25 26 26 26 23 17 15 11 9 7 8 15 17 17 18 3 4 15 17 15 12 11 13 19 18 16 18 21 24 25 25 23 20 22 24 26 26
23 19 22 24 21 23 23 26 23 20 18 17 16 13 8 10 14 17 19 20 19 19 4 12 18 15 14 18 20 20 19 18 17 20 21 23 24 24 25 25 25 26 26
14 12 16 17 17 23 23 24 22 20 18 15 11 10 10 12 16 20 20 19 20 19 15 17 18 18 20 23 17 17 18 21 21 19 20 23 24 25 31 28 27 26 23
14 11 13 17 20 19 21 22 20 15 15 12 14 11 15 15 20 22 20 21 22 20 23 21 24 23 23 25 23 20 22 21 23 23 21 24 28 31 30 27 26 27 26
12 14 17 18 17 18 19 18 16 16 15 15 15 17 17 19 20 20 20 21 21 24 26 27 24 25 26 27 25 23 24 23 23 22 21 21 18 20 24 28 29 28 28
9 9 9 9 11 14 16 15 15 15 17 16 16 17 20 20 23 25 25 26 26 27 29 28 27 27 26 26 26 26 22 20 21 19 18 20 20 23 25 23 23 28 29
9 9 10 10 11 11 12 13 15 14 12 13 15 18 20 25 26 27 26 26 25 27 28 24 23 24 24 24 21 20 13 14 19 16 16 14 16 20 17 21 23 24 21
13 13 11 11 11 9 9 10 7 9 10 12 15 16 17 20 23 25 28 33 36 34 30 26 26 24 25 21 23 18 14 13 5 17 17 19 18 19 23 22 23 22 17
16 15 13 10 10 7 5 5 7 9 8 11 15 16 17 18 21 23 25 27 30 31 33 39 30 30 27 31 25 19 17 16 17 18 13 16 21 25 25 22 20 21 26
15 13 9 5 3 3 3 3 2 4 7 11 14 16 19 21 21 23 28 31 31 30 31 32 36 36 36 33 26 23 21 21 19 18 16 15 22 24 22 19 19 20 23
10 8 6 6 4 7 6 4 1 4 7 11 14 15 17 22 22 26 32 33 33 32 32 33 36 36 35 32 28 24 18 14 13 17 17 20 24 22 19 15 18 20 18
10 9 10 7 5 10 7 1 4 5 7 14 19 22 23 23 26 30 33 28 29 31 29 31 31 34 34 29 28 27 27 18 13 8 23 20 22 10 7 15 8 20 23

GFSMA_925_spd_057.txt.gz
Wind_Speed
25 23 20 18 16 14 12 10 11 8 6 9 9 7 8 6 7 4 5 6 11 12 10 9 8 7 8 7 6 5 5 5 6 8 8 9 8 10 10 11 12 12 13
20 19 18 17 16 13 12 10 12 7 7 7 7 7 8 7 4 4 6 7 5 10 10 9 8 7 5 4 4 3 2 4 6 7 7 7 7 8 10 11 12 13 13
18 18 17 18 14 16 14 15 11 8 10 8 6 5 7 7 6 4 4 3 2 2 13 11 8 6 5 4 5 2 1 4 6 6 7 6 6 7 8 10 12 13 14
17 17 16 21 18 19 16 17 16 13 12 10 9 8 9 9 6 7 4 4 7 9 12 14 12 10 8 8 9 7 4 5 6 6 6 7 7 7 8 10 11 13 14
16 19 17 19 16 19 20 17 17 15 14 15 15 14 12 11 8 7 11 11 8 7 11 12 10 8 7 8 7 8 6 5 5 4 6 8 8 8 10 11 12 13 14
20 19 21 20 21 18 19 18 18 17 15 17 15 15 17 14 11 11 14 12 11 10 13 10 9 8 8 10 9 7 8 7 4 4 6 8 9 10 12 13 14 14 15
23 25 24 22 21 24 23 21 20 19 18 15 17 8 16 17 19 17 17 15 15 15 14 13 14 13 12 12 8 9 10 8 6 6 6 6 9 12 13 14 15 17 18
29 29 27 27 26 24 24 25 26 23 19 20 11 6 2 10 19 20 20 19 19 19 19 15 15 15 13 13 12 13 13 10 10 9 5 5 9 11 13 15 16 17 19
28 29 28 29 28 28 28 28 30 27 25 23 23 11 2 4 4 13 21 21 21 20 17 16 15 14 14 16 15 14 16 17 14 11 12 13 9 13 15 16 18 19 20
31 31 30 27 28 31 29 29 29 29 28 29 22 27 13 3 3 1 12 21 21 22 24 22 20 16 15 15 14 15 17 16 12 11 11 12 12 14 16 17 18 19 20
35 35 32 30 30 31 31 29 30 29 31 23 22 12 18 9 5 2 2 6 23 19 21 22 21 23 22 23 18 17 16 13 14 14 13 15 14 12 14 16 19 20 21
37 35 34 33 33 32 30 32 28 29 31 29 21 21 14 6 6 6 5 3 3 13 24 23 25 25 26 24 21 17 16 17 16 16 14 17 17 13 15 18 19 20 21
35 39 36 35 33 31 29 29 28 27 27 27 25 19 18 12 10 8 4 2 1 6 10 16 11 15 22 21 23 22 21 20 19 18 17 18 17 15 16 16 17 18 20
36 40 39 36 33 32 30 28 26 23 22 24 21 18 17 13 11 12 8 4 3 11 19 21 16 11 15 22 23 23 23 22 22 20 19 17 18 17 16 16 17 18 20
25 34 38 37 33 32 26 26 26 24 24 23 17 19 16 14 13 10 11 14 13 4 3 17 19 21 19 17 19 22 22 23 23 21 20 20 18 19 18 18 19 18 20
28 29 27 29 28 25 24 24 24 24 26 22 21 20 16 15 12 12 14 20 24 20 8 14 18 18 19 15 16 20 23 24 24 23 24 22 20 19 20 21 21 19 20
19 18 15 19 23 23 21 23 23 24 23 20 17 13 12 11 10 13 16 19 22 23 17 17 20 20 22 24 25 24 23 25 25 27 26 24 21 21 20 21 22 22 22
18 14 14 15 17 19 20 22 24 23 20 17 15 12 13 11 11 14 20 20 22 23 25 21 25 29 32 33 34 33 30 30 28 28 28 26 24 23 21 20 21 23 23
16 15 13 14 16 19 20 19 17 16 14 13 13 14 12 11 12 16 19 21 23 24 24 27 26 29 34 35 35 34 33 33 33 32 29 27 25 24 19 18 19 21 20
15 14 15 18 18 16 14 14 13 13 13 13 12 10 12 13 18 20 22 23 25 27 27 27 26 27 28 31 32 32 32 31 38 29 24 21 23 19 18 17 16 14 18
14 15 15 14 14 13 14 14 13 12 12 9 9 10 13 17 18 22 24 24 25 26 28 30 25 25 26 26 25 30 31 27 19 17 22 19 18 21 20 19 17 18 19
16 17 18 17 15 13 13 12 12 10 9 8 8 10 10 13 17 18 21 24 29 33 32 29 28 23 28 28 33 31 31 20 8 24 21 25 22 22 18 18 21 20 19
22 20 19 19 16 14 13 12 10 8 7 5 5 9 12 10 9 12 16 19 20 21 22 26 28 27 29 32 34 31 29 26 22 23 18 22 20 19 20 21 18 19 18
23 21 18 16 15 12 10 9 7 5 3 1 1 3 8 12 16 21 25 29 31 32 31 30 28 30 31 35 37 33 32 29 25 23 21 17 24 22 21 20 19 17 14
22 16 13 14 13 14 12 9 7 7 5 4 6 9 12 14 17 21 25 30 33 36 35 32 31 34 39 41 35 31 27 23 14 21 26 22 19 17 22 19 12 13 17
17 16 13 16 17 18 13 11 8 4 1 5 8 10 12 14 16 20 22 25 29 33 35 39 37 33 31 32 33 32 30 26 12 6 20 15 19 15 5 13 14 10 13

GFSMA_925_spd_060.txt.gz
Wind_Speed
31 24 23 21 20 17 15 12 12 11 9 11 11 7 8 8 7 7 8 9 13 12 11 10 11 10 9 8 7 6 5 5 6 7 7 8 7 7 8 9 10 11 11
28 24 22 21 20 17 14 11 12 11 9 8 9 8 7 6 5 6 7 9 14 14 13 11 9 8 7 6 6 4 2 2 3 5 5 5 5 5 6 9 10 10 11
27 25 22 21 19 17 15 13 14 12 10 10 8 7 8 6 6 7 7 11 13 14 13 11 10 9 7 6 7 4 2 2 2 3 3 2 4 5 6 8 9 11 13
23 23 20 20 19 19 18 16 20 16 12 13 11 10 10 10 8 8 9 11 12 9 10 12 13 12 11 7 6 5 4 3 3 3 3 3 4 5 6 8 10 11 13
19 18 21 19 20 22 22 22 22 19 17 16 15 13 13 14 12 10 12 13 11 10 13 16 15 12 9 7 7 8 6 4 4 2 2 4 5 6 7 10 11 12 12
19 19 20 17 21 20 24 25 24 21 19 17 16 17 16 18 16 15 16 15 14 13 15 16 16 14 11 10 10 10 8 7 5 3 3 4 5 6 9 11 12 13 13
22 21 20 21 20 21 24 25 24 22 20 17 15 16 18 18 18 19 18 20 20 19 20 19 17 16 14 14 14 14 12 9 7 6 5 4 4 7 10 11 13 14 16
23 25 24 25 25 23 24 27 27 25 23 21 15 5 3 11 22 24 21 23 22 20 21 21 18 17 17 17 17 17 15 12 11 12 11 10 9 8 9 12 14 15 17
27 29 28 30 28 27 27 30 30 29 28 24 24 10 2 4 3 16 29 25 24 23 24 22 20 20 19 18 17 18 18 18 17 17 16 14 12 11 10 12 15 16 17
31 32 34 34 33 32 33 33 33 33 32 27 23 24 11 4 3 2 9 21 23 22 26 26 25 23 22 20 21 22 20 22 24 20 18 16 13 13 11 12 15 16 17
35 34 38 36 35 34 36 36 35 35 36 29 28 13 20 12 8 4 3 3 11 24 25 25 25 25 24 24 24 24 22 21 21 22 19 16 15 15 14 12 14 17 19
39 41 39 40 37 36 36 37 37 34 36 34 29 26 22 13 12 7 3 8 9 7 20 20 25 25 25 26 26 26 25 22 23 24 22 20 19 17 14 13 14 16 18
41 44 43 45 43 40 38 37 35 34 31 32 32 28 26 25 18 12 6 2 7 8 10 18 17 16 18 23 22 27 27 26 27 27 26 22 22 20 17 15 15 16 16
43 44 42 41 40 35 36 31 34 31 30 26 25 26 26 25 23 24 17 11 3 9 8 16 17 21 26 27 29 30 30 30 31 30 28 27 26 25 21 19 18 17 17
42 36 39 37 36 32 32 35 32 28 26 24 24 24 25 23 20 18 15 16 11 2 4 11 16 16 17 20 21 24 31 33 32 32 31 31 30 28 23 22 20 19 19
28 25 26 29 33 32 37 31 27 26 24 21 22 25 21 18 16 14 12 11 13 13 5 8 13 18 22 23 23 22 24 27 31 32 35 35 34 31 27 25 23 20 21
33 25 23 27 28 26 27 27 25 24 22 23 23 21 18 16 14 11 9 10 15 18 13 16 19 21 21 23 24 26 24 28 31 33 36 39 38 36 32 29 26 22 22
24 22 17 16 19 22 24 23 23 21 22 21 20 18 16 13 12 9 8 13 17 21 19 16 18 22 27 26 30 31 34 37 40 41 37 41 43 38 37 32 28 25 23
21 23 20 19 21 22 23 23 21 19 18 17 17 16 14 12 10 10 11 14 16 19 22 21 21 24 28 29 31 32 31 32 36 41 43 40 44 38 42 34 31 27 23
27 24 19 21 22 22 20 19 17 17 17 16 14 13 12 9 11 11 13 14 16 19 22 26 24 24 23 26 27 28 32 36 37 37 37 36 36 42 38 31 32 24 25
27 22 22 21 21 20 20 19 17 18 16 14 13 10 8 7 9 10 13 17 19 23 25 22 22 22 22 25 24 27 30 34 37 37 35 33 25 24 26 25 30 31 23
22 21 20 20 20 18 17 17 17 16 15 14 10 6 4 4 7 9 7 5 6 10 13 15 17 19 23 24 25 28 27 22 14 28 27 32 30 30 27 35 32 25 22
23 21 21 20 19 18 17 17 17 16 12 8 6 5 2 2 4 7 10 13 16 19 16 17 19 20 24 23 24 27 25 26 28 29 27 26 26 29 33 29 25 22 20
25 25 23 22 22 21 19 17 15 13 12 9 7 5 4 4 7 12 15 17 18 19 18 18 20 25 26 28 28 29 30 33 31 33 29 20 27 32 30 26 22 19 18
29 28 25 23 22 20 17 17 16 15 14 10 5 3 4 6 9 11 13 15 18 19 19 19 21 23 25 26 25 27 24 21 23 25 26 27 25 26 26 25 20 18 16
27 26 23 20 21 21 18 16 15 13 10 6 2 2 4 5 7 9 10 13 16 19 23 24 24 25 24 26 26 25 29 22 22 22 22 24 21 16 5 17 17 16 14

GFSMA_925_spd_063.txt.gz
Wind_Speed
34 31 29 26 25 23 19 16 17 15 13 12 11 10 11 12 12 11 13 13 14 12 12 11 11 12 11 9 8 8 6 6 6 7 7 7 7 7 9 10 10 11 11
34 31 28 26 22 20 17 15 14 13 13 11 10 9 10 11 9 9 10 12 14 12 12 11 11 11 10 9 8 5 3 3 4 4 4 5 6 6 7 8 9 10 10
33 30 28 23 20 18 16 14 13 10 10 12 10 9 9 9 8 9 8 11 13 14 14 14 13 12 10 8 8 4 2 1 1 1 2 3 4 4 5 7 8 10 11
33 31 22 20 19 17 16 13 13 14 13 12 11 11 10 9 7 7 8 10 12 16 17 16 15 12 11 9 8 6 6 4 3 2 2 2 2 2 3 6 8 10 11
26 25 22 20 20 17 17 16 16 17 16 16 13 12 13 12 10 9 10 12 12 15 18 17 15 14 13 10 9 9 8 7 5 3 3 2 1 0 3 6 8 10 11
24 22 21 19 17 18 18 18 19 21 20 18 16 15 15 15 15 14 15 15 16 17 16 17 17 18 16 14 12 11 11 8 7 6 5 3 4 6 6 6 9 10 12
19 18 19 20 17 20 20 21 22 24 22 19 14 14 17 18 20 21 20 20 21 20 18 19 19 19 19 17 15 12 12 11 10 9 7 7 9 9 8 8 8 11 12
19 19 18 20 19 19 20 22 25 26 26 20 10 4 1 8 22 26 27 26 26 23 23 21 21 20 21 19 18 15 13 14 13 12 13 11 10 9 8 7 9 11 13
19 20 21 21 20 22 23 23 25 29 27 25 24 11 1 4 1 13 30 27 25 27 25 24 24 25 25 24 22 17 18 19 17 16 15 14 13 10 8 7 8 11 13
25 21 24 26 26 25 26 27 27 33 32 27 21 23 14 4 3 3 6 15 26 25 24 24 29 30 28 27 24 21 20 23 23 22 19 17 16 13 11 11 10 10 12
31 34 27 27 30 30 31 33 34 34 36 29 28 16 25 15 12 7 4 3 9 22 23 26 29 33 30 28 27 25 25 26 26 25 25 22 20 18 15 13 12 11 12
41 40 33 32 31 32 36 37 38 37 38 38 34 30 24 9 12 10 4 7 9 11 19 20 26 29 27 28 27 29 29 29 27 26 27 26 24 22 19 17 15 14 14
42 43 38 37 37 38 38 39 38 37 35 35 34 35 34 30 23 19 17 7 8 15 10 17 20 20 16 18 23 26 27 25 25 29 30 30 30 26 23 22 20 18 16
41 41 40 39 40 41 41 40 30 26 30 33 32 34 33 28 24 24 22 13 2 8 10 12 13 16 18 23 24 22 24 27 32 34 33 34 34 32 30 28 25 22 20
41 41 38 37 37 39 39 35 29 30 37 33 31 30 26 27 25 21 20 17 10 2 3 7 8 14 17 17 18 19 23 24 26 32 36 38 37 36 37 36 32 28 24
39 40 40 37 39 38 35 34 35 38 34 30 28 25 25 22 19 18 17 15 12 8 2 6 10 16 20 19 23 24 24 25 25 28 32 37 39 40 41 41 41 35 28
37 30 26 26 32 28 32 36 33 32 29 27 24 23 21 19 18 16 13 11 9 9 8 9 13 18 21 22 25 26 26 26 26 27 31 33 37 40 45 45 44 40 32
34 26 28 29 31 30 33 28 27 27 28 25 23 19 17 17 15 13 9 9 8 11 13 11 13 16 19 24 27 30 31 31 32 33 32 32 35 38 42 42 47 43 36
39 35 34 30 30 28 26 22 23 23 22 22 19 19 19 16 14 11 9 8 10 11 13 15 12 16 20 22 26 27 29 31 31 32 34 36 35 37 38 41 42 47 39
42 35 33 34 31 28 25 22 22 21 18 16 15 15 15 15 13 10 10 10 10 10 13 16 17 15 19 20 23 26 30 32 33 32 35 36 38 41 41 39 38 41 39
34 31 31 30 27 25 24 22 20 19 19 18 16 15 14 10 8 9 8 9 9 13 16 16 14 15 17 16 20 23 27 31 33 30 36 41 39 40 38 42 41 35 34
29 29 32 29 27 26 22 20 21 21 20 20 19 15 12 9 8 8 6 6 5 6 8 10 15 16 17 18 20 23 23 24 22 26 27 36 34 39 35 33 33 28 28
28 28 27 26 23 19 18 18 19 21 20 19 16 13 11 9 7 5 5 7 9 11 11 11 15 17 19 21 23 26 22 24 27 31 29 35 30 34 35 38 38 30 29
27 25 23 22 21 20 20 20 21 22 19 15 13 13 10 7 4 6 8 10 10 10 9 10 12 16 18 20 22 25 27 27 29 27 21 27 29 33 35 37 38 29 25
23 23 23 24 24 23 21 21 20 19 17 15 11 8 5 3 5 7 7 9 10 12 13 14 16 17 19 18 19 23 20 21 24 28 23 24 27 29 31 36 35 29 27
23 24 24 23 25 23 17 16 16 17 16 12 8 4 2 3 3 4 5 6 9 12 17 19 18 17 16 17 17 17 22 22 22 25 17 18 22 20 10 21 27 24 20

GFSMA_925_spd_066.txt.gz
Wind_Speed
35 33 33 33 30 25 24 25 23 22 19 16 15 13 14 14 15 16 16 15 15 14 13 13 12 11 11 11 10 9 8 8 9 9 8 7 8 8 9 10 10 10 10
36 33 33 31 27 23 21 21 18 17 16 14 14 12 12 12 13 14 15 15 12 13 13 12 11 11 10 9 9 7 6 6 6 6 7 6 6 6 7 8 8 8 9
36 34 31 29 26 22 21 19 16 15 14 13 12 11 11 11 11 11 12 14 14 13 12 13 13 12 11 9 9 6 5 3 4 5 6 6 5 4 4 4 5 6 7
35 32 29 27 26 21 18 17 16 15 14 13 11 11 11 11 10 11 11 13 15 15 14 15 14 14 13 12 10 8 6 4 3 3 5 4 3 3 2 1 4 6 6
35 32 29 28 22 18 15 16 15 13 14 13 11 11 10 11 10 11 12 12 13 14 15 17 17 16 15 13 11 9 8 5 5 4 6 4 3 4 4 6 4 5 6
33 32 31 23 16 18 17 17 14 14 14 15 14 13 13 13 14 15 14 13 14 15 15 17 19 20 18 16 12 10 9 8 8 7 7 5 5 7 7 7 6 5 6
29 27 22 23 22 20 21 18 17 16 19 16 13 13 15 16 18 19 18 18 18 18 18 18 20 21 20 18 15 12 10 11 11 10 11 9 9 9 9 8 7 6 7
24 24 23 21 21 21 20 20 20 20 21 19 9 3 1 7 21 24 24 24 23 22 22 22 22 22 21 21 18 16 13 13 14 13 14 15 13 12 11 10 8 7 8
27 24 19 22 23 16 19 19 21 22 22 22 23 8 1 4 2 9 23 28 27 26 26 26 24 23 24 23 22 20 19 17 17 16 17 19 17 16 14 11 10 8 8
19 20 20 18 18 17 18 20 20 23 24 22 21 25 18 6 4 2 7 12 21 30 28 26 28 24 25 27 27 25 24 21 20 23 20 22 21 19 17 15 14 12 10
31 27 23 19 20 21 24 24 25 27 27 28 29 16 26 17 12 5 3 6 9 18 27 26 30 27 23 26 31 29 28 26 23 28 27 24 24 23 21 19 17 16 14
33 31 29 26 26 24 25 28 29 30 31 31 32 30 23 11 16 10 5 9 10 11 15 20 25 25 25 26 27 30 29 28 27 29 30 30 27 24 25 24 21 20 19
35 39 36 36 33 31 29 28 30 29 32 26 25 28 35 34 28 22 16 6 8 11 9 15 19 22 21 17 15 15 19 25 28 29 30 31 29 31 31 28 26 25 24
34 35 37 38 38 35 33 32 33 33 27 21 18 23 30 31 36 31 23 11 2 8 8 10 9 12 9 8 12 15 17 17 19 21 25 29 35 37 37 34 32 30 29
33 34 34 34 35 34 33 32 32 31 22 25 28 33 27 32 31 28 24 21 12 3 3 5 10 10 8 10 13 14 14 16 18 21 23 26 29 33 37 39 38 36 35
34 35 36 35 35 34 33 32 33 29 28 32 35 30 29 29 25 23 19 17 15 11 3 8 8 8 15 18 17 16 18 20 21 22 23 24 25 27 32 38 41 42 41
36 37 37 36 40 37 37 31 31 30 31 34 30 32 29 25 22 18 16 15 13 11 6 4 8 12 15 17 17 17 18 21 23 23 24 26 28 30 32 35 38 41 41
42 42 43 43 40 30 27 27 29 32 27 30 29 27 25 21 19 18 18 15 11 9 6 6 6 11 14 14 17 18 18 20 22 23 24 26 28 30 31 33 34 37 39
42 40 36 38 40 35 31 26 27 33 30 28 27 27 24 21 20 19 16 13 11 7 5 4 3 5 14 14 19 22 23 23 24 26 28 30 31 34 36 39 41 41 40
33 33 36 39 38 35 31 28 24 27 28 26 24 21 20 20 19 17 14 11 8 7 5 5 9 13 15 18 17 18 23 27 30 33 36 34 34 35 36 39 41 41 42
34 33 36 38 37 32 29 23 23 27 25 22 18 16 16 15 15 14 13 10 8 6 6 8 9 9 12 13 15 15 22 25 27 28 22 22 26 30 36 37 40 41 38
34 33 35 37 36 31 25 21 25 24 23 22 21 20 18 16 14 12 10 8 6 5 4 5 7 8 11 12 16 18 22 16 9 15 20 35 32 33 36 34 38 39 35
33 32 34 32 29 27 23 24 22 23 23 23 23 22 19 15 12 10 8 5 4 4 4 5 6 7 10 12 16 20 20 17 18 26 25 34 25 30 33 34 33 35 32
29 27 26 24 25 19 18 20 21 23 22 21 21 18 16 13 10 8 6 4 2 1 2 3 5 8 11 14 15 14 18 23 25 23 21 27 26 30 33 33 33 34 33
23 22 23 23 22 23 23 23 26 26 25 21 17 15 12 11 8 6 4 3 2 1 2 4 6 8 9 10 10 14 15 16 19 20 21 22 24 26 28 34 32 29 29
23 23 22 22 26 26 22 23 24 25 23 20 16 13 10 7 5 2 3 2 1 2 7 9 9 9 9 9 10 12 14 14 15 16 8 13 24 19 13 23 22 27 26

GFSMA_925_spd_069.txt.gz
Wind_Speed
38 35 35 33 30 29 29 25 25 23 22 21 19 17 17 14 14 12 13 16 16 16 15 14 13 12 12 12 11 9 9 8 8 9 9 10 10 10 11 10 10 9 9
40 37 35 32 31 30 29 26 25 23 20 19 18 17 16 14 13 13 12 13 15 15 14 14 12 12 11 11 9 7 7 7 7 8 8 8 8 8 8 7 6 6 6
41 37 35 31 30 29 28 25 22 20 18 17 16 16 15 14 14 14 13 12 12 14 14 13 13 12 11 10 9 7 6 5 6 7 7 6 6 6 6 5 3 3 4
39 38 36 30 28 29 26 25 23 19 18 17 16 14 13 13 13 14 14 14 13 13 15 15 14 13 13 11 10 9 8 7 6 7 7 7 6 6 4 1 2 2 3
38 37 36 32 28 27 26 24 21 19 18 16 14 13 13 13 13 14 15 17 17 15 13 16 16 15 14 13 12 11 10 9 8 8 9 7 6 5 2 4 4 5 4
38 37 35 33 29 25 25 23 19 18 16 15 11 12 12 12 14 15 15 16 16 18 17 15 16 17 17 16 15 14 12 12 11 10 11 10 9 6 4 5 6 6 6
39 36 34 31 28 29 28 22 18 18 15 15 10 6 10 14 16 17 18 19 19 19 19 19 17 16 16 21 20 16 14 14 15 14 14 14 12 11 9 8 8 7 7
39 35 31 31 30 28 22 17 20 16 15 16 7 3 3 6 17 23 23 23 23 21 21 21 21 21 21 21 21 21 18 16 16 16 17 18 17 16 14 13 11 10 9
30 30 29 28 26 26 25 24 22 19 13 18 20 6 3 5 2 8 19 24 25 25 24 23 24 23 23 24 23 24 23 20 19 18 19 20 21 20 18 16 15 14 13
24 26 28 25 25 24 22 17 20 18 18 13 16 25 21 6 5 4 6 12 18 25 25 25 24 27 26 26 27 26 26 24 24 23 21 20 21 23 21 20 19 18 17
30 31 29 24 26 22 21 21 22 20 20 19 20 12 18 15 13 14 8 9 13 16 17 21 25 26 28 27 26 25 26 28 28 27 26 25 23 22 25 23 22 22 21
36 34 31 34 31 27 26 25 22 21 20 23 22 18 15 9 12 12 9 13 12 10 13 18 18 21 25 25 25 24 26 25 28 29 29 28 29 25 26 28 25 26 26
35 35 33 29 29 29 28 23 21 20 23 24 24 21 25 27 27 18 14 11 8 9 8 15 17 18 20 22 22 18 14 14 17 21 24 27 29 29 29 30 29 31 31
29 37 32 32 32 32 30 27 25 26 26 28 23 21 22 23 25 26 18 13 2 7 11 8 10 14 15 13 9 9 12 15 16 19 20 19 20 22 26 31 35 38 35
35 33 31 31 31 30 30 28 27 27 25 22 24 24 22 27 21 26 22 25 16 3 6 9 9 11 11 10 8 10 10 9 12 13 15 18 21 22 24 28 30 32 37
35 34 37 36 34 33 32 29 27 25 22 24 28 31 26 26 26 28 26 24 22 15 3 10 10 10 12 8 10 11 10 12 13 14 17 18 21 23 25 27 29 30 32
40 38 36 34 34 31 31 29 28 25 27 28 30 33 30 31 29 28 26 22 20 15 10 7 11 11 10 7 8 7 9 12 11 17 19 19 20 23 25 27 29 31 34
48 46 43 41 36 32 32 31 30 32 29 30 33 29 31 31 28 24 22 22 19 17 7 9 10 7 7 7 12 11 10 10 11 16 19 21 23 25 27 30 31 34 37
30 31 33 37 37 36 36 35 32 36 34 37 34 32 30 26 23 22 21 20 17 15 13 8 6 9 9 11 9 9 10 11 12 18 22 24 26 26 27 28 29 33 36
32 30 32 35 31 28 34 36 34 37 34 34 30 25 26 25 24 22 21 22 19 15 13 12 9 6 6 6 7 9 12 11 15 17 19 18 17 19 23 28 31 31 32
31 29 30 30 27 30 32 33 34 32 31 29 24 20 21 21 20 22 25 23 19 16 14 11 6 5 7 6 7 7 12 14 16 15 11 15 17 21 22 21 24 26 30
30 27 27 28 29 32 35 33 35 31 28 28 25 21 19 20 21 21 19 17 15 15 12 8 6 6 7 6 7 9 11 12 7 6 13 23 19 22 22 23 26 32 29
28 28 28 29 30 32 33 32 29 29 29 28 25 26 25 23 22 21 18 14 11 9 8 7 5 5 5 5 7 10 10 11 14 18 20 22 18 24 22 24 27 31 32
27 27 31 31 31 30 27 25 28 28 27 25 27 28 27 23 19 18 15 12 9 6 4 4 3 3 5 6 8 10 12 14 16 17 14 14 18 24 24 26 29 31 29
26 25 25 25 24 19 22 29 29 28 27 26 24 22 22 21 19 14 12 12 9 7 4 3 3 5 6 7 8 7 10 12 13 13 17 15 15 27 30 28 19 17 22
20 18 17 17 18 24 28 27 29 32 32 29 25 22 17 15 14 13 11 10 10 7 4 2 2 4 4 5 6 5 7 11 12 10 3 10 20 17 12 19 16 23 21

GFSMA_925_spd_072.txt.gz
Wind_Speed
29 24 24 26 26 23 23 20 16 17 16 15 14 14 13 13 14 14 15 18 16 15 15 14 14 13 12 12 12 11 10 10 10 10 9 9 8 8 8 8 8 8 8
28 27 24 24 24 23 22 19 18 18 17 15 14 13 12 13 12 12 13 15 16 16 14 13 13 13 12 11 10 9 9 9 9 10 9 8 7 6 5 5 5 6 5
30 27 24 22 23 23 21 19 18 16 16 15 14 13 12 11 11 11 12 11 12 14 15 15 13 13 13 12 11 9 8 8 8 8 8 8 7 5 4 3 2 2 2
33 30 22 22 22 21 20 19 19 16 16 15 14 12 11 11 11 11 10 11 12 12 15 16 17 17 15 14 12 11 10 9 9 9 9 9 8 7 6 3 2 2 1
34 26 24 23 21 20 20 19 18 17 16 14 12 12 11 10 11 12 12 12 13 13 13 17 19 17 17 16 14 14 13 12 11 11 11 11 10 10 8 6 5 4 4
34 25 25 23 24 21 20 19 17 14 14 13 12 11 11 10 11 11 13 13 14 15 14 13 16 18 20 19 18 17 15 14 13 13 14 13 13 13 11 9 8 6 5
28 26 25 23 22 22 23 19 16 14 12 13 11 8 9 12 12 14 15 15 16 16 17 17 16 16 19 22 22 19 18 17 17 17 16 17 16 17 16 13 11 9 8
25 24 27 28 25 19 19 17 17 14 11 15 10 9 5 11 17 18 17 17 17 17 17 18 20 19 17 17 22 24 21 19 18 19 19 20 20 19 19 17 15 14 13
28 26 34 34 31 21 17 19 19 17 13 14 15 8 4 6 6 11 17 18 19 19 19 23 24 25 24 21 23 22 25 24 22 20 20 23 23 24 23 22 19 18 17
30 31 31 31 32 29 19 21 24 17 13 14 12 19 16 7 5 4 11 14 17 19 23 19 20 21 22 25 22 25 23 24 25 25 24 21 22 24 26 27 24 23 22
26 31 32 31 34 31 32 23 23 17 16 16 16 10 16 16 14 13 10 13 10 13 17 19 23 21 22 25 22 24 28 26 25 25 28 28 25 25 25 25 28 27 26
38 31 31 34 35 27 27 26 20 22 22 18 19 17 16 11 13 14 11 17 13 10 14 19 21 23 24 21 20 25 24 24 24 25 27 28 29 29 27 26 26 28 28
39 40 39 39 31 29 32 26 29 29 21 24 21 20 19 20 18 17 15 12 11 15 13 23 24 22 18 18 15 21 23 22 20 18 18 21 24 26 26 27 28 30 31
38 42 45 44 41 37 39 36 32 19 21 21 21 21 20 21 21 20 17 14 3 11 13 14 15 17 15 13 14 17 15 15 14 14 16 19 21 22 22 23 25 27 28
35 37 38 37 40 39 33 33 25 24 24 24 24 21 23 23 22 21 20 21 16 4 7 13 13 13 15 14 12 13 11 13 15 15 16 18 20 20 21 23 25 27 29
35 35 35 37 36 35 32 30 29 29 30 29 27 24 22 24 24 22 22 24 23 20 5 13 16 13 14 15 13 13 11 15 16 17 18 19 20 23 24 26 27 28 31
37 38 36 35 37 36 34 31 32 32 32 31 29 25 26 26 27 27 25 26 28 24 12 9 14 17 17 12 11 10 10 10 12 16 18 20 22 23 24 26 27 30 32
38 39 38 37 37 38 36 35 34 33 32 32 29 25 28 30 30 30 28 33 31 28 17 15 19 15 16 12 12 11 9 12 13 14 21 20 21 23 25 28 31 33 35
37 36 37 38 39 39 39 39 36 33 31 29 26 27 30 28 29 35 33 29 27 26 23 14 11 11 11 11 10 9 10 11 13 15 18 18 18 21 23 23 25 27 30
37 37 38 38 37 36 34 32 34 35 38 40 41 38 36 38 41 37 33 30 28 25 20 16 13 10 9 9 9 9 11 12 12 13 15 16 15 17 18 20 25 25 24
36 36 36 37 36 35 35 35 32 33 38 38 39 39 37 39 36 37 35 32 30 28 20 16 12 8 9 11 11 9 10 11 13 15 14 11 12 16 18 19 22 22 22
35 34 34 35 34 33 36 38 33 32 35 35 36 34 32 31 28 31 31 30 30 26 19 13 12 11 13 10 9 9 9 10 10 8 9 15 16 19 19 20 22 27 31
32 32 32 32 32 32 33 36 33 34 34 34 34 32 28 27 29 30 26 26 22 19 16 14 12 10 8 8 8 9 10 11 13 14 15 18 18 21 19 20 23 28 32
30 29 29 30 27 29 33 30 30 34 29 26 27 28 30 29 30 30 27 22 18 14 12 10 11 8 6 6 7 8 9 11 14 15 15 17 15 20 20 21 25 27 21
22 23 23 28 31 34 31 29 30 29 24 22 23 25 29 30 28 25 25 18 14 11 11 11 11 11 9 9 8 5 9 10 12 14 14 16 14 19 23 25 16 16 16
24 24 23 22 21 20 18 22 29 27 25 24 22 22 25 25 22 15 19 21 17 11 7 4 3 2 3 4 7 6 8 11 12 11 4 7 13 16 10 13 13 22 17

GFSMA_925_spd_075.txt.gz
Wind_Speed
24 27 27 27 26 24 23 21 16 17 16 14 13 13 13 12 14 14 16 18 17 16 14 14 14 14 13 13 11 11 11 11 11 9 9 8 8 7 8 7 7 7 7
26 25 27 27 26 25 22 20 17 17 16 15 15 14 13 13 13 14 15 17 17 15 14 14 14 14 14 13 12 11 10 10 10 9 9 8 7 6 6 5 5 4 4
25 26 28 27 27 25 22 18 17 17 16 15 15 14 13 13 13 14 15 15 17 18 16 15 15 15 15 14 13 12 11 11 11 10 10 10 8 7 5 4 3 2 1
26 25 21 20 21 21 20 19 19 17 16 15 14 14 13 13 13 13 14 15 15 15 20 19 17 17 16 15 14 13 12 12 11 12 12 11 10 9 7 5 3 2 2
26 25 24 20 21 20 19 19 18 17 16 15 15 14 13 13 13 13 13 13 16 16 17 20 22 20 19 18 16 15 14 13 12 13 13 13 12 12 11 9 7 5 4
29 25 23 21 22 19 19 19 19 17 16 15 15 14 12 11 13 14 15 15 15 15 15 20 21 19 22 20 20 18 18 16 15 15 14 15 15 14 14 12 11 9 7
26 25 24 22 23 23 22 19 17 17 15 14 13 11 10 13 14 15 16 16 17 17 16 16 19 19 23 24 24 23 21 20 21 19 18 18 18 17 16 16 14 14 12
24 23 22 23 24 21 19 19 18 16 16 17 15 14 6 11 18 18 17 18 18 18 18 19 19 19 18 24 27 27 25 23 22 21 23 22 21 21 20 20 19 19 17
25 24 22 23 24 22 21 22 20 18 18 16 16 8 3 5 10 18 21 18 18 20 19 19 21 21 21 20 19 27 26 27 27 24 22 25 26 25 24 24 23 23 23
26 21 19 22 27 24 23 20 22 21 18 15 12 14 14 9 3 3 13 19 19 20 21 19 20 22 22 22 24 24 24 27 31 29 27 24 23 25 27 28 27 26 25
28 21 23 31 34 31 24 22 25 19 21 19 18 12 11 13 14 9 8 12 16 18 19 21 22 23 22 23 25 27 27 28 27 29 30 30 27 25 24 24 25 26 29
32 30 28 34 37 32 31 29 27 24 22 18 21 19 18 11 12 13 10 14 15 16 20 23 24 25 26 24 27 26 27 28 32 31 29 29 29 30 28 27 26 28 27
35 38 33 33 42 39 37 35 28 28 28 25 25 24 20 18 19 18 17 16 13 13 13 17 23 26 25 26 26 25 30 30 29 29 29 29 30 29 28 27 24 24 26
43 40 40 36 41 43 37 31 32 32 30 30 31 25 21 21 21 22 20 17 6 11 13 20 17 23 25 24 22 27 26 24 27 27 26 24 21 22 23 23 24 24 23
37 40 43 43 43 43 38 34 36 32 31 33 30 28 26 24 24 23 22 20 18 8 8 12 14 16 17 20 24 25 23 20 21 21 21 21 20 20 20 21 21 23 24
37 38 43 43 40 39 38 37 35 35 32 32 30 30 26 26 27 26 23 23 22 21 7 13 14 15 17 18 19 22 15 18 19 19 20 22 22 21 21 21 23 25 26
37 37 41 45 44 44 43 40 38 33 33 33 36 33 30 29 28 27 24 25 22 23 14 14 20 21 20 21 19 21 16 17 15 18 19 21 23 23 23 24 25 26 27
34 36 35 38 41 44 43 41 39 38 37 37 35 32 32 31 30 26 26 31 29 26 23 18 23 23 25 25 21 16 16 15 15 15 19 19 20 22 23 25 27 29 30
35 35 35 36 38 40 40 41 40 39 37 36 35 34 32 30 28 27 33 30 30 31 31 23 19 24 22 22 19 20 17 18 15 18 17 20 22 21 23 25 25 25 25
35 36 36 38 37 37 38 38 38 38 37 37 37 36 34 33 33 30 33 36 32 30 27 26 18 20 22 20 21 13 13 14 17 16 15 18 19 20 20 16 18 21 20
37 38 38 39 39 40 40 40 39 39 38 37 37 36 38 39 39 41 37 35 35 31 26 25 18 17 18 20 20 14 16 16 15 13 15 15 13 14 15 16 18 19 18
37 36 38 38 37 38 40 42 40 34 35 32 33 33 35 40 43 41 45 44 42 33 27 25 21 19 18 19 19 16 12 10 9 12 13 13 13 16 17 16 16 22 25
34 37 36 36 37 37 38 41 41 36 32 33 32 34 39 38 37 37 32 31 28 30 30 25 18 12 12 16 15 12 10 8 11 14 12 16 16 19 19 18 19 23 25
35 35 35 35 34 33 33 35 35 36 36 30 35 37 37 33 30 29 28 25 21 17 11 9 17 19 14 11 11 9 7 7 10 14 14 15 15 17 18 20 21 25 26
30 31 29 30 30 28 30 29 29 34 32 28 26 24 24 22 22 26 26 24 17 13 15 12 7 4 8 13 12 6 5 7 9 13 13 14 15 18 17 21 25 18 14
26 24 24 21 25 26 24 27 30 30 23 17 13 11 13 16 22 24 25 22 17 13 7 12 6 7 6 7 7 7 4 7 8 8 3 7 12 12 11 12 14 14 20

GFSMA_925_spd_078.txt.gz
Wind_Speed
30 27 28 30 26 26 25 30 24 23 20 16 13 18 8 24 20 20 23 19 19 18 17 17 16 16 15 15 13 13 13 13 11 11 11 11 11 11 10 9 9 9 8
31 30 27 28 24 28 28 24 18 22 20 15 17 14 13 20 19 19 24 21 19 18 17 16 16 15 14 13 12 12 12 11 11 10 10 9 9 9 8 7 7 6 5
30 33 32 28 25 28 25 19 22 18 18 18 16 14 15 15 19 22 21 23 20 19 18 18 17 16 15 13 12 11 11 11 11 10 9 9 7 7 6 5 5 4 4
29 32 31 28 27 29 25 22 23 21 20 20 18 15 16 13 18 21 18 18 23 22 20 18 17 17 16 15 14 13 12 12 12 12 12 11 10 9 8 6 5 4 3
22 27 30 26 28 32 27 26 23 21 21 19 20 17 17 16 17 18 23 21 19 21 23 22 20 18 17 17 17 15 14 14 14 13 14 13 13 12 11 10 8 7 6
28 28 28 22 23 29 27 24 21 20 20 18 19 17 15 16 18 17 17 22 22 23 21 21 24 24 21 20 19 18 17 18 16 16 16 16 15 15 15 13 12 11 10
31 34 27 20 22 25 24 22 18 18 20 18 16 17 13 12 15 18 19 19 19 21 19 25 25 26 25 25 24 23 23 21 21 20 19 18 18 18 17 17 17 15 14
30 28 25 26 26 23 23 23 22 21 19 21 14 14 3 9 17 18 19 21 22 20 23 21 23 25 24 23 26 27 26 26 24 25 25 23 22 21 20 20 20 18 17
28 31 28 30 31 28 29 27 23 22 19 21 17 8 3 4 7 17 25 21 24 24 23 24 26 25 24 27 26 28 30 29 28 28 27 28 29 26 24 23 23 22 22
30 30 26 30 32 26 26 28 28 26 24 23 25 21 13 3 2 1 13 25 21 24 29 27 28 30 31 28 22 25 26 29 32 32 32 28 27 29 29 27 26 26 26
31 28 28 29 33 26 28 31 30 29 26 23 20 18 22 17 14 4 3 10 24 30 27 30 32 28 33 34 34 33 28 28 28 29 33 35 32 26 24 25 26 28 29
40 31 28 35 33 33 31 31 33 31 26 22 19 19 17 10 14 9 4 10 16 22 28 29 32 34 33 32 32 32 30 33 34 31 32 33 35 34 29 26 27 27 27
34 40 29 34 35 38 36 33 29 27 24 23 24 25 25 23 19 20 18 12 9 15 17 24 27 32 32 34 35 34 34 32 32 29 30 32 33 33 32 31 28 25 25
38 42 40 35 36 37 38 38 34 29 26 27 26 26 30 28 24 27 23 16 3 12 13 16 21 28 35 35 34 34 33 30 29 30 31 31 32 31 30 29 26 25 25
39 40 41 41 36 39 40 43 41 33 26 30 34 36 36 35 27 32 28 25 17 4 6 19 21 25 27 26 28 28 27 30 30 31 30 31 28 25 24 23 23 23 23
39 41 39 38 35 37 42 44 40 41 34 33 32 32 35 35 32 35 31 28 30 23 9 20 18 22 20 21 20 23 27 31 29 26 25 24 23 22 22 22 23 22 23
36 39 43 41 40 37 39 38 38 36 35 35 36 34 34 35 33 34 34 34 33 30 19 24 28 21 22 26 28 27 25 28 28 26 22 22 22 23 23 23 25 25 26
36 39 37 42 43 43 39 40 38 38 38 35 35 35 36 36 36 36 35 36 34 36 28 21 25 29 30 34 33 29 28 26 26 25 21 20 20 23 22 22 23 25 26
37 37 39 40 42 44 43 43 43 42 40 38 38 38 37 37 35 34 35 33 34 34 33 26 22 29 33 34 34 32 30 28 27 24 19 20 22 21 21 24 25 25 26
36 37 40 39 41 41 43 43 43 43 43 42 42 41 41 40 37 36 37 36 31 30 32 31 29 22 25 22 30 26 24 33 30 23 21 18 17 17 19 22 20 16 17
36 38 37 40 38 40 41 42 44 43 42 42 43 44 43 44 44 41 39 34 34 30 26 28 26 14 18 16 28 25 23 21 21 17 17 16 12 13 17 15 15 17 17
38 38 39 40 39 41 41 45 43 40 39 39 38 40 43 42 42 44 48 44 39 33 33 30 28 22 27 25 23 23 18 8 4 9 11 17 16 14 14 17 18 18 21
37 40 39 39 41 42 43 46 47 43 37 37 39 35 36 40 42 40 36 37 31 37 35 28 19 7 9 13 20 16 11 8 1 5 7 9 12 16 17 18 18 17 19
37 36 38 38 38 40 40 44 43 46 40 39 34 35 37 36 38 35 33 22 11 7 8 12 16 17 15 14 16 13 13 9 10 15 12 6 15 18 18 17 19 23 25
33 35 33 34 36 35 36 36 37 40 37 33 31 30 30 33 30 25 20 19 20 21 19 20 18 17 15 13 11 10 7 8 4 3 6 10 11 15 19 18 18 22 18
31 28 29 33 35 34 35 36 35 38 32 26 19 17 12 15 14 16 21 27 27 21 20 20 19 17 12 8 5 8 9 5 0 4 2 4 3 7 6 10 10 15 18

GFSMA_925_spd_081.txt.gz
Wind_Speed
34 34 32 32 32 31 30 31 29 29 27 15 20 21 25 23 25 27 26 24 21 20 19 18 17 17 17 15 15 16 15 14 13 12 12 12 12 11 11 11 11 10 9
37 35 34 35 33 34 34 33 30 29 22 14 17 10 22 23 21 25 25 23 22 20 19 18 17 16 16 15 14 14 14 13 12 12 11 11 10 10 9 9 8 7 6
35 36 37 35 33 34 37 32 28 25 20 18 20 13 25 22 20 23 25 23 22 21 20 19 18 17 16 15 14 13 13 13 12 11 10 9 9 8 8 7 7 6 5
38 37 37 35 33 34 34 26 28 29 25 21 20 16 24 23 20 20 23 24 23 22 20 18 18 18 17 16 15 14 14 14 13 12 12 11 10 9 8 7 6 6 4
36 37 34 33 34 34 30 25 32 28 26 24 20 18 17 24 20 20 21 24 24 24 23 21 20 20 19 18 17 17 16 16 16 15 15 14 12 11 10 9 8 7 6
36 39 36 33 32 34 32 32 30 28 29 28 24 20 19 17 21 22 21 21 24 24 23 24 24 23 21 20 20 20 20 18 17 17 17 16 16 16 15 14 12 11 9
33 39 39 34 33 36 34 36 32 28 29 29 24 20 14 19 21 20 22 25 25 24 24 25 26 26 25 24 24 23 22 22 21 20 20 20 20 19 18 17 15 15 14
28 36 34 30 27 33 33 35 30 27 29 25 19 16 2 5 12 20 18 22 25 27 27 28 27 28 29 28 28 28 26 25 25 25 24 24 23 22 21 20 19 19 18
30 33 25 27 26 35 30 33 31 28 27 25 21 11 2 4 4 17 23 23 23 25 24 27 28 28 29 31 29 29 30 30 30 30 30 31 28 25 23 22 22 21 21
32 29 27 31 36 40 39 34 33 32 32 28 26 18 11 8 3 2 16 27 23 27 29 29 31 32 31 32 32 31 30 32 33 33 33 30 33 33 30 28 26 25 25
28 33 31 28 33 33 33 34 34 36 36 33 25 26 20 13 8 3 2 7 25 27 28 33 33 34 36 35 35 34 33 32 32 35 36 34 34 30 32 33 32 30 28
31 29 32 29 36 34 31 36 38 36 36 30 33 27 24 12 12 6 3 6 14 20 30 35 35 36 37 35 37 39 38 35 34 32 32 34 36 36 32 29 28 27 27
34 33 32 30 34 39 33 33 36 37 33 33 31 31 29 22 15 13 15 10 10 20 19 28 31 35 37 38 39 40 39 38 39 37 36 35 36 37 38 37 35 30 28
36 37 38 31 36 40 38 36 36 37 34 33 28 29 28 26 24 24 24 17 3 7 18 18 26 33 36 36 38 39 39 39 39 39 39 38 36 37 37 38 36 35 33
34 37 39 36 37 40 41 41 38 35 36 35 34 34 30 30 30 30 29 27 17 6 6 21 25 31 34 34 36 38 40 41 42 41 37 34 34 35 35 35 35 33 30
37 37 42 42 39 41 41 42 40 40 38 37 38 36 35 35 34 35 35 36 32 22 9 25 28 31 33 34 31 30 33 34 37 37 36 34 35 35 34 33 30 27 26
39 40 40 41 41 40 44 43 41 40 39 38 37 37 40 40 36 35 36 36 32 28 20 29 32 35 33 32 31 33 34 34 32 32 34 33 32 31 30 28 25 24 24
39 44 41 39 41 41 42 42 41 39 38 38 38 36 39 36 34 34 35 35 34 34 31 27 34 34 35 38 38 37 35 36 35 33 34 34 31 28 26 24 24 22 22
35 39 41 41 40 41 42 42 43 41 41 41 40 38 41 37 38 36 36 34 35 36 34 33 32 33 36 37 36 35 39 40 39 36 34 32 26 25 24 21 19 20 22
38 37 41 42 42 43 44 44 42 43 43 43 42 43 42 39 43 39 39 37 38 34 30 30 28 24 27 33 32 25 28 34 32 28 28 29 25 21 19 17 15 17 17
40 40 39 40 40 41 45 44 44 43 44 44 44 44 45 46 46 44 37 38 34 34 29 24 24 22 19 19 22 29 29 25 26 25 21 20 17 17 17 15 15 15 15
40 38 41 42 41 43 45 46 44 42 42 42 43 43 44 46 49 49 48 48 42 36 31 27 30 27 27 26 25 23 19 11 5 14 18 13 14 16 13 15 15 14 16
36 38 38 38 40 43 44 47 50 45 40 41 41 40 40 42 45 47 46 47 45 41 42 37 32 33 27 31 29 23 23 19 10 12 15 12 15 9 15 17 15 16 17
37 37 38 37 36 40 42 47 45 50 43 40 42 42 42 45 45 43 38 31 24 23 26 28 28 27 20 22 25 25 23 18 13 10 5 3 8 17 18 17 14 12 16
34 36 36 36 37 39 39 41 44 47 43 40 40 42 44 44 41 40 34 25 15 9 8 9 12 16 17 17 19 23 18 18 5 1 6 6 8 9 11 13 13 14 18
35 33 32 34 39 40 37 40 42 43 36 36 35 30 33 35 35 36 35 31 27 26 28 28 27 26 23 19 16 14 12 10 7 4 3 3 1 3 4 2 5 9 12

GFSMA_925_spd_084.txt.gz
Wind_Speed
38 35 36 35 34 35 35 35 35 32 28 19 26 31 28 27 27 28 28 24 23 22 20 19 17 16 16 16 17 15 14 14 14 13 13 13 13 12 13 13 12 11 10
41 38 37 35 37 35 35 36 34 31 25 18 28 30 26 26 27 28 28 25 24 22 20 19 18 17 16 16 16 15 14 13 13 12 12 12 12 11 11 11 11 9 8
41 40 35 36 38 37 37 38 33 28 25 19 26 26 26 26 26 27 28 26 24 22 21 19 18 17 17 16 15 15 15 13 13 12 12 11 10 9 9 9 9 8 7
41 39 37 36 36 37 38 36 38 29 25 19 22 26 27 25 25 26 27 25 24 23 21 20 19 18 17 16 16 16 15 15 14 14 12 12 11 11 10 9 9 8 7
38 37 34 34 35 38 36 35 36 32 26 22 19 25 27 25 25 26 26 25 24 23 21 20 19 18 18 18 17 17 17 17 16 15 16 15 15 13 12 11 10 9 8
38 35 34 36 38 42 38 34 33 30 30 25 20 27 25 25 24 25 24 24 24 23 22 21 20 20 21 20 20 19 18 18 18 19 18 18 17 17 16 14 13 12 11
36 33 32 34 39 43 38 31 34 34 29 27 23 22 23 24 24 24 22 24 26 25 23 23 22 23 23 23 22 22 21 21 21 21 20 21 20 20 19 18 17 16 15
34 33 35 35 39 35 36 34 36 29 26 31 17 14 3 6 20 25 24 25 25 26 25 25 25 26 26 26 27 27 25 24 24 24 24 24 25 24 22 21 21 20 19
33 35 34 38 36 36 36 35 37 33 23 33 29 13 2 3 6 17 26 28 28 28 28 27 27 28 29 30 30 30 31 29 29 29 30 31 27 26 27 25 24 24 24
28 31 36 36 36 38 34 36 37 36 33 29 25 20 14 10 3 2 14 24 26 28 30 30 30 32 33 34 33 33 33 33 34 34 33 33 34 34 32 30 29 27 27
27 25 32 35 33 35 33 33 35 38 36 35 28 26 18 13 11 3 3 11 25 27 29 31 31 33 34 35 36 35 34 33 34 35 37 37 36 34 36 37 36 35 33
31 30 27 31 34 35 40 35 36 36 37 37 37 33 27 13 9 5 2 3 12 23 33 34 35 37 38 37 37 37 36 36 37 37 38 38 40 38 39 38 38 40 38
35 34 32 33 31 35 38 43 42 44 42 41 37 36 36 29 19 18 14 7 7 19 17 25 30 36 38 39 40 41 40 39 39 41 41 40 39 40 39 42 41 38 38
35 39 32 34 36 35 39 39 42 39 40 40 39 40 37 37 30 24 21 14 3 7 11 15 20 23 29 32 36 37 40 40 39 41 42 42 42 41 41 41 43 42 38
33 34 37 37 35 36 36 41 39 41 41 41 40 38 38 36 32 29 27 27 19 5 6 18 24 30 32 31 34 36 38 38 38 41 43 44 43 43 41 42 42 43 43
35 34 37 40 39 36 37 41 41 40 41 42 41 41 40 36 34 31 39 36 31 19 7 22 28 30 31 29 32 36 38 39 40 38 39 41 44 45 45 43 41 41 40
38 37 39 41 40 41 41 43 41 40 42 41 43 44 46 43 38 40 42 37 33 30 19 29 33 38 38 37 37 37 39 43 43 40 36 36 38 37 39 39 38 37 36
37 40 39 42 43 43 44 45 41 37 40 38 37 38 43 41 41 41 40 37 34 34 29 25 28 30 36 42 42 41 48 48 45 44 41 41 39 37 38 40 38 35 31
34 35 39 41 41 42 41 44 44 42 43 41 41 41 42 38 39 39 38 37 35 35 32 29 29 32 32 36 41 41 44 45 45 44 44 44 39 37 35 33 29 29 25
37 37 38 38 40 42 42 42 42 43 44 44 43 46 44 43 44 41 38 39 38 32 31 28 29 30 30 33 36 28 33 43 44 41 42 40 35 34 32 29 26 24 20
42 39 40 41 40 41 42 43 42 41 42 42 42 44 45 47 49 47 41 41 36 34 33 30 29 28 25 20 24 32 31 27 31 34 35 35 33 32 29 26 24 19 14
39 37 40 39 41 44 44 45 43 41 40 41 42 43 44 45 51 52 53 52 44 37 36 31 31 28 32 29 31 29 25 17 5 23 27 26 24 28 30 27 24 20 14
34 39 39 40 41 43 46 48 49 46 40 41 42 41 40 42 44 47 51 51 52 53 48 44 38 38 37 36 32 30 30 25 16 13 24 13 16 17 15 15 14 10 10
34 37 39 40 41 44 45 47 48 49 46 43 42 43 42 42 42 45 45 44 49 53 54 54 51 42 35 26 27 29 27 18 15 13 13 5 8 8 11 10 10 12 17
32 36 39 37 39 43 44 46 49 50 46 46 44 44 43 42 44 46 46 46 40 32 29 28 29 24 22 19 20 21 20 22 5 4 4 6 6 4 4 8 10 13 14
27 35 36 38 39 41 41 44 45 44 39 39 38 41 44 47 45 47 49 40 32 24 21 23 24 24 21 19 18 18 23 17 14 5 4 4 6 4 3 4 10 11 9

GFSMA_925_spd_087.txt.gz
Wind_Speed
38 35 34 37 36 42 41 37 31 29 32 32 29 27 28 29 29 28 27 24 24 22 21 19 19 19 18 17 16 15 16 15 15 15 15 14 13 14 13 12 11 11 12
39 36 34 37 37 41 40 37 36 31 29 31 29 28 27 27 26 28 27 25 23 22 21 19 18 17 16 16 15 14 14 14 14 14 14 13 12 13 13 12 11 10 9
39 37 37 37 36 40 38 36 33 30 25 28 30 29 25 25 25 27 27 25 23 21 20 19 18 17 17 16 14 14 13 13 13 13 13 13 12 11 12 11 10 9 9
38 34 35 35 36 39 39 39 36 29 26 30 32 28 25 24 24 25 25 25 23 22 20 18 18 17 16 15 15 14 13 13 13 13 13 13 12 11 11 11 10 9 8
37 33 35 35 36 38 40 43 37 31 30 30 30 26 25 24 24 24 25 24 23 22 21 20 18 17 16 16 15 15 14 14 14 13 13 12 13 12 12 11 11 11 9
37 33 31 33 36 37 38 38 36 28 30 29 24 24 23 23 23 24 24 24 23 21 20 20 19 19 17 17 17 16 16 15 16 15 16 14 15 14 15 14 13 13 12
38 34 31 28 33 37 37 35 37 29 25 26 24 17 13 18 21 21 22 25 24 23 22 21 20 19 19 20 20 19 18 18 18 19 18 18 19 19 17 19 18 18 17
37 36 36 34 33 34 36 36 36 27 21 27 14 15 3 4 15 20 23 25 25 24 24 24 23 23 23 23 24 23 21 21 21 22 21 23 23 22 22 23 22 21 21
36 37 33 31 33 35 34 35 34 30 23 28 25 8 3 3 5 14 27 27 27 27 26 27 27 27 27 27 27 27 26 25 25 27 26 28 27 25 24 26 25 25 25
35 35 36 34 32 33 35 34 35 34 31 27 26 18 13 10 3 2 15 31 28 29 30 30 31 31 30 30 30 31 29 29 31 31 30 33 33 35 33 32 31 30 29
31 30 32 35 32 38 38 36 34 35 34 31 30 24 17 14 11 3 3 7 26 33 33 35 34 33 33 34 34 33 32 32 33 34 35 36 36 38 37 39 39 38 37
26 26 31 33 36 37 38 39 37 39 35 33 38 29 26 14 11 6 2 4 15 22 36 34 36 36 35 35 36 35 34 34 34 34 35 36 38 39 41 42 40 40 41
31 27 29 36 37 35 38 35 37 37 30 33 38 37 36 29 22 21 12 6 6 19 20 37 39 35 32 35 35 36 37 37 36 36 38 37 39 42 42 43 45 45 43
28 32 29 29 36 39 36 37 39 34 37 32 34 37 39 35 33 28 26 12 2 8 17 16 24 32 31 32 29 32 36 34 36 36 38 40 40 41 43 44 44 45 46
31 30 33 33 31 31 35 35 38 37 38 39 41 44 41 39 42 34 32 30 17 4 4 17 20 26 27 27 33 29 36 34 33 35 38 40 42 44 44 44 44 45 45
33 34 34 37 34 34 34 33 36 39 40 41 40 41 43 39 40 40 38 31 26 18 7 22 27 32 31 31 35 31 34 33 34 37 36 39 42 42 41 44 44 44 44
32 36 36 37 40 37 37 38 37 34 37 38 38 40 45 43 40 40 39 38 32 30 14 30 33 37 36 38 39 38 37 38 40 46 43 41 43 46 41 37 41 45 44
30 33 38 39 40 41 41 40 38 34 38 36 36 36 38 38 38 39 40 39 38 38 33 31 35 33 40 44 44 44 45 44 45 46 46 45 43 46 42 43 43 42 39
32 32 33 34 34 38 39 44 44 42 40 42 42 39 40 39 38 35 34 34 35 34 31 29 33 33 33 37 42 44 45 44 45 47 48 44 42 42 43 44 44 42 36
33 34 36 36 37 37 39 40 41 43 41 41 44 46 42 41 43 39 37 38 35 32 31 29 31 35 33 31 32 30 31 39 44 45 45 43 42 42 45 42 39 37 33
36 36 36 38 39 41 42 41 40 40 41 41 42 43 46 48 48 46 39 40 35 34 34 33 31 31 31 27 28 34 29 34 35 37 39 40 40 39 39 33 33 32 29
36 34 36 36 37 42 43 47 47 41 40 40 42 43 45 47 52 53 54 55 47 38 37 35 33 30 34 34 32 33 32 23 10 31 34 31 33 30 30 29 30 27 26
31 34 36 37 41 42 45 47 49 47 40 41 42 42 40 42 45 45 50 55 57 58 55 47 39 39 36 36 34 31 32 32 33 25 23 16 17 17 18 20 24 25 20
21 32 36 38 40 43 47 48 48 48 44 43 43 44 42 43 42 44 44 41 49 56 61 63 56 50 43 39 39 38 36 28 18 14 19 5 13 14 16 18 15 15 12
19 20 22 33 35 41 42 45 46 47 45 46 45 44 43 45 47 46 45 41 40 40 43 44 46 44 48 50 46 38 23 21 4 5 8 7 8 10 10 10 10 9 8
17 20 21 16 12 13 12 21 37 40 38 40 43 45 47 49 46 48 49 41 33 32 31 18 12 9 7 8 13 20 21 13 8 4 4 6 5 6 5 6 8 7 7

GFSMA_925_spd_090.txt.gz
Wind_Speed
36 31 33 27 31 35 41 38 33 32 31 30 28 24 24 24 26 26 24 21 20 18 18 18 18 18 18 18 18 17 17 16 15 14 15 15 14 14 14 14 13 12 12
39 37 33 30 34 38 41 39 35 34 34 32 27 25 23 25 26 24 24 22 19 19 17 17 17 16 16 17 17 17 17 16 15 14 13 13 13 14 13 12 11 11 10
33 33 34 33 36 41 40 36 32 32 31 30 27 25 24 26 24 24 24 23 20 18 17 16 16 16 16 16 17 16 16 16 15 14 14 13 12 12 12 12 11 9 9
41 40 36 35 37 40 40 36 32 32 33 31 29 26 25 25 23 24 23 23 22 19 17 17 16 16 16 15 16 15 15 15 14 14 13 12 12 11 11 11 10 9 8
32 36 34 35 37 40 39 39 36 34 32 29 30 27 25 25 23 23 22 21 21 20 19 18 18 17 16 16 16 16 15 14 14 14 14 14 13 12 11 11 10 11 9
30 34 32 34 35 38 36 35 37 31 31 31 24 24 21 22 21 22 22 22 21 20 20 19 18 19 19 18 16 16 16 15 15 15 15 15 15 14 13 14 13 12 14
30 31 29 31 34 38 37 35 36 31 26 30 26 14 12 15 18 19 20 22 21 21 20 20 21 20 20 19 18 17 17 16 16 16 17 17 17 17 17 17 16 17 17
32 30 27 29 32 34 36 37 33 28 21 31 15 13 3 3 11 17 19 22 23 23 22 22 23 23 21 22 22 21 19 18 18 19 20 20 21 21 20 20 20 20 21
35 34 32 30 29 31 34 37 33 30 22 30 25 9 3 3 5 12 22 22 25 26 25 24 26 25 24 24 24 24 23 22 23 24 24 25 24 24 22 23 23 24 24
37 41 38 33 34 30 28 36 36 29 30 26 26 9 9 12 3 2 11 24 29 25 28 29 30 29 28 27 28 28 27 26 27 28 27 29 29 32 30 30 28 28 28
32 34 36 37 37 34 31 36 37 36 26 30 25 19 13 13 9 3 3 7 23 29 31 32 33 32 31 30 31 31 30 30 31 32 32 33 33 35 35 36 36 37 37
25 35 35 36 37 34 36 36 35 34 34 27 33 29 24 13 11 6 3 4 13 20 33 35 38 35 33 32 32 32 32 32 33 33 34 35 37 37 38 40 41 42 41
24 30 35 36 37 37 33 36 37 35 32 33 31 34 32 31 22 21 9 3 7 16 15 26 38 38 34 31 33 35 35 35 34 33 34 34 36 37 39 40 42 43 43
26 28 28 31 35 36 35 39 40 38 36 40 40 32 35 33 32 26 23 13 2 5 10 15 17 32 32 31 25 24 27 31 33 34 35 35 35 36 37 40 40 41 43
27 29 28 31 33 37 39 37 41 37 34 34 39 35 31 29 35 34 32 28 17 6 5 18 20 22 27 31 35 33 29 32 37 34 37 35 35 35 36 38 40 41 41
25 27 28 26 27 34 34 36 38 41 38 40 39 38 32 31 29 34 35 31 33 28 11 25 27 28 30 30 32 34 40 36 35 38 37 35 34 37 39 39 40 42 42
26 28 30 31 31 31 31 33 36 38 37 37 38 39 43 37 37 37 38 34 34 31 20 26 29 31 33 34 40 42 39 38 43 40 40 42 43 42 44 45 43 45 44
22 26 29 32 34 35 35 35 36 34 36 37 40 38 39 38 36 38 36 38 38 36 33 27 35 33 35 44 46 45 49 51 49 48 46 48 48 50 50 48 45 47 46
21 21 25 31 33 35 36 38 39 38 38 40 39 39 39 37 36 35 34 34 34 34 32 30 33 36 37 37 41 46 47 45 47 48 49 51 50 51 50 47 47 46 41
27 27 27 27 29 31 34 37 38 38 37 39 41 42 39 40 40 37 36 37 34 31 29 29 31 34 31 32 34 32 32 40 44 47 51 51 51 51 49 49 47 42 41
27 29 31 33 33 34 35 35 36 38 40 39 39 42 44 44 44 43 38 39 33 32 33 32 30 30 30 29 29 35 31 36 35 38 40 43 46 43 45 43 40 41 39
29 30 34 35 36 39 39 39 40 38 37 36 36 38 41 42 49 51 52 55 49 38 37 35 34 32 37 38 35 33 31 27 16 32 34 33 37 41 42 43 42 38 35
16 26 30 31 34 36 39 40 42 42 35 35 40 41 40 41 44 45 49 54 57 57 57 47 39 38 38 37 37 36 34 34 34 33 34 25 27 30 29 31 28 25 26
7 8 9 13 24 29 29 35 41 44 44 41 40 42 41 42 42 43 45 42 47 54 58 62 58 53 47 39 39 39 37 36 29 26 25 10 12 6 7 7 10 13 17
12 11 11 11 11 4 11 13 26 30 36 41 43 43 42 41 45 43 44 40 40 41 44 47 37 35 37 46 49 42 29 20 5 4 7 5 5 11 13 13 13 10 12
11 10 11 14 17 15 23 22 18 14 22 27 33 35 31 37 38 38 43 41 36 36 31 22 16 5 3 3 11 15 23 24 9 4 2 5 11 8 6 11 13 13 14

GFSMA_925_spd_096.txt.gz
Wind_Speed
19 17 17 16 18 22 25 26 26 26 21 19 18 16 14 12 12 13 15 19 19 18 17 18 17 17 17 17 16 15 14 15 15 14 14 14 13 13 13 13 12 12 11
18 19 18 20 21 23 28 30 30 25 22 19 18 17 13 12 14 14 17 18 20 19 18 18 18 17 16 16 16 15 14 13 13 13 13 14 14 13 12 12 12 11 11
20 21 21 22 27 30 28 32 28 23 21 20 19 16 14 13 15 15 15 17 17 18 18 18 18 17 17 17 17 16 15 14 13 13 13 13 13 13 13 12 11 11 11
21 23 25 24 30 36 33 33 26 23 23 21 20 17 14 14 15 15 15 16 16 16 16 17 17 17 17 16 16 15 15 14 14 13 13 14 14 14 14 13 13 12 11
25 22 26 27 34 37 37 37 28 24 23 21 20 17 15 15 15 15 14 15 16 15 15 16 17 16 16 16 15 15 15 15 15 15 15 15 15 16 15 15 14 13 13
25 29 29 29 39 40 38 37 29 27 25 23 20 17 15 15 15 13 14 15 16 16 16 16 17 17 18 17 17 17 16 16 15 16 17 17 17 17 17 17 16 15 15
30 29 30 36 39 40 43 42 29 28 24 24 22 15 11 10 11 12 13 15 16 17 16 16 17 16 18 21 20 19 19 18 18 18 19 19 19 19 19 19 18 17 18
24 31 35 41 41 39 40 37 30 27 24 25 22 19 6 6 11 14 14 16 17 17 17 18 18 17 16 18 21 23 23 22 21 21 21 22 22 22 22 22 21 21 21
20 23 32 38 39 40 38 36 32 28 25 25 24 17 6 6 16 16 16 16 17 18 18 19 21 21 19 18 19 23 26 26 25 25 25 24 25 24 23 23 23 23 23
21 25 27 32 37 36 33 34 32 29 28 26 22 22 16 11 10 6 16 18 18 20 21 20 22 23 21 20 21 22 24 27 27 29 30 29 30 30 30 28 27 26 26
23 25 27 27 30 29 30 32 30 29 27 27 24 18 14 12 14 8 7 16 17 20 21 24 23 22 22 22 22 24 28 29 27 29 31 32 33 34 34 34 35 34 33
25 25 27 27 30 28 32 31 30 26 24 23 23 27 22 16 14 11 5 12 17 20 23 22 25 26 26 26 30 28 29 29 28 31 32 34 35 36 38 38 39 39 39
24 28 32 33 32 33 33 36 36 34 31 27 27 26 25 22 16 15 14 12 8 15 15 23 24 24 24 24 26 30 32 32 32 34 35 36 37 38 39 40 41 43 43
24 27 30 34 34 34 34 35 36 37 34 32 30 30 27 24 23 18 16 14 8 14 15 13 17 22 24 25 27 30 31 29 39 39 38 37 37 39 39 40 41 43 44
20 26 27 32 35 37 35 36 37 36 27 31 26 27 27 24 21 20 19 20 18 9 11 17 18 17 19 19 24 27 27 23 27 38 37 38 35 35 37 37 38 39 38
19 22 24 28 32 36 39 35 35 36 27 27 28 27 25 25 24 23 23 24 20 20 12 24 21 18 17 20 24 28 28 34 32 32 33 36 37 39 42 43 43 43 41
17 17 22 26 29 31 33 33 30 29 28 27 28 27 26 26 25 22 25 24 22 21 12 25 26 29 30 29 29 27 31 38 43 41 43 44 46 46 44 46 51 54 49
17 21 19 27 26 29 31 30 28 27 33 30 30 29 31 27 26 33 33 27 26 29 24 26 32 36 34 36 40 40 40 38 36 38 44 45 48 50 51 56 54 54 57
17 18 19 21 23 29 29 30 29 30 33 32 29 30 32 29 30 28 30 30 29 31 32 32 33 33 35 36 35 37 39 37 39 42 45 52 55 57 57 58 61 59 59
15 16 17 18 20 22 24 24 25 26 26 29 30 33 35 33 33 32 32 34 33 32 31 31 32 32 32 35 34 34 32 35 37 38 40 44 45 46 49 52 54 54 55
16 14 15 15 16 16 18 23 23 23 25 27 29 31 33 34 35 35 32 32 30 30 29 30 30 30 31 30 31 33 34 34 35 35 36 37 34 36 39 44 47 47 44
10 13 14 14 15 14 18 22 22 23 25 26 27 29 30 33 38 43 44 45 41 33 31 30 29 28 34 35 34 33 32 29 17 31 36 37 36 36 32 34 33 32 34
10 9 6 6 8 3 3 17 25 28 22 22 24 25 25 26 29 32 34 39 45 49 51 45 36 33 33 32 30 31 31 32 32 30 30 30 19 12 7 10 17 27 29
12 12 13 11 9 13 8 3 11 16 20 25 15 13 15 17 16 21 27 30 33 39 41 44 41 38 34 37 34 29 26 22 24 14 11 1 4 6 7 12 14 11 6
15 16 17 16 14 17 15 8 4 1 3 5 5 8 6 8 12 16 20 22 23 16 14 17 14 11 9 14 18 22 19 16 13 11 7 3 7 8 5 10 14 15 12
17 16 18 19 19 19 23 17 13 8 9 9 12 14 19 14 12 12 11 10 10 4 3 3 5 7 10 11 12 8 7 6 6 1 9 3 3 4 4 7 9 10 11

GFSMA_925_spd_099.txt.gz
Wind_Speed
17 16 16 15 12 15 21 22 24 28 25 25 22 18 17 12 13 17 16 17 18 17 17 18 17 16 17 18 16 15 14 14 13 11 11 12 11 12 12 11 12 10 9
18 17 16 14 14 17 19 24 25 29 28 24 21 20 16 11 12 10 17 17 18 18 16 17 16 17 16 16 16 16 14 13 13 13 12 12 11 11 11 11 10 11 9
24 18 16 16 18 20 21 24 28 29 28 24 20 18 16 14 14 14 15 17 17 17 17 18 18 17 15 15 14 14 14 13 13 13 12 13 12 12 11 11 10 10 10
29 27 23 23 22 23 24 25 29 28 28 24 23 20 17 15 16 15 15 17 17 16 16 17 18 17 16 15 14 15 14 13 13 13 13 12 13 13 12 11 12 11 11
23 25 22 22 24 27 25 29 29 31 26 25 21 20 17 16 16 16 18 18 17 19 17 19 18 17 16 16 16 16 16 16 15 15 15 14 14 14 14 13 13 13 13
21 19 19 21 31 30 26 29 28 33 29 24 20 18 17 16 15 13 13 15 18 16 16 19 17 16 17 17 17 17 17 17 17 17 16 17 16 16 16 16 15 16 15
20 20 24 25 32 35 34 34 29 34 26 24 22 18 14 12 15 11 17 12 17 17 16 17 17 17 19 21 20 21 20 20 19 19 19 19 18 18 18 18 18 18 18
19 22 26 34 32 35 36 34 28 24 24 27 23 17 5 3 8 13 15 17 17 17 18 18 19 18 18 19 23 24 23 22 21 21 21 21 21 21 20 20 20 21 20
17 21 24 26 39 37 38 39 35 27 22 26 27 11 7 5 11 14 16 17 14 17 19 19 20 19 18 16 19 24 27 27 26 26 25 22 22 21 21 20 21 22 22
18 18 23 31 38 40 37 38 37 32 28 25 25 16 16 14 9 6 17 18 16 18 19 18 21 22 20 21 19 21 24 28 29 30 29 28 26 26 25 25 24 24 25
15 16 18 24 36 35 39 39 31 29 27 27 24 22 18 14 23 13 9 13 19 21 21 23 20 23 24 23 24 24 26 27 27 30 32 32 31 30 30 31 31 31 31
21 20 20 21 27 31 35 38 28 28 26 25 25 22 22 14 11 8 4 14 18 20 21 21 25 23 24 26 29 27 27 29 30 30 31 33 34 35 35 35 35 36 36
22 23 25 25 23 27 32 30 26 28 24 24 21 18 18 18 13 15 10 14 11 15 16 22 22 25 26 26 27 32 33 33 32 34 33 34 35 36 37 38 39 41 41
23 26 28 26 25 27 31 32 31 30 29 24 23 21 20 19 18 19 19 12 6 10 13 14 24 26 25 28 31 31 30 31 33 35 36 37 37 38 39 40 41 42 44
20 22 28 30 31 30 33 35 35 34 33 30 30 27 27 24 26 24 18 18 13 7 8 16 16 23 23 24 28 29 29 33 33 33 32 27 31 38 38 39 41 41 41
20 24 25 28 31 32 33 32 29 30 32 29 29 24 23 25 23 26 22 21 14 17 9 17 11 17 20 22 23 25 27 27 30 30 34 33 30 31 36 37 40 39 39
19 20 27 26 29 32 33 34 33 27 29 24 22 25 27 23 22 23 27 27 23 22 15 22 21 24 22 26 24 23 28 30 31 36 40 40 40 39 40 42 44 47 51
16 19 20 23 27 30 33 33 33 26 33 30 24 26 28 28 30 25 20 17 19 22 20 22 24 26 31 39 44 46 44 42 36 37 42 43 42 42 46 49 51 52 52
16 16 18 19 20 24 26 29 33 30 24 30 31 28 30 26 28 28 25 24 24 25 26 25 30 30 34 34 35 38 37 37 39 42 43 45 46 46 45 49 54 56 58
18 17 19 18 18 18 20 23 27 25 25 25 27 29 26 25 29 26 28 29 25 24 26 29 32 32 33 34 32 30 30 32 35 36 38 41 40 43 46 48 49 50 52
11 16 14 14 16 17 15 20 23 25 24 25 25 25 26 29 27 30 27 30 31 31 29 28 28 28 28 27 27 28 29 30 30 29 31 29 29 28 18 23 28 39 47
9 10 10 9 9 7 10 19 18 16 21 21 20 21 25 30 36 39 40 40 38 30 28 25 25 24 28 28 29 28 28 25 14 24 28 27 28 27 25 24 27 30 27
17 16 15 14 10 3 7 17 20 20 12 13 11 15 13 8 12 16 21 32 43 45 44 40 33 32 28 17 16 20 23 20 18 12 15 14 13 6 5 7 12 15 21
19 18 16 14 12 13 5 3 8 9 9 9 7 6 6 10 13 18 20 20 14 12 16 17 14 11 14 19 22 23 23 26 26 21 13 5 8 4 1 5 15 16 15
23 24 21 18 17 18 14 11 10 9 10 10 12 13 6 6 8 7 8 7 2 4 6 6 6 8 9 10 12 13 10 12 5 3 9 5 3 1 2 6 11 16 15
21 26 28 23 22 23 20 17 13 12 14 14 16 17 21 16 12 7 4 3 9 6 3 6 13 16 18 19 19 16 8 4 4 1 13 8 4 3 2 6 6 6 8

GFSMA_925_spd_102.txt.gz
Wind_Speed
16 19 21 20 22 21 22 23 25 27 26 28 27 24 24 20 24 24 26 22 21 18 18 18 18 17 17 16 16 15 16 15 14 14 15 11 12 12 11 11 10 9 10
17 18 20 18 18 18 22 27 25 26 28 28 25 24 22 17 27 26 27 22 20 17 18 18 18 17 17 16 16 15 13 14 14 14 14 13 13 13 11 10 10 9 9
21 18 17 17 16 17 21 28 23 27 29 27 24 26 21 16 21 23 23 24 20 18 19 19 18 18 16 16 15 14 13 13 14 14 13 14 12 12 12 11 10 10 9
27 21 18 20 20 21 24 24 26 27 30 28 25 26 19 17 15 25 24 22 20 19 19 20 18 19 16 16 15 14 14 13 13 14 14 15 15 14 13 12 11 11 10
24 26 25 24 20 22 27 26 28 30 30 28 26 23 21 20 20 22 22 21 20 19 19 19 20 19 17 15 15 15 15 15 15 15 15 15 15 15 14 13 13 12 12
21 22 23 24 24 26 29 26 26 29 33 32 27 23 24 22 22 19 22 26 23 23 19 20 20 19 18 17 17 17 17 17 17 16 16 16 16 16 16 15 15 14 14
20 22 19 21 24 30 33 33 27 29 27 32 23 18 20 23 20 16 20 20 28 23 22 20 22 21 20 19 19 18 18 18 18 18 18 18 18 18 18 17 17 16 16
21 23 22 21 27 30 30 30 29 24 20 34 15 14 4 7 10 13 15 13 16 23 22 21 17 17 20 24 25 23 21 21 20 20 21 21 21 20 19 19 19 19 18
19 20 22 24 27 35 33 34 32 30 24 31 25 12 4 3 9 10 14 19 16 19 25 23 20 23 24 25 21 23 26 26 25 23 23 23 22 23 21 21 21 19 19
17 19 21 24 28 37 37 35 36 31 26 26 26 18 10 20 4 3 15 20 22 12 18 26 26 23 24 21 23 20 18 26 28 29 27 26 26 23 23 22 22 22 22
20 21 20 24 27 36 34 35 35 33 29 28 27 22 17 22 21 6 4 10 24 20 17 21 16 24 24 22 19 19 19 21 24 29 31 31 31 30 30 27 27 27 27
18 17 16 15 23 33 35 38 38 36 34 30 27 22 21 12 15 12 3 14 17 22 19 21 26 21 23 29 29 25 27 28 28 27 30 32 33 34 34 33 32 31 32
22 20 15 14 22 30 31 34 36 36 35 33 30 30 25 19 11 11 9 11 7 16 21 26 27 28 27 25 28 30 31 32 32 31 31 31 32 35 38 38 39 38 37
22 23 19 18 23 27 30 27 26 32 34 32 30 27 22 18 13 8 3 3 2 7 14 14 26 26 27 31 34 33 34 35 35 34 34 34 33 35 37 39 41 42 42
23 23 23 23 22 26 30 31 24 29 28 29 24 23 25 20 16 14 12 14 9 4 6 20 15 31 32 30 30 31 32 34 35 35 37 37 37 38 38 38 42 45 45
22 25 24 27 26 25 28 30 29 27 30 27 25 24 22 21 21 23 26 20 24 7 2 9 16 16 27 28 25 25 27 28 30 32 33 33 33 35 40 41 38 41 45
24 23 23 28 30 28 29 30 29 31 31 29 29 28 27 22 23 24 27 22 18 16 8 16 19 16 13 18 24 22 20 25 32 35 34 36 40 41 43 44 43 41 40
22 23 25 25 27 29 31 31 30 30 32 30 29 28 29 26 24 22 23 26 25 23 22 18 22 24 26 28 29 32 37 36 38 38 37 40 45 47 45 43 44 45 46
21 21 23 24 25 28 30 32 31 31 33 33 31 28 25 25 25 26 27 20 23 24 22 20 19 23 26 26 29 33 35 37 36 38 40 43 42 43 46 49 48 47 47
22 22 22 22 22 24 26 30 30 29 28 29 29 32 29 27 28 28 27 28 26 19 21 23 20 21 26 28 29 27 27 31 33 33 32 34 35 37 37 43 43 44 42
18 21 23 21 20 20 19 21 24 26 26 24 26 24 26 27 27 30 26 26 27 28 24 20 23 23 24 20 23 28 25 25 25 25 24 22 15 13 9 8 11 16 26
16 18 23 25 21 16 18 22 21 21 23 20 23 23 23 23 24 23 25 27 24 23 23 23 23 20 16 14 6 9 13 12 4 15 15 12 14 13 11 11 12 17 18
16 20 21 19 16 9 8 14 22 15 10 13 12 10 9 9 16 20 22 22 24 24 35 35 27 23 16 14 18 23 17 11 9 16 20 11 11 4 4 6 12 11 12
21 20 19 17 16 15 8 5 8 12 11 9 7 6 6 4 4 8 8 7 4 2 1 2 2 1 4 8 10 11 12 12 10 5 6 1 3 2 3 6 13 12 13
26 27 25 23 22 23 18 13 12 14 16 18 17 12 7 5 4 1 5 12 12 16 19 17 16 13 10 8 6 3 4 3 2 5 11 4 6 3 2 4 7 9 11
28 28 31 28 27 23 22 19 17 19 22 22 22 22 22 16 10 8 9 12 15 13 12 14 18 19 18 19 17 15 9 6 4 4 12 6 6 3 2 5 8 9 9

GFSMA_925_spd_105.txt.gz
Wind_Speed
26 27 27 25 24 26 27 25 25 24 22 22 22 24 19 18 22 24 25 23 22 22 22 20 19 20 19 19 18 17 16 16 15 16 15 15 16 16 16 15 14 13 12
25 28 28 26 26 28 27 27 28 27 24 25 23 24 21 18 26 27 28 24 24 24 22 21 20 20 20 19 17 16 16 16 15 15 14 14 15 15 14 13 12 12 12
25 25 28 27 27 26 26 27 27 27 26 26 25 24 22 18 26 29 29 28 24 22 23 22 22 21 20 19 18 17 16 17 16 16 15 14 15 14 13 12 12 11 11
27 27 28 31 28 25 26 33 32 30 28 27 27 26 24 15 29 29 29 28 26 22 21 22 21 22 20 20 18 17 18 18 17 16 15 16 15 15 14 12 12 12 11
28 29 29 29 28 24 26 29 29 28 29 29 29 26 25 15 31 31 31 31 27 24 22 23 21 22 20 17 18 18 18 17 16 15 15 15 16 15 14 13 13 13 12
29 31 28 26 25 23 27 28 27 28 30 30 28 27 27 20 30 32 32 28 26 26 23 23 21 22 19 16 16 18 18 17 17 17 16 16 16 16 16 15 15 14 13
25 27 29 29 28 27 29 30 28 29 26 29 22 18 21 21 32 29 28 26 28 27 25 24 23 23 21 20 20 20 19 19 18 19 19 18 18 17 17 17 17 16 16
26 27 27 28 28 28 31 33 32 23 19 31 17 14 4 9 16 28 28 27 28 29 27 27 26 26 25 24 24 22 21 21 20 20 20 20 19 19 19 19 19 19 18
26 26 28 29 28 29 30 33 34 31 25 29 26 12 4 5 7 12 21 22 29 30 30 28 27 25 25 26 25 26 25 25 25 24 22 23 22 21 21 21 21 21 20
27 29 29 29 28 30 29 35 34 34 27 28 27 22 11 18 7 2 10 19 22 27 28 31 30 26 25 24 25 27 26 25 27 28 25 26 26 23 24 23 23 23 22
31 28 27 27 28 29 31 34 34 33 37 32 31 20 14 25 20 5 3 8 20 25 19 32 32 27 28 28 26 27 25 22 22 27 29 30 30 28 27 26 25 25 25
28 25 26 27 29 29 31 35 36 36 34 32 29 26 20 17 15 8 3 5 15 24 28 17 32 33 27 29 25 22 23 23 22 22 25 28 32 32 31 31 30 30 30
26 28 24 27 27 28 29 32 33 32 33 35 33 28 26 20 21 18 10 7 5 13 19 24 23 25 25 28 28 27 26 25 26 27 28 27 28 32 35 36 36 35 34
26 25 25 24 22 21 28 31 33 31 34 35 35 30 29 26 13 25 11 13 3 8 12 17 32 30 30 31 34 32 31 32 32 31 30 29 30 32 34 35 38 39 40
26 24 26 22 17 17 21 26 27 36 31 32 32 35 30 29 20 17 14 12 8 4 7 17 14 31 32 32 30 32 32 31 30 33 35 35 35 35 36 37 39 41 42
24 25 27 23 20 20 22 25 24 31 37 33 32 31 31 29 25 21 19 12 7 6 3 10 21 19 28 30 29 27 28 28 29 32 31 32 33 35 37 36 38 38 40
24 27 28 25 24 23 22 26 24 29 31 30 31 32 31 31 28 25 19 18 16 12 7 9 14 13 10 17 25 27 25 26 29 29 26 28 30 33 35 38 40 42 41
23 27 28 25 26 25 24 26 27 25 27 30 32 31 32 31 25 24 24 25 27 23 19 15 20 22 18 19 20 23 23 24 24 26 32 40 42 42 42 43 46 48 47
25 25 24 26 28 28 26 27 27 30 27 29 31 33 31 29 26 23 25 28 27 23 23 21 22 23 21 19 22 24 28 31 34 39 39 38 37 40 43 47 50 47 44
25 24 23 25 26 27 30 31 29 30 30 29 29 32 31 31 29 30 31 25 23 19 21 23 24 24 24 23 24 26 27 29 29 25 20 19 20 19 19 21 26 26 31
20 21 22 21 21 22 22 27 28 28 30 28 29 30 30 30 30 31 30 32 30 27 26 16 15 17 18 15 20 22 21 19 12 11 4 3 3 2 3 6 8 10 13
15 18 19 17 18 17 20 24 24 25 25 23 25 28 28 27 27 30 29 28 26 26 26 21 17 16 18 16 13 9 6 3 3 10 7 3 4 5 5 6 10 11 12
18 19 17 14 9 9 15 21 21 18 17 15 14 14 19 19 23 16 18 28 24 23 23 22 18 13 10 11 12 13 13 7 3 9 10 1 2 5 5 10 12 12 13
26 26 22 21 18 14 7 11 18 17 16 12 9 8 8 7 7 11 13 10 8 5 2 4 6 6 6 7 6 6 6 4 5 2 1 5 2 5 5 8 10 10 9
32 33 28 25 24 20 12 12 18 21 21 20 16 11 7 4 4 8 13 18 18 18 18 17 16 13 9 5 2 4 3 5 4 4 8 3 5 4 4 7 7 8 9
35 35 34 31 27 24 19 19 18 23 28 27 25 24 19 11 10 11 13 19 25 22 20 20 19 18 18 17 15 11 5 7 6 4 9 4 4 2 3 6 9 12 14

GFSMA_925_spd_108.txt.gz
Wind_Speed
30 30 31 31 30 28 27 26 26 25 21 21 22 21 19 21 24 24 28 24 22 21 21 20 20 20 20 20 21 19 18 18 18 17 17 16 16 15 14 14 13 13 12
31 32 33 33 30 31 27 30 29 26 24 21 21 24 21 20 23 23 28 26 22 21 22 21 21 21 21 22 20 19 19 18 18 18 17 16 16 15 14 13 12 12 11
31 33 34 34 32 30 28 30 28 26 24 22 22 21 21 19 22 26 30 28 24 22 24 22 23 22 22 22 20 20 18 18 18 17 17 18 16 15 13 12 11 11 10
31 33 34 34 33 31 31 30 29 28 27 26 26 24 21 22 21 25 29 29 27 26 26 25 23 25 23 20 20 20 18 18 17 17 16 16 17 16 13 12 11 10 10
32 33 34 33 32 31 31 31 30 29 25 27 29 25 24 21 24 24 32 31 29 29 27 25 25 24 22 22 21 19 17 19 18 17 18 17 16 16 15 13 12 12 11
33 33 33 33 34 34 34 33 29 27 27 25 23 22 24 20 21 26 31 32 31 29 26 26 25 25 23 22 21 20 20 19 19 18 18 18 19 17 15 14 14 14 13
33 34 34 33 35 37 35 31 27 25 23 24 18 13 16 17 22 27 31 33 32 30 26 28 27 25 26 21 19 20 21 20 19 19 19 17 17 18 18 17 16 16 15
34 36 35 34 34 33 31 30 27 21 19 27 16 14 4 4 22 25 31 32 33 31 29 28 28 27 27 25 23 22 22 21 21 21 21 21 20 19 20 20 19 18 17
33 34 36 37 37 35 33 31 32 28 21 27 24 10 3 3 10 17 28 32 33 33 31 31 31 30 30 29 27 27 25 24 24 23 23 22 22 21 22 21 21 20 20
34 33 32 32 32 33 30 31 32 32 29 24 27 27 16 13 8 4 17 28 32 33 33 32 32 32 32 32 29 29 28 27 26 28 26 25 23 22 22 24 23 22 22
30 33 32 31 31 32 31 32 31 32 34 29 31 27 16 21 18 11 7 11 24 31 35 34 32 33 34 32 29 29 28 27 27 26 28 28 27 27 25 25 24 23 23
34 33 33 33 32 31 31 32 32 32 33 32 34 27 22 21 20 17 4 11 16 24 33 33 34 34 34 32 29 26 26 26 28 26 24 27 29 29 28 27 28 28 27
31 34 34 34 32 31 32 32 31 32 35 36 38 35 27 25 29 20 13 8 8 9 22 28 26 32 34 33 31 29 27 27 27 26 26 25 26 29 32 31 31 32 31
33 34 33 32 30 29 30 33 33 34 32 26 34 28 28 29 30 27 20 12 2 7 10 16 31 26 29 32 36 32 29 28 27 28 27 27 27 29 29 29 31 33 35
35 34 32 31 28 29 30 28 30 29 27 31 34 34 32 30 32 32 22 24 12 5 9 15 17 31 29 30 29 30 32 31 30 28 28 29 30 30 31 31 33 35 35
33 32 29 28 27 25 23 28 27 28 29 31 31 34 34 32 30 24 25 24 20 11 3 21 24 19 26 35 36 33 32 31 30 30 29 29 30 31 32 35 37 36 37
32 28 28 26 27 23 22 24 25 25 28 26 30 33 33 34 32 24 22 18 12 9 5 7 13 14 27 20 24 27 28 29 27 26 26 28 29 30 26 33 35 37 40
29 27 26 25 27 24 22 25 25 25 30 28 27 33 28 32 30 32 27 26 23 23 15 13 19 18 13 12 15 16 19 19 22 26 28 30 30 30 34 39 42 42 42
27 23 23 26 26 25 23 22 24 23 25 28 31 28 28 29 29 30 32 30 27 23 21 17 13 17 21 23 23 23 22 22 22 23 25 27 31 33 37 38 39 38 38
25 23 22 23 25 24 24 25 25 24 22 21 24 28 30 31 30 31 32 28 26 21 20 19 20 18 20 19 22 19 22 21 21 16 19 19 23 22 21 15 18 21 13
24 25 21 19 22 21 20 22 24 25 24 25 25 27 29 31 33 34 30 26 25 22 18 18 17 18 16 17 17 22 21 22 16 9 10 8 4 4 1 2 3 6 5
22 24 20 17 16 17 20 20 21 24 26 26 26 26 25 26 28 29 24 22 22 24 22 19 18 13 17 16 16 15 19 14 5 11 10 6 3 5 6 7 9 9 9
21 22 20 15 11 8 13 19 20 18 17 17 16 20 21 19 22 22 23 25 23 24 25 23 18 17 14 14 13 11 10 7 4 5 3 5 6 10 10 12 10 9 9
24 22 21 18 16 12 6 8 15 15 14 12 11 12 14 12 15 18 16 16 13 10 13 17 17 16 14 15 15 14 11 9 6 3 4 5 8 10 8 7 7 6 6
34 27 25 22 22 19 14 13 16 18 17 15 11 8 9 8 9 15 18 20 20 19 16 15 14 11 7 5 8 11 11 12 3 0 2 6 6 8 5 6 6 6 5
30 33 27 30 27 25 20 20 21 22 27 25 21 19 13 14 12 13 18 20 24 20 18 18 17 16 13 11 9 7 8 10 7 3 1 4 8 6 4 7 9 9 9

GFSMA_925_spd_111.txt.gz
Wind_Speed
32 31 29 28 28 26 24 23 21 19 19 18 17 16 17 20 24 21 21 26 23 20 18 18 18 18 20 19 18 18 18 17 17 16 15 16 16 14 14 13 13 12 11
33 32 31 29 30 29 27 25 24 22 22 19 19 19 18 19 23 21 20 25 21 20 19 17 18 19 20 20 19 18 18 18 17 16 15 15 14 14 14 14 13 12 11
33 33 33 32 32 30 27 26 24 24 22 17 19 20 21 19 21 24 22 24 23 21 21 20 18 21 20 21 21 18 17 17 17 16 16 15 14 14 14 13 13 13 11
33 33 33 33 32 30 30 29 27 26 23 20 20 19 21 20 20 22 22 25 26 23 21 22 22 23 22 21 20 19 18 17 17 17 17 16 16 16 15 14 13 12 12
32 33 34 34 33 32 32 30 29 28 21 18 22 21 23 20 21 22 25 26 27 26 24 24 22 23 22 23 21 19 19 18 18 18 17 16 17 17 17 15 14 13 12
33 33 33 33 34 34 32 31 29 26 22 19 18 20 25 21 21 23 27 26 28 28 25 26 24 24 25 21 21 19 19 18 19 19 19 18 17 18 17 15 14 14 14
34 34 34 34 34 35 34 32 29 22 21 23 13 14 17 23 23 24 26 27 29 30 27 27 28 26 25 23 22 20 19 19 20 20 20 19 20 20 17 16 15 15 15
34 35 35 34 35 34 33 28 28 22 20 22 10 9 3 4 20 25 26 29 29 31 29 30 28 27 26 25 23 21 20 22 22 21 20 20 20 19 20 19 18 17 17
35 34 36 36 35 35 33 29 31 26 19 22 26 7 2 3 5 14 25 29 29 31 32 31 30 30 29 28 26 23 23 24 23 22 22 22 21 21 20 20 19 19 19
37 35 37 36 36 36 32 33 33 32 25 20 25 27 13 10 4 2 11 27 30 31 33 33 32 32 31 30 30 29 27 26 26 26 24 23 22 22 22 21 21 19 20
37 37 36 36 37 36 34 31 30 31 31 24 25 19 20 17 16 4 5 8 22 30 32 36 35 33 33 32 33 32 30 30 28 26 28 27 25 24 23 23 22 20 20
36 36 36 36 34 34 33 30 33 32 32 30 27 28 27 15 14 9 5 14 16 20 32 35 37 34 33 34 34 34 32 31 30 28 28 28 30 29 27 27 25 24 24
36 37 36 36 36 35 34 32 32 32 31 32 32 30 29 30 25 24 16 14 8 8 18 33 38 36 34 34 33 33 33 30 30 29 29 29 28 29 30 31 30 28 28
34 35 38 37 37 35 35 31 29 32 31 32 33 32 32 31 31 29 21 21 3 7 8 11 36 38 36 36 35 31 30 28 29 28 29 30 30 29 29 29 30 31 33
36 34 35 37 36 34 33 29 29 28 29 28 26 34 34 35 34 27 27 28 15 6 7 15 13 35 33 31 31 32 32 33 31 30 31 30 31 30 30 30 30 31 32
34 33 35 35 33 32 30 28 28 28 26 28 28 26 28 28 31 32 32 28 22 11 3 21 30 24 34 36 31 29 30 29 32 30 30 29 28 28 29 30 30 32 33
35 34 36 34 33 32 29 27 27 25 25 24 26 27 29 30 30 33 31 27 25 22 10 11 23 29 20 26 29 29 29 28 29 30 28 28 28 28 29 30 30 34 34
34 36 35 34 34 30 26 26 24 24 23 24 27 25 25 32 32 31 31 27 26 21 11 6 15 15 18 23 19 21 16 20 26 27 24 24 24 24 26 27 29 31 34
31 32 31 32 31 27 26 24 22 23 23 24 23 28 28 30 28 27 31 32 29 25 22 14 15 16 14 22 19 18 18 19 16 15 16 17 20 23 27 29 32 34 33
29 31 30 29 26 24 25 24 20 21 21 22 26 29 28 35 32 31 29 27 28 25 23 21 16 19 25 30 23 21 19 17 13 13 15 17 20 20 22 19 16 15 13
28 31 26 24 23 24 22 23 24 22 22 19 21 24 26 32 33 32 32 29 27 25 21 21 17 16 17 14 22 23 20 18 12 14 11 8 7 5 4 4 4 3 2
11 12 20 19 19 19 21 22 23 23 23 23 24 22 23 23 25 27 28 31 35 29 24 20 18 16 19 20 19 22 21 11 4 12 13 10 7 7 6 6 7 7 6
26 22 16 10 9 7 13 18 20 21 19 19 20 20 23 24 25 27 27 26 23 25 26 23 19 20 17 20 21 19 19 13 10 12 16 9 10 10 9 8 8 7 7
30 34 28 22 14 11 4 9 16 15 14 11 10 11 16 18 19 19 19 16 12 9 12 18 18 18 16 18 18 15 18 15 10 9 12 6 12 13 11 8 6 6 6
35 28 28 26 25 22 12 7 15 16 14 12 7 5 8 9 12 16 19 19 17 15 12 11 12 11 9 10 13 13 12 14 4 5 7 8 12 11 8 8 7 3 4
28 28 34 33 31 26 23 10 13 18 20 20 17 16 11 10 10 11 15 21 23 18 18 19 18 17 15 12 8 7 7 7 8 3 4 5 18 10 5 9 9 7 8

GFSMA_925_spd_114.txt.gz
Wind_Speed
30 28 29 28 26 22 23 23 18 16 17 16 16 16 17 17 20 20 19 22 21 18 18 16 15 16 16 18 18 17 18 16 16 16 16 16 15 15 14 13 13 12 12
31 30 29 28 27 25 23 21 20 18 17 17 16 15 15 16 19 21 19 22 22 18 16 16 15 16 17 18 17 17 18 17 17 16 16 17 16 15 14 14 14 13 12
32 31 30 28 27 27 24 21 20 19 17 18 15 15 17 17 17 19 18 19 22 20 16 17 15 16 19 18 19 18 18 18 17 17 17 17 17 16 15 14 13 13 12
32 32 30 28 26 25 25 25 23 21 20 20 18 16 16 16 16 17 20 19 23 21 18 19 16 17 20 20 21 18 18 19 18 18 17 17 16 16 15 14 13 13 12
33 33 32 28 26 26 26 26 25 23 23 21 19 17 16 16 17 18 18 22 21 23 22 22 20 18 19 21 21 19 18 19 19 18 18 17 17 16 16 15 14 13 14
33 33 33 30 28 27 26 27 26 24 22 23 17 16 19 18 18 19 20 25 23 24 26 23 23 21 23 21 22 20 20 20 19 19 18 18 18 17 17 16 15 15 14
34 33 33 31 29 30 30 28 24 19 19 18 13 15 16 19 23 24 23 23 27 24 24 25 24 23 24 24 24 21 21 20 19 20 20 19 18 18 19 17 16 16 16
34 34 33 32 31 30 28 27 26 18 18 21 8 5 2 5 18 24 25 25 29 28 28 27 26 25 27 28 25 23 21 21 20 20 21 21 20 20 19 18 18 17 17
34 34 33 33 33 32 29 30 29 26 16 20 23 8 2 3 3 11 23 26 28 30 30 29 29 27 29 28 26 25 23 22 22 22 21 21 21 21 20 20 19 19 19
35 35 34 33 33 34 32 32 32 32 24 17 20 30 16 5 3 2 11 25 29 31 31 31 30 31 31 31 29 28 26 26 25 25 23 22 22 21 21 20 20 20 20
37 37 36 34 35 35 34 33 32 32 32 22 22 16 24 21 15 3 3 7 21 31 34 34 32 32 33 34 33 32 31 28 26 27 27 25 24 23 22 21 21 21 22
37 40 37 34 33 34 35 33 32 31 31 29 23 23 21 12 12 8 2 12 16 21 33 35 34 35 34 36 35 33 33 32 30 29 28 28 28 26 24 23 22 22 21
30 37 39 37 36 37 36 34 32 30 32 30 29 27 27 26 25 26 17 8 5 9 17 32 36 36 36 37 36 35 33 33 32 31 31 30 29 30 30 28 28 27 26
31 30 35 36 36 36 38 35 34 33 33 31 31 31 29 30 30 27 23 13 4 6 11 18 37 38 38 37 35 33 32 31 31 31 31 31 31 30 29 28 29 29 29
32 32 32 35 35 35 36 35 34 33 32 30 29 30 31 32 31 37 33 29 22 8 10 17 15 39 38 36 35 35 33 30 28 28 29 30 30 29 29 30 29 28 29
32 30 30 33 34 31 35 35 32 31 29 27 27 27 27 26 27 33 34 31 28 19 7 18 26 17 32 37 37 37 33 30 30 29 29 29 29 30 30 30 29 29 30
30 31 32 32 33 31 33 34 31 29 27 25 26 27 29 27 28 29 29 30 26 22 6 9 22 26 25 25 32 36 31 28 28 26 26 28 30 28 27 27 28 29 29
29 32 32 31 32 33 34 34 32 29 25 26 26 26 27 25 27 28 30 29 26 29 17 8 15 21 26 25 28 29 31 25 22 22 23 24 25 25 26 27 27 28 28
24 26 27 30 32 32 32 31 28 25 26 25 25 25 23 28 26 26 29 28 26 26 25 17 14 22 16 24 22 19 18 13 11 13 11 13 15 18 22 24 23 23 24
5 20 23 27 29 30 31 31 26 26 23 24 25 24 24 27 29 28 29 29 27 25 24 23 18 18 21 17 15 15 15 19 23 21 21 15 13 13 13 14 16 16 16
12 8 10 21 27 25 23 21 25 25 23 23 22 21 23 28 34 36 31 30 30 30 25 22 16 16 17 14 19 22 21 22 19 18 17 12 10 8 7 6 7 7 7
22 18 14 8 8 4 13 19 24 27 23 20 19 18 16 21 30 31 33 30 31 28 25 21 19 19 23 24 23 24 23 14 5 19 21 14 11 10 9 7 10 11 10
28 27 25 22 22 24 14 13 17 23 20 19 19 19 20 19 20 23 27 28 30 30 29 28 26 25 24 30 31 26 27 22 15 22 23 13 13 15 13 14 12 11 10
31 31 31 28 27 31 28 12 2 8 12 10 8 11 15 16 16 21 23 21 17 16 21 25 28 24 25 28 32 32 30 22 13 21 19 7 20 17 15 11 10 10 9
33 32 30 33 35 34 28 22 11 12 14 13 6 2 5 9 10 16 18 18 14 11 5 9 13 17 18 19 18 19 21 23 5 7 10 10 16 16 14 12 10 7 9
29 29 37 39 37 39 32 22 19 20 24 23 20 20 14 7 5 9 15 18 19 16 15 14 15 14 10 9 11 13 15 17 12 5 10 8 20 11 7 8 7 9 9

GFSMA_925_spd_117.txt.gz
Wind_Speed
29 25 22 20 22 23 19 20 18 15 16 16 16 15 12 11 13 16 19 18 18 17 16 16 15 15 15 16 18 17 18 17 17 18 17 17 17 17 17 16 15 14 13
28 29 25 23 19 23 22 19 17 15 15 15 15 15 13 12 12 14 18 16 18 17 19 18 17 15 16 16 18 17 19 18 17 18 18 17 17 18 16 16 14 14 13
29 28 27 26 22 23 22 19 17 17 15 15 13 13 11 11 10 14 17 17 19 19 18 14 15 15 16 17 18 17 18 18 17 18 19 19 18 18 17 16 15 14 13
29 28 27 25 23 27 23 20 21 17 13 13 12 11 10 10 10 10 13 17 20 22 21 18 16 15 16 18 20 18 19 19 18 18 18 19 18 18 17 17 16 15 13
30 29 27 26 26 25 24 23 22 19 16 14 12 10 9 10 11 11 14 16 21 23 24 20 20 17 17 20 22 20 18 20 19 19 18 19 20 20 18 17 16 17 15
32 29 27 26 26 25 24 24 20 18 15 14 11 11 11 12 11 13 14 16 18 22 25 22 22 20 19 22 23 22 20 20 20 20 19 20 20 20 19 19 17 17 17
33 32 29 27 26 26 26 24 24 20 14 12 7 9 12 15 16 18 18 18 19 22 24 24 24 24 22 24 24 24 22 22 22 20 20 20 21 20 19 19 18 17 16
33 33 32 29 28 26 25 25 25 16 15 19 7 4 2 6 15 19 19 22 23 23 26 25 26 27 26 23 26 26 25 23 25 22 23 23 22 20 21 20 19 17 17
32 33 33 32 30 28 26 27 27 23 16 21 22 8 2 4 4 10 22 22 24 26 27 30 30 30 28 22 26 27 27 25 26 25 22 24 23 22 21 21 20 19 18
31 31 33 34 32 32 28 29 28 26 20 16 22 26 19 4 3 2 9 22 28 28 29 32 33 32 30 26 28 30 29 26 25 24 24 24 24 23 23 23 22 21 21
34 33 35 34 33 31 29 30 30 31 29 21 21 14 22 19 17 5 3 6 21 27 30 33 35 35 34 32 25 27 31 29 27 27 27 28 25 24 23 22 23 23 21
35 38 37 37 35 31 28 28 30 31 30 28 25 21 19 10 11 9 5 6 15 19 30 34 36 38 37 36 35 33 33 31 32 31 27 29 26 25 25 25 23 22 22
30 37 40 38 37 36 33 30 29 30 31 29 29 27 27 25 20 21 19 11 5 13 18 32 38 41 39 35 30 36 37 35 34 34 32 30 30 30 29 26 26 25 23
29 26 31 33 35 34 36 33 33 35 33 33 31 31 27 26 25 25 22 18 5 7 14 19 35 42 43 38 31 34 33 37 35 35 34 34 32 31 31 31 32 30 29
25 30 32 35 37 34 36 34 32 32 33 34 32 31 31 26 26 28 29 28 21 6 9 18 17 40 44 42 37 35 35 34 35 35 34 34 33 32 32 32 32 31 30
25 25 30 32 31 32 34 34 30 31 32 32 31 30 29 26 27 28 31 31 29 23 8 28 29 27 45 41 39 33 33 34 32 33 32 31 31 31 32 32 31 31 31
25 26 26 27 29 30 33 33 30 29 32 30 31 29 28 25 25 25 25 27 29 27 11 10 21 27 31 40 37 36 30 32 31 32 33 31 30 31 32 31 30 30 29
19 22 24 24 29 30 30 32 32 29 30 29 29 27 26 23 24 27 27 29 29 28 21 12 17 25 24 33 34 29 27 27 23 24 25 24 26 27 29 29 27 28 28
3 11 19 24 27 29 30 32 32 31 32 31 30 26 25 22 24 25 27 26 28 25 25 14 14 21 22 28 24 23 17 13 21 24 21 21 23 25 26 28 28 28 27
14 10 3 12 19 21 24 27 31 32 32 31 25 25 21 25 25 25 27 28 27 25 25 20 16 18 19 22 29 22 17 21 19 19 18 16 15 18 19 20 23 23 19
25 20 13 12 9 5 3 13 19 30 29 27 20 24 25 26 25 25 27 27 26 25 21 20 15 13 16 14 24 26 23 25 19 19 17 15 14 14 12 13 14 14 13
29 29 28 25 24 21 20 10 17 14 21 25 23 22 23 21 21 23 32 34 35 31 25 25 21 20 21 22 22 22 18 12 5 20 22 17 16 15 15 13 12 13 12
32 32 32 30 30 28 25 17 8 7 3 8 12 16 19 19 18 21 25 31 32 33 29 27 26 25 24 28 27 24 26 24 17 22 28 15 16 17 15 16 15 15 15
29 32 35 33 31 33 26 20 12 10 12 16 9 1 7 11 14 19 20 22 20 22 23 24 25 22 23 23 34 34 32 26 17 26 29 7 21 18 18 16 14 14 14
30 31 31 33 32 36 29 24 20 19 22 22 23 22 11 3 2 6 16 19 15 11 7 9 14 19 21 24 27 31 27 24 5 8 20 13 16 21 18 16 13 12 14
24 24 29 31 32 36 36 30 26 24 26 25 26 24 27 17 9 2 7 12 15 9 11 10 8 9 7 7 10 12 18 16 10 6 13 8 27 14 7 12 16 13 13

GFSMA_925_spd_120.txt.gz
Wind_Speed
20 20 19 19 19 19 18 17 14 15 13 13 12 12 12 11 10 8 11 17 17 17 16 15 15 14 14 17 18 17 17 16 18 18 17 18 17 16 16 15 15 13 12
21 21 20 19 20 19 19 17 16 15 13 12 12 12 12 10 10 10 10 13 17 15 16 15 17 17 15 15 18 18 18 18 18 17 18 18 18 17 16 16 14 14 13
21 22 21 21 20 19 19 16 15 15 14 12 12 12 11 11 11 11 11 11 16 17 15 16 18 18 17 15 19 17 20 18 18 17 18 19 18 18 16 16 15 14 13
23 23 19 21 20 22 17 17 17 16 16 15 13 13 12 11 11 11 11 12 13 16 20 18 14 19 18 17 20 19 20 19 19 18 19 20 19 18 18 17 15 15 14
28 25 23 20 22 22 17 18 16 17 16 15 15 13 12 11 11 11 12 12 12 15 16 20 20 19 20 21 22 22 20 21 19 20 21 21 21 20 19 18 17 15 14
30 26 25 22 27 22 18 21 16 18 17 16 15 14 12 12 11 11 13 13 13 15 17 17 22 23 22 21 25 24 23 22 21 21 22 22 23 21 20 19 18 17 16
31 29 25 26 28 24 23 25 19 18 17 15 9 10 11 12 12 13 12 12 13 14 18 18 21 24 25 23 27 26 25 23 23 23 23 22 22 23 22 21 20 19 18
31 29 29 27 28 24 23 23 26 17 17 18 11 7 4 9 12 15 15 15 17 17 17 18 21 26 27 25 30 29 29 27 25 25 25 24 23 23 22 21 21 20 18
25 29 28 27 27 26 25 25 31 22 18 19 19 11 4 7 5 10 17 18 18 19 19 19 22 27 31 25 25 29 31 31 28 28 26 25 26 25 22 23 23 22 20
25 26 26 30 31 31 26 28 28 28 21 16 18 22 20 12 6 4 6 14 16 18 20 22 22 28 29 32 26 27 31 34 30 29 31 25 26 26 25 22 23 23 22
27 27 26 27 28 30 29 28 29 30 28 22 20 13 21 21 22 14 8 6 16 21 21 21 25 29 29 36 30 29 32 34 33 29 30 29 27 26 26 26 23 25 24
28 31 29 30 31 28 28 29 30 29 31 28 22 23 20 16 18 16 10 13 13 15 26 24 25 30 29 38 39 29 33 35 35 31 30 28 28 28 28 27 26 25 25
26 34 32 30 32 31 27 28 31 28 29 28 29 27 25 24 18 19 17 16 12 18 14 27 31 31 35 39 42 38 33 33 38 34 34 32 30 30 30 29 27 27 25
22 24 32 29 28 27 28 28 29 28 28 30 28 27 26 26 24 22 22 19 11 8 18 19 25 35 36 37 45 43 38 37 38 38 36 36 34 30 31 30 29 29 28
21 24 26 31 33 34 31 28 30 30 28 29 29 29 30 27 27 26 25 19 15 9 6 18 21 29 35 34 43 44 39 35 38 42 39 38 38 35 34 33 33 33 32
10 20 25 25 28 30 31 31 29 28 28 28 28 29 30 29 27 27 25 23 22 21 10 17 27 27 32 36 38 45 40 32 33 37 42 39 38 38 37 36 35 35 34
11 19 21 24 26 26 26 27 28 31 34 30 30 30 30 29 28 26 24 24 24 24 14 19 23 27 29 37 37 44 41 31 27 33 36 38 37 37 38 37 36 35 35
7 7 18 19 23 24 23 27 31 30 28 28 30 28 30 28 29 26 23 22 23 25 23 18 20 24 30 35 37 37 38 31 25 25 28 34 34 33 35 37 36 35 33
12 8 1 4 11 17 22 27 30 29 31 31 30 30 31 28 28 25 23 24 26 24 25 24 14 21 23 27 29 31 32 31 28 25 26 28 30 33 34 35 35 36 34
20 18 16 11 9 6 5 11 15 25 30 31 32 33 31 31 30 25 25 25 22 21 22 20 18 16 22 21 30 25 20 26 25 21 24 25 27 27 29 32 33 32 32
24 21 21 21 18 17 17 14 15 17 18 26 29 30 31 31 29 25 23 21 21 22 20 19 16 14 15 14 23 23 22 21 16 20 18 16 17 18 17 19 23 26 27
29 28 26 29 28 25 21 16 11 11 14 12 18 24 24 22 21 25 25 24 26 26 23 21 20 17 21 24 25 23 22 13 4 22 22 17 16 15 15 15 15 17 18
29 30 30 30 29 32 24 22 16 9 5 5 5 4 5 11 23 23 23 25 30 35 34 27 25 24 23 29 26 24 27 26 22 23 28 13 16 15 13 12 14 17 18
29 29 31 27 30 37 27 21 22 18 19 18 18 14 8 6 7 11 17 15 14 15 22 26 22 22 21 25 31 34 30 23 17 26 32 7 19 15 17 17 18 19 20
27 29 28 30 29 35 37 27 23 20 22 26 24 24 17 12 11 5 8 13 10 9 5 9 13 14 18 22 29 30 25 21 4 10 26 15 18 23 21 18 17 16 18
26 24 27 30 30 31 38 35 28 24 26 24 26 28 28 23 12 8 7 4 12 8 4 5 6 5 2 2 9 16 19 25 11 5 19 13 29 17 8 17 17 18 18

GFSMA_925_spd_123.txt.gz
Wind_Speed
21 20 20 19 21 19 18 19 16 15 15 13 10 9 9 10 9 6 6 13 14 11 14 13 11 10 13 15 14 14 14 15 15 15 14 13 13 15 14 13 12 11 10
21 21 20 20 20 19 18 18 17 16 14 15 14 12 10 9 9 7 7 12 15 14 12 13 13 16 14 15 17 16 16 17 16 17 16 15 15 15 15 14 13 12 11
25 23 23 19 22 20 21 19 16 14 16 15 13 14 12 11 10 9 9 9 14 18 15 16 15 17 17 16 18 19 18 18 18 18 17 17 18 17 16 16 14 13 12
27 24 22 23 23 22 19 18 17 17 16 14 14 13 14 14 14 11 11 11 12 15 19 19 18 18 20 17 18 22 20 20 19 19 18 19 19 19 18 17 16 14 13
30 26 21 24 17 21 21 19 18 17 15 15 14 13 12 11 12 11 12 11 12 13 15 20 22 19 24 22 21 22 21 21 20 20 20 21 22 20 20 18 17 16 15
32 30 24 25 26 21 25 21 18 18 17 16 15 13 12 11 10 11 12 12 11 12 16 16 21 24 24 25 23 23 23 23 22 22 22 22 23 23 21 20 19 18 17
35 32 27 25 28 25 24 24 20 19 17 15 13 7 11 10 12 14 14 14 14 14 14 16 21 23 27 27 26 26 25 24 24 24 24 24 23 24 23 21 21 21 19
38 33 30 28 29 24 24 25 24 18 18 19 12 8 4 9 19 20 18 17 16 16 16 18 22 25 23 29 30 29 29 28 27 26 27 27 25 25 24 23 23 22 21
34 33 33 30 31 27 28 24 25 23 20 19 18 11 4 8 9 16 17 17 17 19 16 18 22 24 24 23 31 30 31 32 31 30 30 29 27 26 25 24 24 24 23
30 35 32 31 31 29 26 26 25 25 22 17 17 23 23 16 6 6 8 12 14 15 16 17 23 24 23 26 28 28 32 33 34 33 32 31 29 29 26 25 23 24 24
29 30 32 32 32 31 29 26 26 27 27 21 22 16 22 22 20 13 9 7 12 15 18 20 21 23 24 26 29 29 32 31 36 37 34 33 31 30 29 28 26 24 27
28 29 29 32 32 31 31 29 28 28 26 26 23 23 21 17 17 12 9 12 10 15 17 19 20 21 24 30 32 32 36 34 34 39 38 36 34 32 30 29 28 27 26
23 24 26 27 31 31 28 27 29 28 29 26 29 24 24 22 21 19 19 15 8 16 11 17 20 23 25 28 32 36 39 35 36 38 41 38 37 35 32 31 30 29 28
17 19 21 22 25 26 26 26 26 26 26 27 26 29 25 25 24 21 18 14 9 11 18 14 15 22 25 27 30 36 39 40 36 38 41 42 39 36 34 32 32 32 31
4 22 22 25 25 24 25 27 27 25 24 28 29 28 28 26 23 24 23 23 17 9 10 16 17 21 22 30 35 35 36 47 45 42 41 45 42 39 36 34 33 34 33
5 1 14 16 21 24 27 27 28 27 27 29 25 24 26 25 24 25 24 24 23 20 12 19 16 19 20 27 31 36 40 41 46 45 42 44 45 41 39 37 34 35 35
8 6 4 12 14 19 22 24 24 25 27 29 24 23 33 30 24 25 27 27 25 25 14 23 20 20 21 25 28 34 37 40 45 47 43 42 47 45 42 41 39 37 37
14 10 9 2 5 12 14 20 24 25 26 26 28 28 41 31 29 30 28 29 27 26 21 15 20 19 23 27 33 34 37 39 40 39 43 41 42 46 44 41 41 40 40
24 23 20 17 14 13 8 4 4 14 27 28 28 30 34 29 30 30 31 28 26 25 23 20 26 20 20 22 27 30 33 35 34 35 30 35 36 37 42 42 41 40 39
33 32 29 25 23 22 19 14 11 11 12 13 25 31 29 28 28 29 28 28 28 25 24 21 17 16 17 20 25 23 20 25 24 27 31 28 28 29 35 39 40 39 39
35 32 30 33 31 30 28 23 15 14 13 17 18 21 31 33 34 33 28 24 24 21 22 15 15 14 15 13 19 19 22 22 24 29 25 23 23 25 27 32 38 38 38
33 33 33 32 35 33 27 25 20 16 15 16 17 17 12 10 20 27 30 29 25 20 19 16 16 13 20 21 21 23 19 10 4 22 26 19 19 20 20 22 25 30 31
31 33 33 31 32 38 31 27 26 22 21 21 21 21 16 15 14 12 16 26 28 27 29 25 23 22 22 27 24 22 24 24 20 24 26 15 19 18 16 17 16 19 20
29 30 30 31 31 39 36 29 24 22 24 24 25 26 23 22 20 17 14 12 11 12 12 17 20 16 18 20 27 30 32 24 15 21 27 6 17 13 15 14 14 17 20
29 31 31 31 30 33 39 33 24 26 27 27 27 30 30 26 23 16 9 3 3 5 5 6 5 5 8 16 22 27 23 20 3 10 26 16 17 18 16 19 17 19 21
25 23 26 30 28 29 33 33 28 24 24 24 27 31 33 29 24 18 13 5 6 7 7 7 7 7 5 5 3 6 11 17 10 4 21 16 21 15 7 15 19 20 20

GFSMA_925_spd_126.txt.gz
Wind_Speed
23 26 23 20 22 20 20 19 17 16 16 14 12 11 9 8 5 5 5 12 13 12 13 12 16 20 18 17 18 17 16 14 15 13 11 11 11 13 13 14 13 13 11
25 25 26 22 25 21 21 20 20 18 17 15 14 13 10 9 8 8 7 12 15 13 12 16 19 19 18 18 21 19 18 18 17 16 14 14 13 15 14 14 13 13 13
27 26 25 23 24 25 21 22 19 18 16 14 17 16 13 10 10 8 8 9 18 17 16 16 17 17 18 18 21 21 20 20 19 17 16 16 15 16 16 15 15 14 13
26 26 27 25 24 27 25 24 21 20 18 17 13 17 17 16 16 14 12 11 14 20 22 21 20 18 19 21 19 22 23 21 20 17 18 18 17 18 18 17 16 15 14
34 31 26 29 29 28 26 26 24 23 19 19 17 11 15 15 17 15 15 14 15 17 20 23 23 21 20 23 22 21 22 22 21 21 20 19 19 21 20 20 18 17 16
37 39 29 27 28 28 30 27 25 22 21 23 17 17 13 13 12 17 17 15 16 16 18 20 24 26 24 26 25 23 23 22 23 23 22 20 21 22 22 21 20 19 18
42 39 36 22 25 24 24 27 25 24 21 19 18 13 13 14 15 13 16 18 19 17 16 20 21 26 28 29 28 26 24 23 24 24 24 24 24 25 24 23 21 21 20
42 40 36 32 32 25 25 26 26 21 19 22 13 13 3 8 15 22 22 18 18 17 20 20 23 24 26 31 32 31 27 27 27 26 27 26 25 26 26 25 24 23 22
40 42 39 35 32 33 30 30 31 24 19 24 21 10 3 4 6 18 24 23 20 20 19 17 21 22 27 27 31 33 33 31 31 29 29 28 27 28 26 26 25 24 24
41 41 40 36 33 32 30 29 30 30 23 19 24 27 17 4 2 3 16 22 21 22 21 21 21 24 26 31 30 33 36 35 34 32 31 31 29 31 30 29 28 27 27
40 39 38 37 35 33 33 31 29 30 30 22 23 18 22 19 15 5 3 8 20 21 21 20 22 23 26 28 31 32 34 37 37 36 35 33 31 32 32 31 29 29 27
38 39 40 36 35 32 31 33 30 30 28 27 22 23 16 12 15 8 3 4 9 18 23 24 26 27 26 29 32 34 33 36 37 38 38 37 36 33 33 33 32 31 28
33 36 39 33 33 32 30 29 29 31 30 28 26 21 22 23 19 19 15 6 5 12 19 24 22 23 25 27 33 34 35 35 36 37 39 41 40 38 35 34 34 33 32
25 29 34 36 32 32 30 30 29 29 29 29 24 25 23 24 23 23 19 10 3 4 9 11 24 25 24 27 30 31 34 37 38 40 39 41 43 41 39 37 35 33 35
16 16 16 24 28 31 32 32 31 31 30 31 33 33 32 28 26 26 24 21 10 3 5 16 15 24 25 27 27 28 31 39 41 41 43 42 42 45 43 41 39 36 36
21 16 12 10 14 16 20 26 28 28 31 32 34 30 32 23 28 24 23 22 20 16 6 13 14 18 21 27 27 26 30 35 36 38 45 45 44 44 46 43 42 40 37
26 20 19 16 8 2 10 20 25 28 30 28 30 30 29 22 21 34 29 23 23 19 10 26 22 18 18 21 25 27 28 32 34 36 38 48 47 45 46 47 45 43 41
30 26 23 21 18 15 9 2 3 9 19 24 25 25 21 28 28 31 28 30 28 27 20 19 24 23 23 24 26 26 30 30 33 38 38 40 50 51 46 48 48 45 43
34 28 27 28 25 23 18 13 10 8 5 4 13 20 24 24 24 21 21 23 26 24 25 23 20 23 22 22 23 26 29 33 33 38 40 41 43 52 50 46 48 47 45
39 34 31 30 30 28 25 19 15 13 11 10 11 10 12 14 18 25 27 29 27 25 23 23 22 24 22 21 23 21 19 29 30 33 35 38 40 48 46 43 46 49 47
39 36 38 37 34 33 30 25 21 19 19 17 16 15 14 17 16 10 11 17 22 25 26 21 20 17 14 14 16 19 22 21 26 31 32 35 36 43 46 45 43 46 47
36 35 31 32 34 35 31 30 27 24 24 24 25 22 19 21 22 20 18 16 18 13 14 13 9 11 16 18 20 22 21 9 3 23 25 26 27 32 36 38 39 40 43
30 29 30 30 33 38 32 32 29 29 28 28 29 30 26 26 25 22 18 18 12 8 4 10 8 10 15 21 25 23 23 20 17 18 29 18 20 21 21 23 29 32 35
27 29 32 33 35 39 38 30 26 27 28 30 32 34 31 31 29 24 18 17 14 14 16 11 6 8 10 15 17 22 25 25 21 18 28 8 16 9 13 13 12 17 20
28 30 33 30 29 33 36 36 29 26 26 26 29 29 33 32 31 25 19 18 17 18 14 13 11 10 12 14 14 20 20 16 4 11 29 17 14 14 11 12 11 12 15
26 25 26 30 30 31 36 35 31 27 25 24 25 25 29 31 31 30 26 21 20 19 18 14 13 11 11 12 11 8 6 8 5 3 21 20 18 15 6 11 15 17 17

GFSMA_925_spd_129.txt.gz
Wind_Speed
30 28 29 29 27 24 23 21 20 19 18 18 15 14 13 10 7 10 9 14 15 17 16 9 19 24 21 21 20 19 19 18 15 15 13 14 14 17 17 17 16 16 15
32 31 31 30 27 26 26 23 21 21 21 17 19 16 13 10 10 11 8 12 16 17 17 17 19 22 22 23 22 22 21 20 16 17 15 15 14 16 18 19 18 18 16
33 30 32 30 28 27 25 25 23 20 20 20 19 17 14 12 11 11 10 9 16 17 15 16 18 20 21 22 23 24 22 22 20 20 18 18 16 17 17 19 19 18 17
35 32 32 33 29 30 27 27 26 24 24 22 21 20 19 18 17 17 16 10 13 19 18 19 19 20 21 21 22 24 24 23 24 21 21 20 19 19 19 20 19 19 18
39 33 35 33 31 33 31 28 29 27 24 22 19 19 22 21 20 19 17 13 13 16 21 22 22 21 20 21 22 22 23 24 24 22 21 22 21 21 22 21 20 19 19
40 35 37 34 33 32 35 33 31 28 26 24 21 19 19 21 20 22 21 19 17 18 19 22 25 26 25 24 24 24 22 23 24 24 23 24 24 24 24 23 21 21 19
39 42 38 33 36 39 38 36 34 30 26 23 20 14 14 16 21 23 25 24 23 22 21 21 24 27 28 27 25 27 24 24 25 25 27 26 26 26 26 26 24 22 21
46 45 41 39 36 40 40 38 36 27 28 27 17 8 2 5 16 22 25 26 26 25 24 24 24 25 27 30 30 30 29 26 28 28 29 28 28 26 27 27 26 24 23
46 50 43 43 34 40 40 40 37 32 23 29 25 11 3 4 4 17 27 27 26 27 25 27 26 26 25 27 30 32 34 32 31 30 30 31 29 29 29 28 27 27 25
45 45 44 43 43 39 37 40 38 32 27 23 29 30 11 7 4 1 6 28 30 27 27 26 26 27 25 26 25 26 34 35 34 33 33 33 31 31 32 32 30 29 29
44 48 49 46 42 37 32 35 34 33 33 26 26 25 26 14 8 3 2 5 21 26 29 30 30 28 28 28 29 27 30 32 36 36 36 33 34 32 33 34 33 33 33
35 47 49 46 45 39 38 35 36 35 35 29 31 27 24 17 12 5 2 3 10 22 29 31 32 32 31 29 31 30 28 33 32 38 40 38 36 36 33 35 36 34 34
41 54 48 45 45 42 38 37 33 34 35 33 32 27 27 24 24 19 15 7 5 17 25 34 33 33 32 30 31 33 32 34 33 33 40 42 41 40 38 36 37 37 35
31 44 48 44 42 40 36 36 33 31 32 32 32 31 29 29 28 26 17 10 2 5 12 13 35 34 35 34 33 30 33 33 31 33 36 41 44 45 43 41 39 38 39
23 36 42 35 35 35 35 35 30 30 31 32 33 32 31 28 27 27 28 22 9 5 6 16 16 29 33 34 33 31 31 31 32 33 35 37 42 45 47 46 43 41 40
9 33 24 20 23 28 31 31 30 28 29 30 31 31 34 31 28 32 31 22 7 6 6 16 22 25 30 35 33 31 30 29 29 32 33 37 39 44 46 49 47 46 42
15 7 24 31 27 20 19 19 15 18 29 29 29 30 30 31 26 30 27 29 21 25 15 30 29 31 23 32 34 34 33 31 30 31 35 36 40 42 47 48 50 51 48
33 36 33 35 31 20 24 20 14 12 16 17 2 14 20 26 26 29 25 17 22 25 26 23 20 23 22 30 33 34 37 35 33 34 34 36 37 39 44 50 52 52 53
36 39 35 38 37 29 34 23 19 18 16 15 14 14 14 12 7 7 14 21 23 26 29 21 24 22 28 28 30 30 35 34 32 31 29 30 31 35 39 44 50 52 52
48 46 43 40 39 38 36 31 28 24 22 21 19 17 17 18 16 15 14 13 14 19 24 22 22 22 23 26 30 24 25 31 30 32 32 31 30 35 37 40 45 53 52
44 37 41 45 46 44 41 32 29 27 26 26 27 22 21 22 18 15 14 16 17 17 16 18 18 17 16 16 21 19 24 22 26 31 32 30 34 38 39 41 42 44 53
39 39 40 42 43 40 34 37 35 35 31 31 31 28 24 26 24 19 14 14 13 15 11 9 13 20 31 22 22 22 20 13 4 28 32 34 33 35 36 38 41 44 46
31 32 37 41 40 40 36 34 33 31 31 32 34 34 31 31 28 22 17 15 15 16 16 12 10 9 13 16 10 14 22 20 22 19 25 22 29 29 28 29 33 36 43
36 36 40 39 40 43 43 36 32 32 31 31 30 31 29 29 31 24 19 18 19 18 18 15 12 11 8 15 15 16 20 19 19 23 27 10 19 19 21 20 21 22 26
31 34 35 35 35 39 40 37 31 26 25 25 25 27 29 30 28 27 26 23 22 22 16 12 10 9 11 10 13 11 11 10 5 8 28 18 14 12 12 12 12 9 13
32 29 28 34 31 34 35 34 30 27 24 24 26 28 29 28 28 28 26 24 22 24 21 20 19 17 15 14 14 12 11 7 6 4 7 9 14 13 4 9 12 11 10

GFSMA_925_spd_132.txt.gz
Wind_Speed
31 30 30 30 29 28 27 26 23 21 21 20 17 16 19 16 13 12 11 13 17 18 19 21 25 23 24 24 23 21 20 19 18 18 18 17 16 17 16 15 15 16 16
34 35 33 33 33 32 29 28 26 24 23 23 21 21 20 16 13 14 12 14 17 18 19 20 21 27 25 24 25 24 22 21 19 18 18 17 18 18 17 18 18 17 17
37 39 37 37 36 34 31 29 26 24 24 24 22 21 22 19 14 15 13 12 16 18 18 18 18 22 23 23 24 24 23 22 21 19 19 19 18 18 19 20 19 19 18
41 40 40 40 39 37 34 32 30 27 27 27 24 25 23 20 18 18 16 18 14 18 19 19 21 23 22 22 23 24 24 24 24 22 22 20 20 19 19 21 22 21 20
44 42 41 40 40 38 35 34 33 31 28 29 29 27 24 21 21 21 21 21 16 16 21 22 21 22 23 24 24 24 25 26 25 25 23 23 22 21 21 22 22 21 21
41 41 42 41 42 40 37 37 36 35 33 33 29 23 22 25 25 24 23 23 18 18 18 21 23 25 24 24 23 23 22 24 25 27 26 26 25 23 23 23 24 23 22
39 41 42 44 43 42 42 41 37 37 34 31 24 21 19 19 25 25 26 23 22 22 23 23 24 26 27 27 25 25 23 23 25 27 28 28 29 26 26 26 26 24 24
30 40 39 42 44 39 40 40 38 28 26 34 17 16 4 8 19 25 27 28 26 24 24 26 26 26 27 29 29 29 27 26 27 28 29 30 30 29 29 28 28 27 25
26 31 44 40 42 40 38 41 41 33 25 33 30 11 3 4 3 15 27 29 30 29 27 27 27 27 27 27 28 30 31 31 30 30 31 32 33 32 31 28 31 31 28
24 25 34 42 43 45 37 41 40 38 31 26 27 32 15 12 4 2 13 28 31 33 31 29 29 29 30 29 28 28 31 33 35 33 32 33 33 35 36 32 32 33 32
31 29 25 30 45 43 37 38 37 37 38 29 29 23 18 15 11 3 3 6 25 33 32 32 32 31 32 31 31 30 30 29 32 38 36 34 35 35 37 34 33 35 38
25 23 23 36 42 39 38 43 42 41 37 33 30 29 27 14 7 5 2 3 7 20 36 34 34 33 33 33 33 32 31 32 32 33 38 39 37 38 37 36 37 38 40
22 16 16 21 47 26 38 36 37 38 38 35 34 33 30 29 22 18 10 4 3 15 17 32 32 34 35 35 35 34 32 32 32 34 36 40 42 41 40 39 38 40 42
22 18 15 17 26 39 42 37 36 37 34 35 32 30 32 31 34 29 20 9 2 5 15 10 25 35 35 38 37 34 35 33 34 35 36 36 40 44 44 42 42 41 42
19 8 7 11 24 37 41 39 32 31 35 32 33 33 30 30 30 30 28 24 10 4 4 8 13 18 31 39 38 36 38 36 34 35 37 38 39 41 47 48 46 45 43
10 5 7 15 12 27 44 35 30 30 32 30 30 32 33 28 30 29 30 30 27 14 3 18 19 21 17 24 37 39 42 39 36 34 36 38 39 40 43 48 51 50 48
30 29 14 16 19 15 14 27 27 26 29 29 29 30 30 30 27 29 28 26 23 22 8 11 15 15 21 23 27 29 35 41 38 36 35 35 38 41 43 44 48 53 52
36 33 40 26 26 20 27 27 22 18 16 17 13 18 14 17 20 15 21 24 26 22 17 17 21 22 28 30 36 36 36 36 38 41 36 36 36 37 41 44 47 49 53
47 46 49 43 36 33 23 33 30 18 25 22 19 19 15 10 9 3 1 5 5 18 25 19 19 22 25 26 27 31 33 36 43 41 42 37 36 37 39 42 46 49 50
46 48 52 53 49 37 34 32 36 27 26 32 27 26 24 17 13 9 7 5 3 6 7 13 21 19 21 25 28 25 23 32 34 40 43 40 38 36 36 37 39 42 46
46 51 54 52 50 49 40 39 39 34 31 36 31 26 24 22 23 15 11 10 8 7 8 9 11 10 14 13 17 25 26 27 29 34 37 38 35 34 37 41 41 40 40
42 52 48 49 55 38 36 38 38 34 36 33 28 24 33 30 24 22 18 18 16 14 9 5 5 5 7 11 14 17 15 19 5 24 33 28 33 36 38 40 39 38 40
46 47 53 46 44 40 36 38 38 38 37 37 35 32 34 35 26 19 15 18 17 17 15 9 6 7 7 12 15 20 13 12 5 4 20 21 30 33 34 36 37 38 38
36 42 42 37 38 38 36 30 27 29 33 32 33 31 28 27 29 23 21 22 21 18 16 12 11 9 8 12 12 13 19 20 23 24 18 9 25 29 30 29 29 31 34
38 37 33 33 36 37 36 33 27 25 26 28 30 31 34 32 29 23 25 21 22 21 17 15 12 11 10 11 14 12 12 10 4 3 5 9 9 12 14 19 21 23 25
33 35 43 46 35 37 34 33 32 28 26 24 26 28 28 28 24 23 23 20 17 21 18 16 14 13 13 14 16 15 12 7 6 4 11 8 3 5 2 7 10 13 14